<?xml version="1.0" encoding="UTF-8" standalone="no" ?>
<gpx xmlns="http://www.topografix.com/GPX/1/1" xmlns:xsi="http://www.w3.org/2001/XMLSchema-instance" xsi:schemaLocation="http://www.topografix.com/GPX/1/1 http://www.topografix.com/GPX/1/1/gpx.xsd" version="1.1" creator="VisuGPX - https://www.visugpx.com">
  <metadata>
    <name>Guégon - Pomeleuc</name>
    <desc><![CDATA[boucle de 39 km en pays Gallo, avec un départ possible sur la commune de Guégon et une pause déjeuner au hameau de Pomeleuc...
Plusieurs centres d'intérêt : le château de Josselin, le canal de Nantes à Brest, l'ancienne voie ferrée Ploermel - Locminé ....]]></desc>
  </metadata>
  <trk>
    <name><![CDATA[guégon - pomeleuc R 39 km]]></name>
    <trkseg>
      <trkpt lat="47.91361" lon="-2.59856">
        <ele>121.82</ele>
        <time>2019-03-29T08:07:19Z</time>
      </trkpt>
      <trkpt lat="47.91362" lon="-2.59855">
        <ele>121.82</ele>
        <time>2019-03-29T08:07:20Z</time>
      </trkpt>
      <trkpt lat="47.91363" lon="-2.59855">
        <ele>121.76</ele>
        <time>2019-03-29T08:07:24Z</time>
      </trkpt>
      <trkpt lat="47.91382" lon="-2.59852">
        <ele>122.3</ele>
        <time>2019-03-29T08:10:20Z</time>
      </trkpt>
      <trkpt lat="47.91385" lon="-2.59854">
        <ele>122.32</ele>
        <time>2019-03-29T08:10:26Z</time>
      </trkpt>
      <trkpt lat="47.91392" lon="-2.59861">
        <ele>122.55</ele>
        <time>2019-03-29T08:11:03Z</time>
      </trkpt>
      <trkpt lat="47.91393" lon="-2.59861">
        <ele>122.55</ele>
        <time>2019-03-29T08:11:04Z</time>
      </trkpt>
      <trkpt lat="47.91394" lon="-2.59861">
        <ele>122.57</ele>
        <time>2019-03-29T08:11:05Z</time>
      </trkpt>
      <trkpt lat="47.91395" lon="-2.59862">
        <ele>122.59</ele>
        <time>2019-03-29T08:11:06Z</time>
      </trkpt>
      <trkpt lat="47.91397" lon="-2.59863">
        <ele>122.6</ele>
        <time>2019-03-29T08:11:07Z</time>
      </trkpt>
      <trkpt lat="47.914" lon="-2.59867">
        <ele>122.91</ele>
        <time>2019-03-29T08:11:15Z</time>
      </trkpt>
      <trkpt lat="47.91387" lon="-2.59857">
        <ele>122.76</ele>
        <time>2019-03-29T08:11:30Z</time>
      </trkpt>
      <trkpt lat="47.91365" lon="-2.5985">
        <ele>122.52</ele>
        <time>2019-03-29T08:11:47Z</time>
      </trkpt>
      <trkpt lat="47.91345" lon="-2.59852">
        <ele>121.23</ele>
        <time>2019-03-29T08:12:04Z</time>
      </trkpt>
      <trkpt lat="47.91337" lon="-2.59862">
        <ele>120.53</ele>
        <time>2019-03-29T08:12:11Z</time>
      </trkpt>
      <trkpt lat="47.91335" lon="-2.59866">
        <ele>120.17</ele>
        <time>2019-03-29T08:12:18Z</time>
      </trkpt>
      <trkpt lat="47.91328" lon="-2.59882">
        <ele>119.99</ele>
        <time>2019-03-29T08:13:10Z</time>
      </trkpt>
      <trkpt lat="47.91327" lon="-2.59884">
        <ele>119.84</ele>
        <time>2019-03-29T08:13:12Z</time>
      </trkpt>
      <trkpt lat="47.91326" lon="-2.59885">
        <ele>119.77</ele>
        <time>2019-03-29T08:13:13Z</time>
      </trkpt>
      <trkpt lat="47.91312" lon="-2.599">
        <ele>119.02</ele>
        <time>2019-03-29T08:13:27Z</time>
      </trkpt>
      <trkpt lat="47.91298" lon="-2.59924">
        <ele>118.07</ele>
        <time>2019-03-29T08:13:41Z</time>
      </trkpt>
      <trkpt lat="47.91292" lon="-2.59931">
        <ele>117.44</ele>
        <time>2019-03-29T08:13:46Z</time>
      </trkpt>
      <trkpt lat="47.91292" lon="-2.59932">
        <ele>117.35</ele>
        <time>2019-03-29T08:13:47Z</time>
      </trkpt>
      <trkpt lat="47.9129" lon="-2.59934">
        <ele>117.24</ele>
        <time>2019-03-29T08:13:48Z</time>
      </trkpt>
      <trkpt lat="47.91273" lon="-2.59965">
        <ele>115.63</ele>
        <time>2019-03-29T08:14:07Z</time>
      </trkpt>
      <trkpt lat="47.91252" lon="-2.59994">
        <ele>114.9</ele>
        <time>2019-03-29T08:14:24Z</time>
      </trkpt>
      <trkpt lat="47.9124" lon="-2.60008">
        <ele>113.6</ele>
        <time>2019-03-29T08:14:37Z</time>
      </trkpt>
      <trkpt lat="47.91226" lon="-2.60028">
        <ele>111.08</ele>
        <time>2019-03-29T08:14:51Z</time>
      </trkpt>
      <trkpt lat="47.91213" lon="-2.60035">
        <ele>108.98</ele>
        <time>2019-03-29T08:15:03Z</time>
      </trkpt>
      <trkpt lat="47.91211" lon="-2.60035">
        <ele>108.87</ele>
        <time>2019-03-29T08:15:04Z</time>
      </trkpt>
      <trkpt lat="47.9121" lon="-2.60035">
        <ele>108.74</ele>
        <time>2019-03-29T08:15:05Z</time>
      </trkpt>
      <trkpt lat="47.91208" lon="-2.60035">
        <ele>108.63</ele>
        <time>2019-03-29T08:15:06Z</time>
      </trkpt>
      <trkpt lat="47.91206" lon="-2.60034">
        <ele>108.53</ele>
        <time>2019-03-29T08:15:07Z</time>
      </trkpt>
      <trkpt lat="47.91205" lon="-2.60033">
        <ele>108.43</ele>
        <time>2019-03-29T08:15:08Z</time>
      </trkpt>
      <trkpt lat="47.91203" lon="-2.60033">
        <ele>108.29</ele>
        <time>2019-03-29T08:15:09Z</time>
      </trkpt>
      <trkpt lat="47.91182" lon="-2.60033">
        <ele>108.18</ele>
        <time>2019-03-29T08:15:22Z</time>
      </trkpt>
      <trkpt lat="47.9116" lon="-2.60022">
        <ele>107.35</ele>
        <time>2019-03-29T08:15:38Z</time>
      </trkpt>
      <trkpt lat="47.91134" lon="-2.60014">
        <ele>105.97</ele>
        <time>2019-03-29T08:15:54Z</time>
      </trkpt>
      <trkpt lat="47.9111" lon="-2.60002">
        <ele>104.36</ele>
        <time>2019-03-29T08:16:10Z</time>
      </trkpt>
      <trkpt lat="47.91089" lon="-2.59993">
        <ele>103.11</ele>
        <time>2019-03-29T08:16:24Z</time>
      </trkpt>
      <trkpt lat="47.91082" lon="-2.59987">
        <ele>102.69</ele>
        <time>2019-03-29T08:16:29Z</time>
      </trkpt>
      <trkpt lat="47.9108" lon="-2.59987">
        <ele>102.62</ele>
        <time>2019-03-29T08:16:30Z</time>
      </trkpt>
      <trkpt lat="47.91079" lon="-2.59986">
        <ele>102.6</ele>
        <time>2019-03-29T08:16:31Z</time>
      </trkpt>
      <trkpt lat="47.91077" lon="-2.59985">
        <ele>102.55</ele>
        <time>2019-03-29T08:16:32Z</time>
      </trkpt>
      <trkpt lat="47.91075" lon="-2.59985">
        <ele>102.47</ele>
        <time>2019-03-29T08:16:33Z</time>
      </trkpt>
      <trkpt lat="47.91061" lon="-2.5997">
        <ele>101.95</ele>
        <time>2019-03-29T08:16:45Z</time>
      </trkpt>
      <trkpt lat="47.91045" lon="-2.59957">
        <ele>100.6</ele>
        <time>2019-03-29T08:16:59Z</time>
      </trkpt>
      <trkpt lat="47.91037" lon="-2.59952">
        <ele>100.76</ele>
        <time>2019-03-29T08:17:05Z</time>
      </trkpt>
      <trkpt lat="47.91035" lon="-2.59951">
        <ele>100.82</ele>
        <time>2019-03-29T08:17:06Z</time>
      </trkpt>
      <trkpt lat="47.91034" lon="-2.5995">
        <ele>100.92</ele>
        <time>2019-03-29T08:17:07Z</time>
      </trkpt>
      <trkpt lat="47.91023" lon="-2.59942">
        <ele>101.8</ele>
        <time>2019-03-29T08:17:15Z</time>
      </trkpt>
      <trkpt lat="47.91018" lon="-2.59937">
        <ele>102.1</ele>
        <time>2019-03-29T08:17:21Z</time>
      </trkpt>
      <trkpt lat="47.91015" lon="-2.59935">
        <ele>102.32</ele>
        <time>2019-03-29T08:17:24Z</time>
      </trkpt>
      <trkpt lat="47.91013" lon="-2.59934">
        <ele>102.44</ele>
        <time>2019-03-29T08:17:25Z</time>
      </trkpt>
      <trkpt lat="47.91012" lon="-2.59933">
        <ele>102.56</ele>
        <time>2019-03-29T08:17:26Z</time>
      </trkpt>
      <trkpt lat="47.90996" lon="-2.59914">
        <ele>103.82</ele>
        <time>2019-03-29T08:17:40Z</time>
      </trkpt>
      <trkpt lat="47.90983" lon="-2.59901">
        <ele>104.54</ele>
        <time>2019-03-29T08:17:51Z</time>
      </trkpt>
      <trkpt lat="47.90982" lon="-2.59903">
        <ele>104.43</ele>
        <time>2019-03-29T08:17:58Z</time>
      </trkpt>
      <trkpt lat="47.90972" lon="-2.59902">
        <ele>104.97</ele>
        <time>2019-03-29T08:18:22Z</time>
      </trkpt>
      <trkpt lat="47.9096" lon="-2.59894">
        <ele>104.26</ele>
        <time>2019-03-29T08:18:32Z</time>
      </trkpt>
      <trkpt lat="47.90958" lon="-2.59893">
        <ele>104.19</ele>
        <time>2019-03-29T08:18:33Z</time>
      </trkpt>
      <trkpt lat="47.90957" lon="-2.59893">
        <ele>104.13</ele>
        <time>2019-03-29T08:18:34Z</time>
      </trkpt>
      <trkpt lat="47.90937" lon="-2.59883">
        <ele>103.06</ele>
        <time>2019-03-29T08:18:48Z</time>
      </trkpt>
      <trkpt lat="47.9091" lon="-2.59871">
        <ele>101.55</ele>
        <time>2019-03-29T08:19:05Z</time>
      </trkpt>
      <trkpt lat="47.90885" lon="-2.5986">
        <ele>99.72</ele>
        <time>2019-03-29T08:19:21Z</time>
      </trkpt>
      <trkpt lat="47.90884" lon="-2.5986">
        <ele>99.67</ele>
        <time>2019-03-29T08:19:22Z</time>
      </trkpt>
      <trkpt lat="47.90861" lon="-2.59843">
        <ele>98.75</ele>
        <time>2019-03-29T08:19:37Z</time>
      </trkpt>
      <trkpt lat="47.90837" lon="-2.59832">
        <ele>98.82</ele>
        <time>2019-03-29T08:19:54Z</time>
      </trkpt>
      <trkpt lat="47.90817" lon="-2.59821">
        <ele>99.39</ele>
        <time>2019-03-29T08:20:08Z</time>
      </trkpt>
      <trkpt lat="47.90798" lon="-2.59812">
        <ele>99.92</ele>
        <time>2019-03-29T08:20:21Z</time>
      </trkpt>
      <trkpt lat="47.90795" lon="-2.5981">
        <ele>100</ele>
        <time>2019-03-29T08:20:23Z</time>
      </trkpt>
      <trkpt lat="47.90793" lon="-2.59809">
        <ele>100.04</ele>
        <time>2019-03-29T08:20:24Z</time>
      </trkpt>
      <trkpt lat="47.90791" lon="-2.59809">
        <ele>100.07</ele>
        <time>2019-03-29T08:20:25Z</time>
      </trkpt>
      <trkpt lat="47.90789" lon="-2.59808">
        <ele>100.09</ele>
        <time>2019-03-29T08:20:26Z</time>
      </trkpt>
      <trkpt lat="47.90788" lon="-2.59806">
        <ele>100.1</ele>
        <time>2019-03-29T08:20:27Z</time>
      </trkpt>
      <trkpt lat="47.90784" lon="-2.59801">
        <ele>100.17</ele>
        <time>2019-03-29T08:20:30Z</time>
      </trkpt>
      <trkpt lat="47.90776" lon="-2.59796">
        <ele>100.24</ele>
        <time>2019-03-29T08:20:37Z</time>
      </trkpt>
      <trkpt lat="47.90773" lon="-2.59796">
        <ele>100.23</ele>
        <time>2019-03-29T08:20:39Z</time>
      </trkpt>
      <trkpt lat="47.90772" lon="-2.59795">
        <ele>100.17</ele>
        <time>2019-03-29T08:20:40Z</time>
      </trkpt>
      <trkpt lat="47.9077" lon="-2.59794">
        <ele>100.12</ele>
        <time>2019-03-29T08:20:41Z</time>
      </trkpt>
      <trkpt lat="47.90768" lon="-2.59793">
        <ele>100.09</ele>
        <time>2019-03-29T08:20:42Z</time>
      </trkpt>
      <trkpt lat="47.90767" lon="-2.59793">
        <ele>100.08</ele>
        <time>2019-03-29T08:20:43Z</time>
      </trkpt>
      <trkpt lat="47.90749" lon="-2.59777">
        <ele>99.96</ele>
        <time>2019-03-29T08:20:56Z</time>
      </trkpt>
      <trkpt lat="47.90742" lon="-2.59768">
        <ele>99.9</ele>
        <time>2019-03-29T08:21:02Z</time>
      </trkpt>
      <trkpt lat="47.90739" lon="-2.59764">
        <ele>99.89</ele>
        <time>2019-03-29T08:21:05Z</time>
      </trkpt>
      <trkpt lat="47.90718" lon="-2.59744">
        <ele>99.82</ele>
        <time>2019-03-29T08:21:18Z</time>
      </trkpt>
      <trkpt lat="47.90707" lon="-2.59727">
        <ele>99.39</ele>
        <time>2019-03-29T08:21:27Z</time>
      </trkpt>
      <trkpt lat="47.9069" lon="-2.59709">
        <ele>98.64</ele>
        <time>2019-03-29T08:21:41Z</time>
      </trkpt>
      <trkpt lat="47.90678" lon="-2.59686">
        <ele>98.29</ele>
        <time>2019-03-29T08:21:53Z</time>
      </trkpt>
      <trkpt lat="47.90671" lon="-2.59668">
        <ele>97.48</ele>
        <time>2019-03-29T08:22:03Z</time>
      </trkpt>
      <trkpt lat="47.90671" lon="-2.59666">
        <ele>97.43</ele>
        <time>2019-03-29T08:22:04Z</time>
      </trkpt>
      <trkpt lat="47.9067" lon="-2.59664">
        <ele>97.38</ele>
        <time>2019-03-29T08:22:05Z</time>
      </trkpt>
      <trkpt lat="47.90665" lon="-2.59619">
        <ele>96.06</ele>
        <time>2019-03-29T08:22:20Z</time>
      </trkpt>
      <trkpt lat="47.90666" lon="-2.59587">
        <ele>94.85</ele>
        <time>2019-03-29T08:22:32Z</time>
      </trkpt>
      <trkpt lat="47.90667" lon="-2.59581">
        <ele>94.5</ele>
        <time>2019-03-29T08:22:35Z</time>
      </trkpt>
      <trkpt lat="47.90667" lon="-2.5958">
        <ele>94.38</ele>
        <time>2019-03-29T08:22:36Z</time>
      </trkpt>
      <trkpt lat="47.90668" lon="-2.59577">
        <ele>94.26</ele>
        <time>2019-03-29T08:22:37Z</time>
      </trkpt>
      <trkpt lat="47.90668" lon="-2.59575">
        <ele>94.01</ele>
        <time>2019-03-29T08:22:38Z</time>
      </trkpt>
      <trkpt lat="47.90669" lon="-2.59573">
        <ele>94.01</ele>
        <time>2019-03-29T08:22:39Z</time>
      </trkpt>
      <trkpt lat="47.90669" lon="-2.5957">
        <ele>93.69</ele>
        <time>2019-03-29T08:22:40Z</time>
      </trkpt>
      <trkpt lat="47.9067" lon="-2.59567">
        <ele>93.55</ele>
        <time>2019-03-29T08:22:41Z</time>
      </trkpt>
      <trkpt lat="47.9067" lon="-2.59564">
        <ele>93.43</ele>
        <time>2019-03-29T08:22:42Z</time>
      </trkpt>
      <trkpt lat="47.90671" lon="-2.59561">
        <ele>93.34</ele>
        <time>2019-03-29T08:22:43Z</time>
      </trkpt>
      <trkpt lat="47.90672" lon="-2.59559">
        <ele>93.26</ele>
        <time>2019-03-29T08:22:44Z</time>
      </trkpt>
      <trkpt lat="47.90678" lon="-2.59539">
        <ele>92.01</ele>
        <time>2019-03-29T08:22:55Z</time>
      </trkpt>
      <trkpt lat="47.90678" lon="-2.59537">
        <ele>91.82</ele>
        <time>2019-03-29T08:22:56Z</time>
      </trkpt>
      <trkpt lat="47.90679" lon="-2.59535">
        <ele>91.62</ele>
        <time>2019-03-29T08:22:57Z</time>
      </trkpt>
      <trkpt lat="47.9068" lon="-2.59534">
        <ele>91.45</ele>
        <time>2019-03-29T08:22:58Z</time>
      </trkpt>
      <trkpt lat="47.9068" lon="-2.59532">
        <ele>91.29</ele>
        <time>2019-03-29T08:22:59Z</time>
      </trkpt>
      <trkpt lat="47.90681" lon="-2.5953">
        <ele>91.14</ele>
        <time>2019-03-29T08:23:00Z</time>
      </trkpt>
      <trkpt lat="47.9068" lon="-2.59526">
        <ele>90.42</ele>
        <time>2019-03-29T08:23:03Z</time>
      </trkpt>
      <trkpt lat="47.9068" lon="-2.59524">
        <ele>90.42</ele>
        <time>2019-03-29T08:23:04Z</time>
      </trkpt>
      <trkpt lat="47.90681" lon="-2.59522">
        <ele>90.14</ele>
        <time>2019-03-29T08:23:05Z</time>
      </trkpt>
      <trkpt lat="47.90682" lon="-2.59519">
        <ele>90.01</ele>
        <time>2019-03-29T08:23:06Z</time>
      </trkpt>
      <trkpt lat="47.90687" lon="-2.59491">
        <ele>88.33</ele>
        <time>2019-03-29T08:23:19Z</time>
      </trkpt>
      <trkpt lat="47.9069" lon="-2.59477">
        <ele>87.41</ele>
        <time>2019-03-29T08:23:25Z</time>
      </trkpt>
      <trkpt lat="47.90697" lon="-2.59449">
        <ele>85.87</ele>
        <time>2019-03-29T08:23:37Z</time>
      </trkpt>
      <trkpt lat="47.90699" lon="-2.59445">
        <ele>85.76</ele>
        <time>2019-03-29T08:23:39Z</time>
      </trkpt>
      <trkpt lat="47.90701" lon="-2.59443">
        <ele>85.68</ele>
        <time>2019-03-29T08:23:40Z</time>
      </trkpt>
      <trkpt lat="47.90703" lon="-2.59441">
        <ele>85.64</ele>
        <time>2019-03-29T08:23:41Z</time>
      </trkpt>
      <trkpt lat="47.90721" lon="-2.59428">
        <ele>85.45</ele>
        <time>2019-03-29T08:23:53Z</time>
      </trkpt>
      <trkpt lat="47.90748" lon="-2.59417">
        <ele>87.68</ele>
        <time>2019-03-29T08:24:08Z</time>
      </trkpt>
      <trkpt lat="47.90766" lon="-2.5941">
        <ele>89.78</ele>
        <time>2019-03-29T08:24:19Z</time>
      </trkpt>
      <trkpt lat="47.90789" lon="-2.59405">
        <ele>91.68</ele>
        <time>2019-03-29T08:24:32Z</time>
      </trkpt>
      <trkpt lat="47.90822" lon="-2.59396">
        <ele>94.26</ele>
        <time>2019-03-29T08:24:52Z</time>
      </trkpt>
      <trkpt lat="47.90845" lon="-2.59388">
        <ele>94.87</ele>
        <time>2019-03-29T08:25:08Z</time>
      </trkpt>
      <trkpt lat="47.90846" lon="-2.59388">
        <ele>94.9</ele>
        <time>2019-03-29T08:25:09Z</time>
      </trkpt>
      <trkpt lat="47.90848" lon="-2.59388">
        <ele>94.9</ele>
        <time>2019-03-29T08:25:10Z</time>
      </trkpt>
      <trkpt lat="47.90849" lon="-2.59388">
        <ele>94.88</ele>
        <time>2019-03-29T08:25:11Z</time>
      </trkpt>
      <trkpt lat="47.90851" lon="-2.59387">
        <ele>94.79</ele>
        <time>2019-03-29T08:25:12Z</time>
      </trkpt>
      <trkpt lat="47.90852" lon="-2.59386">
        <ele>94.67</ele>
        <time>2019-03-29T08:25:13Z</time>
      </trkpt>
      <trkpt lat="47.90854" lon="-2.59386">
        <ele>94.58</ele>
        <time>2019-03-29T08:25:14Z</time>
      </trkpt>
      <trkpt lat="47.90864" lon="-2.59384">
        <ele>94.07</ele>
        <time>2019-03-29T08:25:21Z</time>
      </trkpt>
      <trkpt lat="47.90865" lon="-2.59384">
        <ele>93.98</ele>
        <time>2019-03-29T08:25:22Z</time>
      </trkpt>
      <trkpt lat="47.90867" lon="-2.59383">
        <ele>93.91</ele>
        <time>2019-03-29T08:25:23Z</time>
      </trkpt>
      <trkpt lat="47.90869" lon="-2.59382">
        <ele>93.81</ele>
        <time>2019-03-29T08:25:24Z</time>
      </trkpt>
      <trkpt lat="47.90891" lon="-2.59381">
        <ele>92.85</ele>
        <time>2019-03-29T08:25:37Z</time>
      </trkpt>
      <trkpt lat="47.90912" lon="-2.59394">
        <ele>94.1</ele>
        <time>2019-03-29T08:25:48Z</time>
      </trkpt>
      <trkpt lat="47.90933" lon="-2.5941">
        <ele>97.11</ele>
        <time>2019-03-29T08:26:01Z</time>
      </trkpt>
      <trkpt lat="47.90957" lon="-2.59433">
        <ele>100.14</ele>
        <time>2019-03-29T08:26:18Z</time>
      </trkpt>
      <trkpt lat="47.90976" lon="-2.59454">
        <ele>102.75</ele>
        <time>2019-03-29T08:26:33Z</time>
      </trkpt>
      <trkpt lat="47.90991" lon="-2.59463">
        <ele>104.23</ele>
        <time>2019-03-29T08:26:44Z</time>
      </trkpt>
      <trkpt lat="47.90993" lon="-2.59461">
        <ele>104.5</ele>
        <time>2019-03-29T08:26:46Z</time>
      </trkpt>
      <trkpt lat="47.90996" lon="-2.59455">
        <ele>104.84</ele>
        <time>2019-03-29T08:26:49Z</time>
      </trkpt>
      <trkpt lat="47.90994" lon="-2.59447">
        <ele>105.92</ele>
        <time>2019-03-29T08:26:53Z</time>
      </trkpt>
      <trkpt lat="47.90974" lon="-2.59414">
        <ele>105.78</ele>
        <time>2019-03-29T08:27:11Z</time>
      </trkpt>
      <trkpt lat="47.90959" lon="-2.59388">
        <ele>104.42</ele>
        <time>2019-03-29T08:27:25Z</time>
      </trkpt>
      <trkpt lat="47.90935" lon="-2.59348">
        <ele>102.32</ele>
        <time>2019-03-29T08:27:46Z</time>
      </trkpt>
      <trkpt lat="47.90913" lon="-2.59312">
        <ele>101.09</ele>
        <time>2019-03-29T08:28:05Z</time>
      </trkpt>
      <trkpt lat="47.90891" lon="-2.59274">
        <ele>100.38</ele>
        <time>2019-03-29T08:28:25Z</time>
      </trkpt>
      <trkpt lat="47.90872" lon="-2.59241">
        <ele>99.98</ele>
        <time>2019-03-29T08:28:42Z</time>
      </trkpt>
      <trkpt lat="47.90853" lon="-2.5921">
        <ele>99.25</ele>
        <time>2019-03-29T08:28:59Z</time>
      </trkpt>
      <trkpt lat="47.90836" lon="-2.59179">
        <ele>97.95</ele>
        <time>2019-03-29T08:29:14Z</time>
      </trkpt>
      <trkpt lat="47.90819" lon="-2.5914">
        <ele>94.91</ele>
        <time>2019-03-29T08:29:32Z</time>
      </trkpt>
      <trkpt lat="47.90819" lon="-2.59106">
        <ele>91.79</ele>
        <time>2019-03-29T08:29:45Z</time>
      </trkpt>
      <trkpt lat="47.90822" lon="-2.59073">
        <ele>88.62</ele>
        <time>2019-03-29T08:29:58Z</time>
      </trkpt>
      <trkpt lat="47.90823" lon="-2.59036">
        <ele>85.49</ele>
        <time>2019-03-29T08:30:12Z</time>
      </trkpt>
      <trkpt lat="47.90826" lon="-2.59003">
        <ele>82.72</ele>
        <time>2019-03-29T08:30:25Z</time>
      </trkpt>
      <trkpt lat="47.90829" lon="-2.58968">
        <ele>79.62</ele>
        <time>2019-03-29T08:30:38Z</time>
      </trkpt>
      <trkpt lat="47.90833" lon="-2.5893">
        <ele>77.47</ele>
        <time>2019-03-29T08:30:52Z</time>
      </trkpt>
      <trkpt lat="47.90835" lon="-2.58876">
        <ele>75.89</ele>
        <time>2019-03-29T08:31:12Z</time>
      </trkpt>
      <trkpt lat="47.90839" lon="-2.58822">
        <ele>73.66</ele>
        <time>2019-03-29T08:31:33Z</time>
      </trkpt>
      <trkpt lat="47.90844" lon="-2.58763">
        <ele>72.09</ele>
        <time>2019-03-29T08:31:56Z</time>
      </trkpt>
      <trkpt lat="47.90846" lon="-2.58717">
        <ele>70.67</ele>
        <time>2019-03-29T08:32:14Z</time>
      </trkpt>
      <trkpt lat="47.90849" lon="-2.58669">
        <ele>68.93</ele>
        <time>2019-03-29T08:32:32Z</time>
      </trkpt>
      <trkpt lat="47.90852" lon="-2.58636">
        <ele>66.87</ele>
        <time>2019-03-29T08:32:46Z</time>
      </trkpt>
      <trkpt lat="47.90854" lon="-2.58623">
        <ele>65.82</ele>
        <time>2019-03-29T08:32:52Z</time>
      </trkpt>
      <trkpt lat="47.90855" lon="-2.58621">
        <ele>65.63</ele>
        <time>2019-03-29T08:32:53Z</time>
      </trkpt>
      <trkpt lat="47.90855" lon="-2.58619">
        <ele>65.46</ele>
        <time>2019-03-29T08:32:54Z</time>
      </trkpt>
      <trkpt lat="47.90856" lon="-2.58616">
        <ele>65.32</ele>
        <time>2019-03-29T08:32:55Z</time>
      </trkpt>
      <trkpt lat="47.90856" lon="-2.58614">
        <ele>65.2</ele>
        <time>2019-03-29T08:32:56Z</time>
      </trkpt>
      <trkpt lat="47.90857" lon="-2.58612">
        <ele>65.09</ele>
        <time>2019-03-29T08:32:57Z</time>
      </trkpt>
      <trkpt lat="47.9086" lon="-2.58601">
        <ele>64.26</ele>
        <time>2019-03-29T08:33:03Z</time>
      </trkpt>
      <trkpt lat="47.9086" lon="-2.58599">
        <ele>64.13</ele>
        <time>2019-03-29T08:33:04Z</time>
      </trkpt>
      <trkpt lat="47.90861" lon="-2.58597">
        <ele>64.04</ele>
        <time>2019-03-29T08:33:05Z</time>
      </trkpt>
      <trkpt lat="47.90862" lon="-2.58595">
        <ele>63.95</ele>
        <time>2019-03-29T08:33:06Z</time>
      </trkpt>
      <trkpt lat="47.90862" lon="-2.58592">
        <ele>63.87</ele>
        <time>2019-03-29T08:33:07Z</time>
      </trkpt>
      <trkpt lat="47.90864" lon="-2.58581">
        <ele>64.08</ele>
        <time>2019-03-29T08:33:13Z</time>
      </trkpt>
      <trkpt lat="47.90865" lon="-2.58579">
        <ele>64.18</ele>
        <time>2019-03-29T08:33:14Z</time>
      </trkpt>
      <trkpt lat="47.90865" lon="-2.58576">
        <ele>64.27</ele>
        <time>2019-03-29T08:33:15Z</time>
      </trkpt>
      <trkpt lat="47.90865" lon="-2.58575">
        <ele>64.36</ele>
        <time>2019-03-29T08:33:16Z</time>
      </trkpt>
      <trkpt lat="47.90866" lon="-2.58573">
        <ele>64.43</ele>
        <time>2019-03-29T08:33:17Z</time>
      </trkpt>
      <trkpt lat="47.90867" lon="-2.58571">
        <ele>64.51</ele>
        <time>2019-03-29T08:33:18Z</time>
      </trkpt>
      <trkpt lat="47.90868" lon="-2.58569">
        <ele>64.6</ele>
        <time>2019-03-29T08:33:19Z</time>
      </trkpt>
      <trkpt lat="47.90869" lon="-2.58567">
        <ele>64.71</ele>
        <time>2019-03-29T08:33:20Z</time>
      </trkpt>
      <trkpt lat="47.9087" lon="-2.58565">
        <ele>64.82</ele>
        <time>2019-03-29T08:33:21Z</time>
      </trkpt>
      <trkpt lat="47.90878" lon="-2.58539">
        <ele>67.47</ele>
        <time>2019-03-29T08:33:34Z</time>
      </trkpt>
      <trkpt lat="47.9088" lon="-2.58533">
        <ele>68.31</ele>
        <time>2019-03-29T08:33:38Z</time>
      </trkpt>
      <trkpt lat="47.90881" lon="-2.5853">
        <ele>68.56</ele>
        <time>2019-03-29T08:33:39Z</time>
      </trkpt>
      <trkpt lat="47.90881" lon="-2.58528">
        <ele>68.79</ele>
        <time>2019-03-29T08:33:40Z</time>
      </trkpt>
      <trkpt lat="47.90882" lon="-2.58526">
        <ele>68.98</ele>
        <time>2019-03-29T08:33:41Z</time>
      </trkpt>
      <trkpt lat="47.90883" lon="-2.58525">
        <ele>69.16</ele>
        <time>2019-03-29T08:33:42Z</time>
      </trkpt>
      <trkpt lat="47.90883" lon="-2.58523">
        <ele>69.31</ele>
        <time>2019-03-29T08:33:43Z</time>
      </trkpt>
      <trkpt lat="47.90885" lon="-2.58496">
        <ele>71.18</ele>
        <time>2019-03-29T08:33:54Z</time>
      </trkpt>
      <trkpt lat="47.90891" lon="-2.58467">
        <ele>71.48</ele>
        <time>2019-03-29T08:34:06Z</time>
      </trkpt>
      <trkpt lat="47.909" lon="-2.58425">
        <ele>69.04</ele>
        <time>2019-03-29T08:34:20Z</time>
      </trkpt>
      <trkpt lat="47.90909" lon="-2.58385">
        <ele>66.28</ele>
        <time>2019-03-29T08:34:35Z</time>
      </trkpt>
      <trkpt lat="47.90916" lon="-2.5835">
        <ele>64.23</ele>
        <time>2019-03-29T08:34:49Z</time>
      </trkpt>
      <trkpt lat="47.9093" lon="-2.58324">
        <ele>63.85</ele>
        <time>2019-03-29T08:35:02Z</time>
      </trkpt>
      <trkpt lat="47.90932" lon="-2.5832">
        <ele>63.74</ele>
        <time>2019-03-29T08:35:03Z</time>
      </trkpt>
      <trkpt lat="47.90933" lon="-2.58319">
        <ele>63.63</ele>
        <time>2019-03-29T08:35:04Z</time>
      </trkpt>
      <trkpt lat="47.90934" lon="-2.58317">
        <ele>63.53</ele>
        <time>2019-03-29T08:35:05Z</time>
      </trkpt>
      <trkpt lat="47.9094" lon="-2.58305">
        <ele>62.69</ele>
        <time>2019-03-29T08:35:14Z</time>
      </trkpt>
      <trkpt lat="47.90941" lon="-2.58303">
        <ele>62.62</ele>
        <time>2019-03-29T08:35:15Z</time>
      </trkpt>
      <trkpt lat="47.90942" lon="-2.583">
        <ele>62.55</ele>
        <time>2019-03-29T08:35:16Z</time>
      </trkpt>
      <trkpt lat="47.90943" lon="-2.58296">
        <ele>62.46</ele>
        <time>2019-03-29T08:35:17Z</time>
      </trkpt>
      <trkpt lat="47.90945" lon="-2.58292">
        <ele>62.36</ele>
        <time>2019-03-29T08:35:18Z</time>
      </trkpt>
      <trkpt lat="47.90946" lon="-2.58287">
        <ele>62.23</ele>
        <time>2019-03-29T08:35:19Z</time>
      </trkpt>
      <trkpt lat="47.90948" lon="-2.58284">
        <ele>62.1</ele>
        <time>2019-03-29T08:35:20Z</time>
      </trkpt>
      <trkpt lat="47.90951" lon="-2.5828">
        <ele>62</ele>
        <time>2019-03-29T08:35:21Z</time>
      </trkpt>
      <trkpt lat="47.90954" lon="-2.58276">
        <ele>61.91</ele>
        <time>2019-03-29T08:35:22Z</time>
      </trkpt>
      <trkpt lat="47.90956" lon="-2.58272">
        <ele>61.82</ele>
        <time>2019-03-29T08:35:23Z</time>
      </trkpt>
      <trkpt lat="47.9096" lon="-2.58267">
        <ele>61.71</ele>
        <time>2019-03-29T08:35:24Z</time>
      </trkpt>
      <trkpt lat="47.90963" lon="-2.58261">
        <ele>61.6</ele>
        <time>2019-03-29T08:35:25Z</time>
      </trkpt>
      <trkpt lat="47.90983" lon="-2.5823">
        <ele>60.65</ele>
        <time>2019-03-29T08:35:30Z</time>
      </trkpt>
      <trkpt lat="47.90986" lon="-2.58221">
        <ele>60.44</ele>
        <time>2019-03-29T08:35:31Z</time>
      </trkpt>
      <trkpt lat="47.9099" lon="-2.58213">
        <ele>60.24</ele>
        <time>2019-03-29T08:35:32Z</time>
      </trkpt>
      <trkpt lat="47.90994" lon="-2.58206">
        <ele>60.06</ele>
        <time>2019-03-29T08:35:33Z</time>
      </trkpt>
      <trkpt lat="47.90998" lon="-2.58198">
        <ele>59.91</ele>
        <time>2019-03-29T08:35:34Z</time>
      </trkpt>
      <trkpt lat="47.91005" lon="-2.58183">
        <ele>59.55</ele>
        <time>2019-03-29T08:35:36Z</time>
      </trkpt>
      <trkpt lat="47.91013" lon="-2.58166">
        <ele>59.25</ele>
        <time>2019-03-29T08:35:38Z</time>
      </trkpt>
      <trkpt lat="47.91055" lon="-2.58079">
        <ele>58.36</ele>
        <time>2019-03-29T08:35:49Z</time>
      </trkpt>
      <trkpt lat="47.91058" lon="-2.58073">
        <ele>58.32</ele>
        <time>2019-03-29T08:35:50Z</time>
      </trkpt>
      <trkpt lat="47.91106" lon="-2.57975">
        <ele>57.27</ele>
        <time>2019-03-29T08:36:03Z</time>
      </trkpt>
      <trkpt lat="47.91112" lon="-2.5796">
        <ele>57.36</ele>
        <time>2019-03-29T08:36:05Z</time>
      </trkpt>
      <trkpt lat="47.91115" lon="-2.57952">
        <ele>57.43</ele>
        <time>2019-03-29T08:36:06Z</time>
      </trkpt>
      <trkpt lat="47.91121" lon="-2.57936">
        <ele>57.55</ele>
        <time>2019-03-29T08:36:08Z</time>
      </trkpt>
      <trkpt lat="47.91139" lon="-2.57893">
        <ele>57.8</ele>
        <time>2019-03-29T08:36:14Z</time>
      </trkpt>
      <trkpt lat="47.91145" lon="-2.5788">
        <ele>57.85</ele>
        <time>2019-03-29T08:36:16Z</time>
      </trkpt>
      <trkpt lat="47.91168" lon="-2.57847">
        <ele>57.57</ele>
        <time>2019-03-29T08:36:21Z</time>
      </trkpt>
      <trkpt lat="47.91173" lon="-2.57841">
        <ele>57.53</ele>
        <time>2019-03-29T08:36:22Z</time>
      </trkpt>
      <trkpt lat="47.91177" lon="-2.57835">
        <ele>57.52</ele>
        <time>2019-03-29T08:36:23Z</time>
      </trkpt>
      <trkpt lat="47.91195" lon="-2.57812">
        <ele>57.6</ele>
        <time>2019-03-29T08:36:27Z</time>
      </trkpt>
      <trkpt lat="47.912" lon="-2.57806">
        <ele>57.6</ele>
        <time>2019-03-29T08:36:28Z</time>
      </trkpt>
      <trkpt lat="47.91213" lon="-2.57787">
        <ele>57.41</ele>
        <time>2019-03-29T08:36:31Z</time>
      </trkpt>
      <trkpt lat="47.91225" lon="-2.57768">
        <ele>57.13</ele>
        <time>2019-03-29T08:36:34Z</time>
      </trkpt>
      <trkpt lat="47.91237" lon="-2.57743">
        <ele>56.69</ele>
        <time>2019-03-29T08:36:37Z</time>
      </trkpt>
      <trkpt lat="47.9124" lon="-2.57734">
        <ele>56.53</ele>
        <time>2019-03-29T08:36:38Z</time>
      </trkpt>
      <trkpt lat="47.91246" lon="-2.57715">
        <ele>56.23</ele>
        <time>2019-03-29T08:36:40Z</time>
      </trkpt>
      <trkpt lat="47.91248" lon="-2.57706">
        <ele>56.11</ele>
        <time>2019-03-29T08:36:41Z</time>
      </trkpt>
      <trkpt lat="47.91252" lon="-2.57686">
        <ele>55.91</ele>
        <time>2019-03-29T08:36:43Z</time>
      </trkpt>
      <trkpt lat="47.91254" lon="-2.57676">
        <ele>55.87</ele>
        <time>2019-03-29T08:36:44Z</time>
      </trkpt>
      <trkpt lat="47.91255" lon="-2.57666">
        <ele>55.87</ele>
        <time>2019-03-29T08:36:45Z</time>
      </trkpt>
      <trkpt lat="47.91257" lon="-2.57655">
        <ele>55.9</ele>
        <time>2019-03-29T08:36:46Z</time>
      </trkpt>
      <trkpt lat="47.91259" lon="-2.57646">
        <ele>55.92</ele>
        <time>2019-03-29T08:36:47Z</time>
      </trkpt>
      <trkpt lat="47.91262" lon="-2.57639">
        <ele>55.94</ele>
        <time>2019-03-29T08:36:48Z</time>
      </trkpt>
      <trkpt lat="47.91265" lon="-2.57632">
        <ele>55.99</ele>
        <time>2019-03-29T08:36:49Z</time>
      </trkpt>
      <trkpt lat="47.91272" lon="-2.57618">
        <ele>56.23</ele>
        <time>2019-03-29T08:36:51Z</time>
      </trkpt>
      <trkpt lat="47.91278" lon="-2.57605">
        <ele>56.37</ele>
        <time>2019-03-29T08:36:53Z</time>
      </trkpt>
      <trkpt lat="47.91284" lon="-2.5759">
        <ele>56.54</ele>
        <time>2019-03-29T08:36:55Z</time>
      </trkpt>
      <trkpt lat="47.91288" lon="-2.57572">
        <ele>56.7</ele>
        <time>2019-03-29T08:36:57Z</time>
      </trkpt>
      <trkpt lat="47.91295" lon="-2.57509">
        <ele>56.4</ele>
        <time>2019-03-29T08:37:04Z</time>
      </trkpt>
      <trkpt lat="47.91295" lon="-2.57478">
        <ele>56.25</ele>
        <time>2019-03-29T08:37:08Z</time>
      </trkpt>
      <trkpt lat="47.91298" lon="-2.57452">
        <ele>56.26</ele>
        <time>2019-03-29T08:37:11Z</time>
      </trkpt>
      <trkpt lat="47.91298" lon="-2.57443">
        <ele>56.24</ele>
        <time>2019-03-29T08:37:12Z</time>
      </trkpt>
      <trkpt lat="47.91299" lon="-2.57413">
        <ele>56.14</ele>
        <time>2019-03-29T08:37:15Z</time>
      </trkpt>
      <trkpt lat="47.91298" lon="-2.57402">
        <ele>56.14</ele>
        <time>2019-03-29T08:37:16Z</time>
      </trkpt>
      <trkpt lat="47.91298" lon="-2.57384">
        <ele>56.53</ele>
        <time>2019-03-29T08:37:18Z</time>
      </trkpt>
      <trkpt lat="47.91297" lon="-2.57374">
        <ele>56.75</ele>
        <time>2019-03-29T08:37:19Z</time>
      </trkpt>
      <trkpt lat="47.91296" lon="-2.57365">
        <ele>57.01</ele>
        <time>2019-03-29T08:37:20Z</time>
      </trkpt>
      <trkpt lat="47.91291" lon="-2.5734">
        <ele>57.7</ele>
        <time>2019-03-29T08:37:23Z</time>
      </trkpt>
      <trkpt lat="47.9129" lon="-2.57332">
        <ele>57.85</ele>
        <time>2019-03-29T08:37:24Z</time>
      </trkpt>
      <trkpt lat="47.91267" lon="-2.57223">
        <ele>56.52</ele>
        <time>2019-03-29T08:37:36Z</time>
      </trkpt>
      <trkpt lat="47.91239" lon="-2.57125">
        <ele>55.89</ele>
        <time>2019-03-29T08:37:47Z</time>
      </trkpt>
      <trkpt lat="47.91224" lon="-2.57079">
        <ele>56.25</ele>
        <time>2019-03-29T08:37:52Z</time>
      </trkpt>
      <trkpt lat="47.9122" lon="-2.57071">
        <ele>56.3</ele>
        <time>2019-03-29T08:37:53Z</time>
      </trkpt>
      <trkpt lat="47.91215" lon="-2.57065">
        <ele>56.32</ele>
        <time>2019-03-29T08:37:54Z</time>
      </trkpt>
      <trkpt lat="47.91194" lon="-2.57044">
        <ele>56.33</ele>
        <time>2019-03-29T08:37:58Z</time>
      </trkpt>
      <trkpt lat="47.91188" lon="-2.5704">
        <ele>56.33</ele>
        <time>2019-03-29T08:37:59Z</time>
      </trkpt>
      <trkpt lat="47.91174" lon="-2.57026">
        <ele>56.99</ele>
        <time>2019-03-29T08:38:04Z</time>
      </trkpt>
      <trkpt lat="47.91173" lon="-2.57024">
        <ele>57.16</ele>
        <time>2019-03-29T08:38:05Z</time>
      </trkpt>
      <trkpt lat="47.91171" lon="-2.57021">
        <ele>57.33</ele>
        <time>2019-03-29T08:38:06Z</time>
      </trkpt>
      <trkpt lat="47.91169" lon="-2.57018">
        <ele>57.49</ele>
        <time>2019-03-29T08:38:07Z</time>
      </trkpt>
      <trkpt lat="47.91167" lon="-2.57016">
        <ele>57.64</ele>
        <time>2019-03-29T08:38:08Z</time>
      </trkpt>
      <trkpt lat="47.91165" lon="-2.57013">
        <ele>57.74</ele>
        <time>2019-03-29T08:38:09Z</time>
      </trkpt>
      <trkpt lat="47.91163" lon="-2.5701">
        <ele>57.87</ele>
        <time>2019-03-29T08:38:10Z</time>
      </trkpt>
      <trkpt lat="47.9116" lon="-2.57007">
        <ele>57.99</ele>
        <time>2019-03-29T08:38:11Z</time>
      </trkpt>
      <trkpt lat="47.91161" lon="-2.57004">
        <ele>57.98</ele>
        <time>2019-03-29T08:38:12Z</time>
      </trkpt>
      <trkpt lat="47.91159" lon="-2.57002">
        <ele>57.95</ele>
        <time>2019-03-29T08:38:13Z</time>
      </trkpt>
      <trkpt lat="47.91159" lon="-2.56999">
        <ele>57.9</ele>
        <time>2019-03-29T08:38:14Z</time>
      </trkpt>
      <trkpt lat="47.91159" lon="-2.56998">
        <ele>57.84</ele>
        <time>2019-03-29T08:38:15Z</time>
      </trkpt>
      <trkpt lat="47.91158" lon="-2.56996">
        <ele>57.78</ele>
        <time>2019-03-29T08:38:16Z</time>
      </trkpt>
      <trkpt lat="47.91157" lon="-2.56994">
        <ele>57.73</ele>
        <time>2019-03-29T08:38:17Z</time>
      </trkpt>
      <trkpt lat="47.91156" lon="-2.56992">
        <ele>57.71</ele>
        <time>2019-03-29T08:38:18Z</time>
      </trkpt>
      <trkpt lat="47.91155" lon="-2.56991">
        <ele>57.67</ele>
        <time>2019-03-29T08:38:19Z</time>
      </trkpt>
      <trkpt lat="47.91154" lon="-2.5699">
        <ele>57.67</ele>
        <time>2019-03-29T08:38:20Z</time>
      </trkpt>
      <trkpt lat="47.91154" lon="-2.56988">
        <ele>57.67</ele>
        <time>2019-03-29T08:38:21Z</time>
      </trkpt>
      <trkpt lat="47.91153" lon="-2.56987">
        <ele>57.68</ele>
        <time>2019-03-29T08:38:22Z</time>
      </trkpt>
      <trkpt lat="47.91152" lon="-2.56986">
        <ele>57.68</ele>
        <time>2019-03-29T08:38:23Z</time>
      </trkpt>
      <trkpt lat="47.91151" lon="-2.56983">
        <ele>57.67</ele>
        <time>2019-03-29T08:38:28Z</time>
      </trkpt>
      <trkpt lat="47.91165" lon="-2.56969">
        <ele>57.43</ele>
        <time>2019-03-29T08:38:43Z</time>
      </trkpt>
      <trkpt lat="47.91168" lon="-2.5697">
        <ele>57.42</ele>
        <time>2019-03-29T08:38:48Z</time>
      </trkpt>
      <trkpt lat="47.9117" lon="-2.56969">
        <ele>57.48</ele>
        <time>2019-03-29T08:38:51Z</time>
      </trkpt>
      <trkpt lat="47.91166" lon="-2.56967">
        <ele>57.3</ele>
        <time>2019-03-29T08:39:01Z</time>
      </trkpt>
      <trkpt lat="47.91157" lon="-2.56973">
        <ele>57.74</ele>
        <time>2019-03-29T08:39:54Z</time>
      </trkpt>
      <trkpt lat="47.9115" lon="-2.57004">
        <ele>57.75</ele>
        <time>2019-03-29T08:40:08Z</time>
      </trkpt>
      <trkpt lat="47.9114" lon="-2.57041">
        <ele>57.51</ele>
        <time>2019-03-29T08:40:24Z</time>
      </trkpt>
      <trkpt lat="47.91118" lon="-2.57053">
        <ele>58.19</ele>
        <time>2019-03-29T08:40:39Z</time>
      </trkpt>
      <trkpt lat="47.911" lon="-2.57061">
        <ele>59.65</ele>
        <time>2019-03-29T08:40:51Z</time>
      </trkpt>
      <trkpt lat="47.91083" lon="-2.57053">
        <ele>61.83</ele>
        <time>2019-03-29T08:41:03Z</time>
      </trkpt>
      <trkpt lat="47.91064" lon="-2.57034">
        <ele>62.62</ele>
        <time>2019-03-29T08:41:17Z</time>
      </trkpt>
      <trkpt lat="47.91044" lon="-2.57012">
        <ele>62.93</ele>
        <time>2019-03-29T08:41:33Z</time>
      </trkpt>
      <trkpt lat="47.91031" lon="-2.56987">
        <ele>62.12</ele>
        <time>2019-03-29T08:41:48Z</time>
      </trkpt>
      <trkpt lat="47.91014" lon="-2.5695">
        <ele>60.63</ele>
        <time>2019-03-29T08:42:06Z</time>
      </trkpt>
      <trkpt lat="47.91009" lon="-2.56938">
        <ele>59.97</ele>
        <time>2019-03-29T08:42:15Z</time>
      </trkpt>
      <trkpt lat="47.91005" lon="-2.56927">
        <ele>59.64</ele>
        <time>2019-03-29T08:42:19Z</time>
      </trkpt>
      <trkpt lat="47.90997" lon="-2.569">
        <ele>59.26</ele>
        <time>2019-03-29T08:42:28Z</time>
      </trkpt>
      <trkpt lat="47.90984" lon="-2.56866">
        <ele>58.71</ele>
        <time>2019-03-29T08:42:42Z</time>
      </trkpt>
      <trkpt lat="47.90982" lon="-2.56856">
        <ele>58.44</ele>
        <time>2019-03-29T08:42:46Z</time>
      </trkpt>
      <trkpt lat="47.90977" lon="-2.56838">
        <ele>58.2</ele>
        <time>2019-03-29T08:42:53Z</time>
      </trkpt>
      <trkpt lat="47.90972" lon="-2.56825">
        <ele>57.83</ele>
        <time>2019-03-29T08:42:59Z</time>
      </trkpt>
      <trkpt lat="47.90966" lon="-2.56793">
        <ele>57.11</ele>
        <time>2019-03-29T08:43:14Z</time>
      </trkpt>
      <trkpt lat="47.90959" lon="-2.56752">
        <ele>56.2</ele>
        <time>2019-03-29T08:43:28Z</time>
      </trkpt>
      <trkpt lat="47.90954" lon="-2.56709">
        <ele>55.88</ele>
        <time>2019-03-29T08:43:42Z</time>
      </trkpt>
      <trkpt lat="47.90951" lon="-2.56676">
        <ele>56.19</ele>
        <time>2019-03-29T08:43:55Z</time>
      </trkpt>
      <trkpt lat="47.9095" lon="-2.56629">
        <ele>57.96</ele>
        <time>2019-03-29T08:44:13Z</time>
      </trkpt>
      <trkpt lat="47.90965" lon="-2.56586">
        <ele>59.52</ele>
        <time>2019-03-29T08:44:30Z</time>
      </trkpt>
      <trkpt lat="47.90982" lon="-2.56552">
        <ele>60.72</ele>
        <time>2019-03-29T08:44:45Z</time>
      </trkpt>
      <trkpt lat="47.90997" lon="-2.5653">
        <ele>60.73</ele>
        <time>2019-03-29T08:44:59Z</time>
      </trkpt>
      <trkpt lat="47.91021" lon="-2.56508">
        <ele>58.55</ele>
        <time>2019-03-29T08:45:13Z</time>
      </trkpt>
      <trkpt lat="47.91039" lon="-2.56481">
        <ele>56.04</ele>
        <time>2019-03-29T08:45:28Z</time>
      </trkpt>
      <trkpt lat="47.91042" lon="-2.5645">
        <ele>54.92</ele>
        <time>2019-03-29T08:45:42Z</time>
      </trkpt>
      <trkpt lat="47.91052" lon="-2.5642">
        <ele>55.87</ele>
        <time>2019-03-29T08:45:56Z</time>
      </trkpt>
      <trkpt lat="47.91066" lon="-2.56392">
        <ele>56.22</ele>
        <time>2019-03-29T08:46:10Z</time>
      </trkpt>
      <trkpt lat="47.91078" lon="-2.56367">
        <ele>56.27</ele>
        <time>2019-03-29T08:46:22Z</time>
      </trkpt>
      <trkpt lat="47.91082" lon="-2.56351">
        <ele>55.99</ele>
        <time>2019-03-29T08:46:29Z</time>
      </trkpt>
      <trkpt lat="47.91089" lon="-2.56334">
        <ele>55.58</ele>
        <time>2019-03-29T08:46:36Z</time>
      </trkpt>
      <trkpt lat="47.91092" lon="-2.56326">
        <ele>55.4</ele>
        <time>2019-03-29T08:46:40Z</time>
      </trkpt>
      <trkpt lat="47.91102" lon="-2.56294">
        <ele>55.34</ele>
        <time>2019-03-29T08:46:55Z</time>
      </trkpt>
      <trkpt lat="47.91105" lon="-2.56286">
        <ele>55.19</ele>
        <time>2019-03-29T08:46:59Z</time>
      </trkpt>
      <trkpt lat="47.91123" lon="-2.56262">
        <ele>55.35</ele>
        <time>2019-03-29T08:47:14Z</time>
      </trkpt>
      <trkpt lat="47.91148" lon="-2.56242">
        <ele>55.13</ele>
        <time>2019-03-29T08:47:28Z</time>
      </trkpt>
      <trkpt lat="47.91176" lon="-2.56227">
        <ele>55.32</ele>
        <time>2019-03-29T08:47:42Z</time>
      </trkpt>
      <trkpt lat="47.91204" lon="-2.56213">
        <ele>55.42</ele>
        <time>2019-03-29T08:47:57Z</time>
      </trkpt>
      <trkpt lat="47.91225" lon="-2.56203">
        <ele>55.7</ele>
        <time>2019-03-29T08:48:07Z</time>
      </trkpt>
      <trkpt lat="47.91242" lon="-2.56192">
        <ele>56.56</ele>
        <time>2019-03-29T08:48:19Z</time>
      </trkpt>
      <trkpt lat="47.91264" lon="-2.5618">
        <ele>57.85</ele>
        <time>2019-03-29T08:48:32Z</time>
      </trkpt>
      <trkpt lat="47.91284" lon="-2.5617">
        <ele>58.03</ele>
        <time>2019-03-29T08:48:46Z</time>
      </trkpt>
      <trkpt lat="47.913" lon="-2.56163">
        <ele>56.43</ele>
        <time>2019-03-29T08:48:59Z</time>
      </trkpt>
      <trkpt lat="47.91324" lon="-2.56142">
        <ele>54.45</ele>
        <time>2019-03-29T08:49:13Z</time>
      </trkpt>
      <trkpt lat="47.91352" lon="-2.56125">
        <ele>53.24</ele>
        <time>2019-03-29T08:49:27Z</time>
      </trkpt>
      <trkpt lat="47.91374" lon="-2.56098">
        <ele>53.13</ele>
        <time>2019-03-29T08:49:43Z</time>
      </trkpt>
      <trkpt lat="47.91386" lon="-2.56067">
        <ele>53.23</ele>
        <time>2019-03-29T08:49:57Z</time>
      </trkpt>
      <trkpt lat="47.91388" lon="-2.56041">
        <ele>53.61</ele>
        <time>2019-03-29T08:50:11Z</time>
      </trkpt>
      <trkpt lat="47.91385" lon="-2.56028">
        <ele>54.03</ele>
        <time>2019-03-29T08:50:45Z</time>
      </trkpt>
      <trkpt lat="47.91381" lon="-2.55986">
        <ele>53.83</ele>
        <time>2019-03-29T08:51:01Z</time>
      </trkpt>
      <trkpt lat="47.91381" lon="-2.55983">
        <ele>53.83</ele>
        <time>2019-03-29T08:51:02Z</time>
      </trkpt>
      <trkpt lat="47.91376" lon="-2.55947">
        <ele>53.84</ele>
        <time>2019-03-29T08:51:17Z</time>
      </trkpt>
      <trkpt lat="47.91373" lon="-2.55931">
        <ele>53.68</ele>
        <time>2019-03-29T08:51:24Z</time>
      </trkpt>
      <trkpt lat="47.91373" lon="-2.55916">
        <ele>53.51</ele>
        <time>2019-03-29T08:51:31Z</time>
      </trkpt>
      <trkpt lat="47.91373" lon="-2.55897">
        <ele>53.3</ele>
        <time>2019-03-29T08:51:37Z</time>
      </trkpt>
      <trkpt lat="47.91372" lon="-2.55894">
        <ele>53.12</ele>
        <time>2019-03-29T08:51:38Z</time>
      </trkpt>
      <trkpt lat="47.91372" lon="-2.55891">
        <ele>53.02</ele>
        <time>2019-03-29T08:51:39Z</time>
      </trkpt>
      <trkpt lat="47.91372" lon="-2.55888">
        <ele>52.94</ele>
        <time>2019-03-29T08:51:40Z</time>
      </trkpt>
      <trkpt lat="47.91372" lon="-2.55885">
        <ele>52.85</ele>
        <time>2019-03-29T08:51:41Z</time>
      </trkpt>
      <trkpt lat="47.91372" lon="-2.55883">
        <ele>52.78</ele>
        <time>2019-03-29T08:51:42Z</time>
      </trkpt>
      <trkpt lat="47.91372" lon="-2.55881">
        <ele>52.69</ele>
        <time>2019-03-29T08:51:43Z</time>
      </trkpt>
      <trkpt lat="47.91371" lon="-2.55879">
        <ele>52.63</ele>
        <time>2019-03-29T08:51:44Z</time>
      </trkpt>
      <trkpt lat="47.91371" lon="-2.55877">
        <ele>52.57</ele>
        <time>2019-03-29T08:51:45Z</time>
      </trkpt>
      <trkpt lat="47.9137" lon="-2.55874">
        <ele>52.51</ele>
        <time>2019-03-29T08:51:46Z</time>
      </trkpt>
      <trkpt lat="47.91364" lon="-2.55832">
        <ele>52.13</ele>
        <time>2019-03-29T08:52:02Z</time>
      </trkpt>
      <trkpt lat="47.91364" lon="-2.55816">
        <ele>52.02</ele>
        <time>2019-03-29T08:52:08Z</time>
      </trkpt>
      <trkpt lat="47.91363" lon="-2.55814">
        <ele>52.01</ele>
        <time>2019-03-29T08:52:09Z</time>
      </trkpt>
      <trkpt lat="47.91363" lon="-2.55811">
        <ele>52.01</ele>
        <time>2019-03-29T08:52:10Z</time>
      </trkpt>
      <trkpt lat="47.91364" lon="-2.5581">
        <ele>52.04</ele>
        <time>2019-03-29T08:52:11Z</time>
      </trkpt>
      <trkpt lat="47.91364" lon="-2.55807">
        <ele>52.06</ele>
        <time>2019-03-29T08:52:12Z</time>
      </trkpt>
      <trkpt lat="47.91364" lon="-2.55805">
        <ele>52.09</ele>
        <time>2019-03-29T08:52:13Z</time>
      </trkpt>
      <trkpt lat="47.91364" lon="-2.55803">
        <ele>52.13</ele>
        <time>2019-03-29T08:52:14Z</time>
      </trkpt>
      <trkpt lat="47.91364" lon="-2.558">
        <ele>52.17</ele>
        <time>2019-03-29T08:52:15Z</time>
      </trkpt>
      <trkpt lat="47.91364" lon="-2.55798">
        <ele>52.21</ele>
        <time>2019-03-29T08:52:16Z</time>
      </trkpt>
      <trkpt lat="47.91364" lon="-2.55796">
        <ele>52.24</ele>
        <time>2019-03-29T08:52:17Z</time>
      </trkpt>
      <trkpt lat="47.91364" lon="-2.55793">
        <ele>52.26</ele>
        <time>2019-03-29T08:52:18Z</time>
      </trkpt>
      <trkpt lat="47.91364" lon="-2.55791">
        <ele>52.28</ele>
        <time>2019-03-29T08:52:19Z</time>
      </trkpt>
      <trkpt lat="47.91365" lon="-2.55777">
        <ele>52.55</ele>
        <time>2019-03-29T08:52:25Z</time>
      </trkpt>
      <trkpt lat="47.91365" lon="-2.55774">
        <ele>52.63</ele>
        <time>2019-03-29T08:52:26Z</time>
      </trkpt>
      <trkpt lat="47.91364" lon="-2.55743">
        <ele>53.43</ele>
        <time>2019-03-29T08:52:38Z</time>
      </trkpt>
      <trkpt lat="47.91363" lon="-2.5574">
        <ele>53.48</ele>
        <time>2019-03-29T08:52:39Z</time>
      </trkpt>
      <trkpt lat="47.91362" lon="-2.55737">
        <ele>53.52</ele>
        <time>2019-03-29T08:52:40Z</time>
      </trkpt>
      <trkpt lat="47.91363" lon="-2.55735">
        <ele>53.53</ele>
        <time>2019-03-29T08:52:41Z</time>
      </trkpt>
      <trkpt lat="47.91363" lon="-2.55733">
        <ele>53.56</ele>
        <time>2019-03-29T08:52:42Z</time>
      </trkpt>
      <trkpt lat="47.91364" lon="-2.55731">
        <ele>53.59</ele>
        <time>2019-03-29T08:52:43Z</time>
      </trkpt>
      <trkpt lat="47.91368" lon="-2.55722">
        <ele>53.75</ele>
        <time>2019-03-29T08:52:47Z</time>
      </trkpt>
      <trkpt lat="47.9137" lon="-2.5572">
        <ele>53.8</ele>
        <time>2019-03-29T08:52:48Z</time>
      </trkpt>
      <trkpt lat="47.91371" lon="-2.55718">
        <ele>53.84</ele>
        <time>2019-03-29T08:52:49Z</time>
      </trkpt>
      <trkpt lat="47.91377" lon="-2.55709">
        <ele>54.02</ele>
        <time>2019-03-29T08:52:54Z</time>
      </trkpt>
      <trkpt lat="47.9139" lon="-2.557">
        <ele>53.87</ele>
        <time>2019-03-29T08:53:02Z</time>
      </trkpt>
      <trkpt lat="47.91403" lon="-2.55684">
        <ele>53.75</ele>
        <time>2019-03-29T08:53:15Z</time>
      </trkpt>
      <trkpt lat="47.9142" lon="-2.55659">
        <ele>53.38</ele>
        <time>2019-03-29T08:53:29Z</time>
      </trkpt>
      <trkpt lat="47.91424" lon="-2.55656">
        <ele>53.25</ele>
        <time>2019-03-29T08:53:31Z</time>
      </trkpt>
      <trkpt lat="47.91425" lon="-2.55654">
        <ele>53.2</ele>
        <time>2019-03-29T08:53:32Z</time>
      </trkpt>
      <trkpt lat="47.91427" lon="-2.55652">
        <ele>53.14</ele>
        <time>2019-03-29T08:53:33Z</time>
      </trkpt>
      <trkpt lat="47.91428" lon="-2.55651">
        <ele>53.09</ele>
        <time>2019-03-29T08:53:34Z</time>
      </trkpt>
      <trkpt lat="47.91429" lon="-2.55648">
        <ele>52.97</ele>
        <time>2019-03-29T08:53:36Z</time>
      </trkpt>
      <trkpt lat="47.91429" lon="-2.55646">
        <ele>52.9</ele>
        <time>2019-03-29T08:53:37Z</time>
      </trkpt>
      <trkpt lat="47.91439" lon="-2.55628">
        <ele>52.33</ele>
        <time>2019-03-29T08:53:47Z</time>
      </trkpt>
      <trkpt lat="47.9144" lon="-2.55626">
        <ele>52.3</ele>
        <time>2019-03-29T08:53:48Z</time>
      </trkpt>
      <trkpt lat="47.91442" lon="-2.55624">
        <ele>52.27</ele>
        <time>2019-03-29T08:53:49Z</time>
      </trkpt>
      <trkpt lat="47.91443" lon="-2.55622">
        <ele>52.22</ele>
        <time>2019-03-29T08:53:50Z</time>
      </trkpt>
      <trkpt lat="47.91443" lon="-2.55621">
        <ele>52.15</ele>
        <time>2019-03-29T08:53:51Z</time>
      </trkpt>
      <trkpt lat="47.91443" lon="-2.5562">
        <ele>52.09</ele>
        <time>2019-03-29T08:53:52Z</time>
      </trkpt>
      <trkpt lat="47.91444" lon="-2.55618">
        <ele>52.04</ele>
        <time>2019-03-29T08:53:53Z</time>
      </trkpt>
      <trkpt lat="47.91445" lon="-2.55617">
        <ele>51.99</ele>
        <time>2019-03-29T08:53:54Z</time>
      </trkpt>
      <trkpt lat="47.91446" lon="-2.55616">
        <ele>51.95</ele>
        <time>2019-03-29T08:53:55Z</time>
      </trkpt>
      <trkpt lat="47.91447" lon="-2.55614">
        <ele>51.91</ele>
        <time>2019-03-29T08:53:56Z</time>
      </trkpt>
      <trkpt lat="47.91461" lon="-2.55588">
        <ele>51.86</ele>
        <time>2019-03-29T08:54:09Z</time>
      </trkpt>
      <trkpt lat="47.91471" lon="-2.55573">
        <ele>51.97</ele>
        <time>2019-03-29T08:54:17Z</time>
      </trkpt>
      <trkpt lat="47.91474" lon="-2.55569">
        <ele>51.92</ele>
        <time>2019-03-29T08:54:18Z</time>
      </trkpt>
      <trkpt lat="47.91477" lon="-2.55566">
        <ele>51.9</ele>
        <time>2019-03-29T08:54:19Z</time>
      </trkpt>
      <trkpt lat="47.91479" lon="-2.55562">
        <ele>51.88</ele>
        <time>2019-03-29T08:54:20Z</time>
      </trkpt>
      <trkpt lat="47.9148" lon="-2.55559">
        <ele>51.86</ele>
        <time>2019-03-29T08:54:21Z</time>
      </trkpt>
      <trkpt lat="47.91483" lon="-2.55555">
        <ele>51.88</ele>
        <time>2019-03-29T08:54:22Z</time>
      </trkpt>
      <trkpt lat="47.91487" lon="-2.55543">
        <ele>51.99</ele>
        <time>2019-03-29T08:54:26Z</time>
      </trkpt>
      <trkpt lat="47.91489" lon="-2.5554">
        <ele>52</ele>
        <time>2019-03-29T08:54:27Z</time>
      </trkpt>
      <trkpt lat="47.91491" lon="-2.55537">
        <ele>52.03</ele>
        <time>2019-03-29T08:54:28Z</time>
      </trkpt>
      <trkpt lat="47.91492" lon="-2.55535">
        <ele>52.06</ele>
        <time>2019-03-29T08:54:29Z</time>
      </trkpt>
      <trkpt lat="47.91493" lon="-2.55533">
        <ele>52.12</ele>
        <time>2019-03-29T08:54:30Z</time>
      </trkpt>
      <trkpt lat="47.91494" lon="-2.55531">
        <ele>52.18</ele>
        <time>2019-03-29T08:54:31Z</time>
      </trkpt>
      <trkpt lat="47.91496" lon="-2.55529">
        <ele>52.27</ele>
        <time>2019-03-29T08:54:32Z</time>
      </trkpt>
      <trkpt lat="47.91496" lon="-2.55527">
        <ele>52.32</ele>
        <time>2019-03-29T08:54:33Z</time>
      </trkpt>
      <trkpt lat="47.91498" lon="-2.55523">
        <ele>52.39</ele>
        <time>2019-03-29T08:54:35Z</time>
      </trkpt>
      <trkpt lat="47.91499" lon="-2.5552">
        <ele>52.41</ele>
        <time>2019-03-29T08:54:36Z</time>
      </trkpt>
      <trkpt lat="47.91499" lon="-2.55519">
        <ele>52.45</ele>
        <time>2019-03-29T08:54:37Z</time>
      </trkpt>
      <trkpt lat="47.915" lon="-2.55517">
        <ele>52.48</ele>
        <time>2019-03-29T08:54:38Z</time>
      </trkpt>
      <trkpt lat="47.91501" lon="-2.55515">
        <ele>52.53</ele>
        <time>2019-03-29T08:54:39Z</time>
      </trkpt>
      <trkpt lat="47.9151" lon="-2.55479">
        <ele>53.73</ele>
        <time>2019-03-29T08:54:49Z</time>
      </trkpt>
      <trkpt lat="47.91512" lon="-2.55468">
        <ele>54.97</ele>
        <time>2019-03-29T08:54:54Z</time>
      </trkpt>
      <trkpt lat="47.91512" lon="-2.55465">
        <ele>55.2</ele>
        <time>2019-03-29T08:54:55Z</time>
      </trkpt>
      <trkpt lat="47.91513" lon="-2.55463">
        <ele>55.42</ele>
        <time>2019-03-29T08:54:56Z</time>
      </trkpt>
      <trkpt lat="47.91513" lon="-2.5546">
        <ele>55.64</ele>
        <time>2019-03-29T08:54:57Z</time>
      </trkpt>
      <trkpt lat="47.91513" lon="-2.55458">
        <ele>55.89</ele>
        <time>2019-03-29T08:54:58Z</time>
      </trkpt>
      <trkpt lat="47.91519" lon="-2.5543">
        <ele>58.19</ele>
        <time>2019-03-29T08:55:09Z</time>
      </trkpt>
      <trkpt lat="47.91519" lon="-2.55427">
        <ele>58.34</ele>
        <time>2019-03-29T08:55:10Z</time>
      </trkpt>
      <trkpt lat="47.91521" lon="-2.55409">
        <ele>59.6</ele>
        <time>2019-03-29T08:55:17Z</time>
      </trkpt>
      <trkpt lat="47.91522" lon="-2.55406">
        <ele>59.75</ele>
        <time>2019-03-29T08:55:18Z</time>
      </trkpt>
      <trkpt lat="47.91526" lon="-2.55394">
        <ele>60.5</ele>
        <time>2019-03-29T08:55:22Z</time>
      </trkpt>
      <trkpt lat="47.91527" lon="-2.55391">
        <ele>60.7</ele>
        <time>2019-03-29T08:55:23Z</time>
      </trkpt>
      <trkpt lat="47.91527" lon="-2.55389">
        <ele>61.06</ele>
        <time>2019-03-29T08:55:24Z</time>
      </trkpt>
      <trkpt lat="47.91537" lon="-2.55349">
        <ele>62.3</ele>
        <time>2019-03-29T08:55:37Z</time>
      </trkpt>
      <trkpt lat="47.9154" lon="-2.55335">
        <ele>62.71</ele>
        <time>2019-03-29T08:55:42Z</time>
      </trkpt>
      <trkpt lat="47.91542" lon="-2.55322">
        <ele>63.43</ele>
        <time>2019-03-29T08:55:47Z</time>
      </trkpt>
      <trkpt lat="47.91542" lon="-2.5532">
        <ele>63.62</ele>
        <time>2019-03-29T08:55:48Z</time>
      </trkpt>
      <trkpt lat="47.91543" lon="-2.55318">
        <ele>63.69</ele>
        <time>2019-03-29T08:55:49Z</time>
      </trkpt>
      <trkpt lat="47.91544" lon="-2.55315">
        <ele>63.75</ele>
        <time>2019-03-29T08:55:50Z</time>
      </trkpt>
      <trkpt lat="47.91544" lon="-2.55312">
        <ele>63.8</ele>
        <time>2019-03-29T08:55:51Z</time>
      </trkpt>
      <trkpt lat="47.91543" lon="-2.55272">
        <ele>64.47</ele>
        <time>2019-03-29T08:56:04Z</time>
      </trkpt>
      <trkpt lat="47.91548" lon="-2.55232">
        <ele>64.35</ele>
        <time>2019-03-29T08:56:18Z</time>
      </trkpt>
      <trkpt lat="47.91556" lon="-2.55191">
        <ele>63.35</ele>
        <time>2019-03-29T08:56:35Z</time>
      </trkpt>
      <trkpt lat="47.9156" lon="-2.55147">
        <ele>61.63</ele>
        <time>2019-03-29T08:56:52Z</time>
      </trkpt>
      <trkpt lat="47.91566" lon="-2.55101">
        <ele>60.54</ele>
        <time>2019-03-29T08:57:11Z</time>
      </trkpt>
      <trkpt lat="47.9157" lon="-2.55065">
        <ele>59.56</ele>
        <time>2019-03-29T08:57:25Z</time>
      </trkpt>
      <trkpt lat="47.91571" lon="-2.55025">
        <ele>58.64</ele>
        <time>2019-03-29T08:57:40Z</time>
      </trkpt>
      <trkpt lat="47.91575" lon="-2.54986">
        <ele>57.61</ele>
        <time>2019-03-29T08:57:56Z</time>
      </trkpt>
      <trkpt lat="47.91587" lon="-2.54948">
        <ele>57.21</ele>
        <time>2019-03-29T08:58:12Z</time>
      </trkpt>
      <trkpt lat="47.91603" lon="-2.54911">
        <ele>57.16</ele>
        <time>2019-03-29T08:58:29Z</time>
      </trkpt>
      <trkpt lat="47.91616" lon="-2.54876">
        <ele>57.6</ele>
        <time>2019-03-29T08:58:45Z</time>
      </trkpt>
      <trkpt lat="47.9162" lon="-2.54868">
        <ele>57.81</ele>
        <time>2019-03-29T08:58:49Z</time>
      </trkpt>
      <trkpt lat="47.91623" lon="-2.54864">
        <ele>57.85</ele>
        <time>2019-03-29T08:58:50Z</time>
      </trkpt>
      <trkpt lat="47.91624" lon="-2.54861">
        <ele>57.89</ele>
        <time>2019-03-29T08:58:51Z</time>
      </trkpt>
      <trkpt lat="47.91626" lon="-2.54859">
        <ele>57.92</ele>
        <time>2019-03-29T08:58:52Z</time>
      </trkpt>
      <trkpt lat="47.91628" lon="-2.54857">
        <ele>57.96</ele>
        <time>2019-03-29T08:58:53Z</time>
      </trkpt>
      <trkpt lat="47.91629" lon="-2.54854">
        <ele>58.01</ele>
        <time>2019-03-29T08:58:54Z</time>
      </trkpt>
      <trkpt lat="47.91631" lon="-2.54852">
        <ele>58.08</ele>
        <time>2019-03-29T08:58:55Z</time>
      </trkpt>
      <trkpt lat="47.91632" lon="-2.5485">
        <ele>58.11</ele>
        <time>2019-03-29T08:58:56Z</time>
      </trkpt>
      <trkpt lat="47.91633" lon="-2.54848">
        <ele>58.15</ele>
        <time>2019-03-29T08:58:57Z</time>
      </trkpt>
      <trkpt lat="47.91634" lon="-2.54846">
        <ele>58.22</ele>
        <time>2019-03-29T08:58:58Z</time>
      </trkpt>
      <trkpt lat="47.91634" lon="-2.54844">
        <ele>58.3</ele>
        <time>2019-03-29T08:58:59Z</time>
      </trkpt>
      <trkpt lat="47.91636" lon="-2.54842">
        <ele>58.41</ele>
        <time>2019-03-29T08:59:00Z</time>
      </trkpt>
      <trkpt lat="47.91636" lon="-2.5484">
        <ele>58.54</ele>
        <time>2019-03-29T08:59:01Z</time>
      </trkpt>
      <trkpt lat="47.91636" lon="-2.54837">
        <ele>58.7</ele>
        <time>2019-03-29T08:59:02Z</time>
      </trkpt>
      <trkpt lat="47.91637" lon="-2.54835">
        <ele>58.89</ele>
        <time>2019-03-29T08:59:03Z</time>
      </trkpt>
      <trkpt lat="47.91638" lon="-2.54832">
        <ele>59.06</ele>
        <time>2019-03-29T08:59:04Z</time>
      </trkpt>
      <trkpt lat="47.91638" lon="-2.5483">
        <ele>59.19</ele>
        <time>2019-03-29T08:59:05Z</time>
      </trkpt>
      <trkpt lat="47.91656" lon="-2.54796">
        <ele>59.87</ele>
        <time>2019-03-29T08:59:21Z</time>
      </trkpt>
      <trkpt lat="47.91677" lon="-2.54774">
        <ele>59.37</ele>
        <time>2019-03-29T08:59:33Z</time>
      </trkpt>
      <trkpt lat="47.91703" lon="-2.54755">
        <ele>58.93</ele>
        <time>2019-03-29T08:59:47Z</time>
      </trkpt>
      <trkpt lat="47.91728" lon="-2.54742">
        <ele>58.96</ele>
        <time>2019-03-29T09:00:01Z</time>
      </trkpt>
      <trkpt lat="47.91753" lon="-2.54729">
        <ele>59.23</ele>
        <time>2019-03-29T09:00:16Z</time>
      </trkpt>
      <trkpt lat="47.91781" lon="-2.54718">
        <ele>59.94</ele>
        <time>2019-03-29T09:00:32Z</time>
      </trkpt>
      <trkpt lat="47.9181" lon="-2.54708">
        <ele>61.75</ele>
        <time>2019-03-29T09:00:51Z</time>
      </trkpt>
      <trkpt lat="47.91823" lon="-2.54701">
        <ele>62.76</ele>
        <time>2019-03-29T09:01:00Z</time>
      </trkpt>
      <trkpt lat="47.9184" lon="-2.54691">
        <ele>62.55</ele>
        <time>2019-03-29T09:01:14Z</time>
      </trkpt>
      <trkpt lat="47.91862" lon="-2.54679">
        <ele>61.19</ele>
        <time>2019-03-29T09:01:28Z</time>
      </trkpt>
      <trkpt lat="47.91889" lon="-2.54683">
        <ele>58.74</ele>
        <time>2019-03-29T09:01:44Z</time>
      </trkpt>
      <trkpt lat="47.91892" lon="-2.54688">
        <ele>58.28</ele>
        <time>2019-03-29T09:01:47Z</time>
      </trkpt>
      <trkpt lat="47.91893" lon="-2.5469">
        <ele>58.13</ele>
        <time>2019-03-29T09:01:48Z</time>
      </trkpt>
      <trkpt lat="47.91894" lon="-2.54693">
        <ele>57.97</ele>
        <time>2019-03-29T09:01:49Z</time>
      </trkpt>
      <trkpt lat="47.91894" lon="-2.54694">
        <ele>57.85</ele>
        <time>2019-03-29T09:01:50Z</time>
      </trkpt>
      <trkpt lat="47.91895" lon="-2.54696">
        <ele>57.73</ele>
        <time>2019-03-29T09:01:51Z</time>
      </trkpt>
      <trkpt lat="47.91895" lon="-2.54698">
        <ele>57.62</ele>
        <time>2019-03-29T09:01:52Z</time>
      </trkpt>
      <trkpt lat="47.91895" lon="-2.547">
        <ele>57.53</ele>
        <time>2019-03-29T09:01:53Z</time>
      </trkpt>
      <trkpt lat="47.91896" lon="-2.54703">
        <ele>57.48</ele>
        <time>2019-03-29T09:01:54Z</time>
      </trkpt>
      <trkpt lat="47.91897" lon="-2.54724">
        <ele>56.5</ele>
        <time>2019-03-29T09:02:03Z</time>
      </trkpt>
      <trkpt lat="47.91897" lon="-2.54726">
        <ele>56.38</ele>
        <time>2019-03-29T09:02:04Z</time>
      </trkpt>
      <trkpt lat="47.91897" lon="-2.54728">
        <ele>56.27</ele>
        <time>2019-03-29T09:02:05Z</time>
      </trkpt>
      <trkpt lat="47.91896" lon="-2.5473">
        <ele>56.16</ele>
        <time>2019-03-29T09:02:06Z</time>
      </trkpt>
      <trkpt lat="47.91896" lon="-2.54733">
        <ele>56.07</ele>
        <time>2019-03-29T09:02:07Z</time>
      </trkpt>
      <trkpt lat="47.91896" lon="-2.54735">
        <ele>56</ele>
        <time>2019-03-29T09:02:08Z</time>
      </trkpt>
      <trkpt lat="47.91896" lon="-2.54737">
        <ele>55.94</ele>
        <time>2019-03-29T09:02:09Z</time>
      </trkpt>
      <trkpt lat="47.91896" lon="-2.54739">
        <ele>55.87</ele>
        <time>2019-03-29T09:02:10Z</time>
      </trkpt>
      <trkpt lat="47.91897" lon="-2.54742">
        <ele>55.62</ele>
        <time>2019-03-29T09:02:12Z</time>
      </trkpt>
      <trkpt lat="47.91899" lon="-2.5474">
        <ele>55.36</ele>
        <time>2019-03-29T09:02:14Z</time>
      </trkpt>
      <trkpt lat="47.91904" lon="-2.54716">
        <ele>53.47</ele>
        <time>2019-03-29T09:02:27Z</time>
      </trkpt>
      <trkpt lat="47.91905" lon="-2.54715">
        <ele>53.39</ele>
        <time>2019-03-29T09:02:28Z</time>
      </trkpt>
      <trkpt lat="47.91906" lon="-2.54713">
        <ele>53.28</ele>
        <time>2019-03-29T09:02:29Z</time>
      </trkpt>
      <trkpt lat="47.91912" lon="-2.54672">
        <ele>51.15</ele>
        <time>2019-03-29T09:02:46Z</time>
      </trkpt>
      <trkpt lat="47.91923" lon="-2.54641">
        <ele>49.71</ele>
        <time>2019-03-29T09:03:01Z</time>
      </trkpt>
      <trkpt lat="47.9194" lon="-2.54623">
        <ele>49.2</ele>
        <time>2019-03-29T09:03:13Z</time>
      </trkpt>
      <trkpt lat="47.91952" lon="-2.5461">
        <ele>49.18</ele>
        <time>2019-03-29T09:03:24Z</time>
      </trkpt>
      <trkpt lat="47.91954" lon="-2.54607">
        <ele>49.17</ele>
        <time>2019-03-29T09:03:27Z</time>
      </trkpt>
      <trkpt lat="47.91955" lon="-2.54605">
        <ele>49.17</ele>
        <time>2019-03-29T09:03:28Z</time>
      </trkpt>
      <trkpt lat="47.91956" lon="-2.54604">
        <ele>49.16</ele>
        <time>2019-03-29T09:03:29Z</time>
      </trkpt>
      <trkpt lat="47.91958" lon="-2.54601">
        <ele>49.15</ele>
        <time>2019-03-29T09:03:30Z</time>
      </trkpt>
      <trkpt lat="47.91959" lon="-2.546">
        <ele>49.14</ele>
        <time>2019-03-29T09:03:31Z</time>
      </trkpt>
      <trkpt lat="47.91973" lon="-2.54586">
        <ele>49.02</ele>
        <time>2019-03-29T09:03:43Z</time>
      </trkpt>
      <trkpt lat="47.91988" lon="-2.54569">
        <ele>48.99</ele>
        <time>2019-03-29T09:03:56Z</time>
      </trkpt>
      <trkpt lat="47.9199" lon="-2.54568">
        <ele>48.95</ele>
        <time>2019-03-29T09:03:57Z</time>
      </trkpt>
      <trkpt lat="47.91992" lon="-2.54564">
        <ele>48.93</ele>
        <time>2019-03-29T09:03:58Z</time>
      </trkpt>
      <trkpt lat="47.91995" lon="-2.54561">
        <ele>48.91</ele>
        <time>2019-03-29T09:03:59Z</time>
      </trkpt>
      <trkpt lat="47.91997" lon="-2.5456">
        <ele>48.88</ele>
        <time>2019-03-29T09:04:00Z</time>
      </trkpt>
      <trkpt lat="47.91998" lon="-2.5456">
        <ele>48.85</ele>
        <time>2019-03-29T09:04:01Z</time>
      </trkpt>
      <trkpt lat="47.91999" lon="-2.54559">
        <ele>48.83</ele>
        <time>2019-03-29T09:04:02Z</time>
      </trkpt>
      <trkpt lat="47.92" lon="-2.54558">
        <ele>48.79</ele>
        <time>2019-03-29T09:04:03Z</time>
      </trkpt>
      <trkpt lat="47.92002" lon="-2.54557">
        <ele>48.72</ele>
        <time>2019-03-29T09:04:04Z</time>
      </trkpt>
      <trkpt lat="47.92004" lon="-2.54556">
        <ele>48.65</ele>
        <time>2019-03-29T09:04:05Z</time>
      </trkpt>
      <trkpt lat="47.92006" lon="-2.54554">
        <ele>48.59</ele>
        <time>2019-03-29T09:04:06Z</time>
      </trkpt>
      <trkpt lat="47.92007" lon="-2.54554">
        <ele>48.56</ele>
        <time>2019-03-29T09:04:07Z</time>
      </trkpt>
      <trkpt lat="47.92008" lon="-2.54553">
        <ele>48.57</ele>
        <time>2019-03-29T09:04:08Z</time>
      </trkpt>
      <trkpt lat="47.92011" lon="-2.54551">
        <ele>48.55</ele>
        <time>2019-03-29T09:04:09Z</time>
      </trkpt>
      <trkpt lat="47.92014" lon="-2.54548">
        <ele>48.53</ele>
        <time>2019-03-29T09:04:10Z</time>
      </trkpt>
      <trkpt lat="47.92046" lon="-2.54532">
        <ele>48.04</ele>
        <time>2019-03-29T09:04:25Z</time>
      </trkpt>
      <trkpt lat="47.92053" lon="-2.54524">
        <ele>47.94</ele>
        <time>2019-03-29T09:04:30Z</time>
      </trkpt>
      <trkpt lat="47.92055" lon="-2.54523">
        <ele>47.93</ele>
        <time>2019-03-29T09:04:31Z</time>
      </trkpt>
      <trkpt lat="47.92056" lon="-2.54521">
        <ele>47.97</ele>
        <time>2019-03-29T09:04:32Z</time>
      </trkpt>
      <trkpt lat="47.92056" lon="-2.54519">
        <ele>48.04</ele>
        <time>2019-03-29T09:04:33Z</time>
      </trkpt>
      <trkpt lat="47.92057" lon="-2.54517">
        <ele>48.12</ele>
        <time>2019-03-29T09:04:34Z</time>
      </trkpt>
      <trkpt lat="47.92062" lon="-2.54502">
        <ele>48.62</ele>
        <time>2019-03-29T09:04:40Z</time>
      </trkpt>
      <trkpt lat="47.92064" lon="-2.54499">
        <ele>48.69</ele>
        <time>2019-03-29T09:04:41Z</time>
      </trkpt>
      <trkpt lat="47.92064" lon="-2.54496">
        <ele>48.84</ele>
        <time>2019-03-29T09:04:42Z</time>
      </trkpt>
      <trkpt lat="47.92066" lon="-2.54492">
        <ele>48.94</ele>
        <time>2019-03-29T09:04:43Z</time>
      </trkpt>
      <trkpt lat="47.92067" lon="-2.54489">
        <ele>49.04</ele>
        <time>2019-03-29T09:04:44Z</time>
      </trkpt>
      <trkpt lat="47.92068" lon="-2.54486">
        <ele>49.14</ele>
        <time>2019-03-29T09:04:45Z</time>
      </trkpt>
      <trkpt lat="47.9207" lon="-2.54482">
        <ele>49.21</ele>
        <time>2019-03-29T09:04:46Z</time>
      </trkpt>
      <trkpt lat="47.92071" lon="-2.5448">
        <ele>49.31</ele>
        <time>2019-03-29T09:04:47Z</time>
      </trkpt>
      <trkpt lat="47.92073" lon="-2.54477">
        <ele>49.38</ele>
        <time>2019-03-29T09:04:48Z</time>
      </trkpt>
      <trkpt lat="47.92074" lon="-2.54474">
        <ele>49.47</ele>
        <time>2019-03-29T09:04:49Z</time>
      </trkpt>
      <trkpt lat="47.92076" lon="-2.54469">
        <ele>49.58</ele>
        <time>2019-03-29T09:04:50Z</time>
      </trkpt>
      <trkpt lat="47.92077" lon="-2.54466">
        <ele>49.72</ele>
        <time>2019-03-29T09:04:51Z</time>
      </trkpt>
      <trkpt lat="47.92079" lon="-2.54463">
        <ele>49.83</ele>
        <time>2019-03-29T09:04:52Z</time>
      </trkpt>
      <trkpt lat="47.9208" lon="-2.5446">
        <ele>49.91</ele>
        <time>2019-03-29T09:04:53Z</time>
      </trkpt>
      <trkpt lat="47.92082" lon="-2.54455">
        <ele>49.98</ele>
        <time>2019-03-29T09:04:54Z</time>
      </trkpt>
      <trkpt lat="47.92084" lon="-2.54449">
        <ele>50.04</ele>
        <time>2019-03-29T09:04:55Z</time>
      </trkpt>
      <trkpt lat="47.92087" lon="-2.54443">
        <ele>50.04</ele>
        <time>2019-03-29T09:04:56Z</time>
      </trkpt>
      <trkpt lat="47.92116" lon="-2.54385">
        <ele>50.02</ele>
        <time>2019-03-29T09:05:04Z</time>
      </trkpt>
      <trkpt lat="47.9212" lon="-2.54378">
        <ele>50.04</ele>
        <time>2019-03-29T09:05:05Z</time>
      </trkpt>
      <trkpt lat="47.92126" lon="-2.54364">
        <ele>50.04</ele>
        <time>2019-03-29T09:05:07Z</time>
      </trkpt>
      <trkpt lat="47.92129" lon="-2.54356">
        <ele>50.04</ele>
        <time>2019-03-29T09:05:08Z</time>
      </trkpt>
      <trkpt lat="47.92165" lon="-2.54264">
        <ele>50.57</ele>
        <time>2019-03-29T09:05:19Z</time>
      </trkpt>
      <trkpt lat="47.92172" lon="-2.54248">
        <ele>50.72</ele>
        <time>2019-03-29T09:05:21Z</time>
      </trkpt>
      <trkpt lat="47.92187" lon="-2.54215">
        <ele>51.35</ele>
        <time>2019-03-29T09:05:25Z</time>
      </trkpt>
      <trkpt lat="47.92192" lon="-2.54208">
        <ele>51.61</ele>
        <time>2019-03-29T09:05:26Z</time>
      </trkpt>
      <trkpt lat="47.92197" lon="-2.54202">
        <ele>51.99</ele>
        <time>2019-03-29T09:05:27Z</time>
      </trkpt>
      <trkpt lat="47.922" lon="-2.54197">
        <ele>52.59</ele>
        <time>2019-03-29T09:05:28Z</time>
      </trkpt>
      <trkpt lat="47.92203" lon="-2.54192">
        <ele>53.29</ele>
        <time>2019-03-29T09:05:29Z</time>
      </trkpt>
      <trkpt lat="47.92207" lon="-2.54187">
        <ele>53.92</ele>
        <time>2019-03-29T09:05:30Z</time>
      </trkpt>
      <trkpt lat="47.92211" lon="-2.54182">
        <ele>55.13</ele>
        <time>2019-03-29T09:05:31Z</time>
      </trkpt>
      <trkpt lat="47.92215" lon="-2.54178">
        <ele>55.79</ele>
        <time>2019-03-29T09:05:32Z</time>
      </trkpt>
      <trkpt lat="47.92218" lon="-2.54174">
        <ele>56.42</ele>
        <time>2019-03-29T09:05:33Z</time>
      </trkpt>
      <trkpt lat="47.92247" lon="-2.54148">
        <ele>59.5</ele>
        <time>2019-03-29T09:05:41Z</time>
      </trkpt>
      <trkpt lat="47.92274" lon="-2.54123">
        <ele>60.46</ele>
        <time>2019-03-29T09:05:53Z</time>
      </trkpt>
      <trkpt lat="47.92292" lon="-2.54093">
        <ele>59.4</ele>
        <time>2019-03-29T09:06:08Z</time>
      </trkpt>
      <trkpt lat="47.92293" lon="-2.54091">
        <ele>59.28</ele>
        <time>2019-03-29T09:06:09Z</time>
      </trkpt>
      <trkpt lat="47.92303" lon="-2.54057">
        <ele>56.38</ele>
        <time>2019-03-29T09:06:25Z</time>
      </trkpt>
      <trkpt lat="47.92307" lon="-2.54016">
        <ele>53.29</ele>
        <time>2019-03-29T09:06:42Z</time>
      </trkpt>
      <trkpt lat="47.92312" lon="-2.53976">
        <ele>51.62</ele>
        <time>2019-03-29T09:06:59Z</time>
      </trkpt>
      <trkpt lat="47.92312" lon="-2.53965">
        <ele>51.15</ele>
        <time>2019-03-29T09:07:05Z</time>
      </trkpt>
      <trkpt lat="47.92312" lon="-2.53962">
        <ele>51.07</ele>
        <time>2019-03-29T09:07:06Z</time>
      </trkpt>
      <trkpt lat="47.92311" lon="-2.5396">
        <ele>50.97</ele>
        <time>2019-03-29T09:07:07Z</time>
      </trkpt>
      <trkpt lat="47.92312" lon="-2.53931">
        <ele>50.17</ele>
        <time>2019-03-29T09:07:19Z</time>
      </trkpt>
      <trkpt lat="47.9231" lon="-2.53901">
        <ele>50.65</ele>
        <time>2019-03-29T09:07:33Z</time>
      </trkpt>
      <trkpt lat="47.92325" lon="-2.53867">
        <ele>52.13</ele>
        <time>2019-03-29T09:07:46Z</time>
      </trkpt>
      <trkpt lat="47.92361" lon="-2.53842">
        <ele>52.58</ele>
        <time>2019-03-29T09:07:57Z</time>
      </trkpt>
      <trkpt lat="47.92392" lon="-2.53802">
        <ele>52.27</ele>
        <time>2019-03-29T09:08:08Z</time>
      </trkpt>
      <trkpt lat="47.92425" lon="-2.53763">
        <ele>51.27</ele>
        <time>2019-03-29T09:08:18Z</time>
      </trkpt>
      <trkpt lat="47.92474" lon="-2.53713">
        <ele>48.47</ele>
        <time>2019-03-29T09:08:31Z</time>
      </trkpt>
      <trkpt lat="47.92502" lon="-2.53685">
        <ele>45.22</ele>
        <time>2019-03-29T09:08:40Z</time>
      </trkpt>
      <trkpt lat="47.92533" lon="-2.5365">
        <ele>42.19</ele>
        <time>2019-03-29T09:08:51Z</time>
      </trkpt>
      <trkpt lat="47.92553" lon="-2.5361">
        <ele>40.58</ele>
        <time>2019-03-29T09:09:02Z</time>
      </trkpt>
      <trkpt lat="47.92565" lon="-2.53581">
        <ele>41.4</ele>
        <time>2019-03-29T09:09:15Z</time>
      </trkpt>
      <trkpt lat="47.92585" lon="-2.5355">
        <ele>42.23</ele>
        <time>2019-03-29T09:09:33Z</time>
      </trkpt>
      <trkpt lat="47.92606" lon="-2.5355">
        <ele>42.26</ele>
        <time>2019-03-29T09:09:47Z</time>
      </trkpt>
      <trkpt lat="47.92628" lon="-2.53547">
        <ele>42.43</ele>
        <time>2019-03-29T09:10:02Z</time>
      </trkpt>
      <trkpt lat="47.92632" lon="-2.53547">
        <ele>42.39</ele>
        <time>2019-03-29T09:10:04Z</time>
      </trkpt>
      <trkpt lat="47.92633" lon="-2.53547">
        <ele>42.4</ele>
        <time>2019-03-29T09:10:05Z</time>
      </trkpt>
      <trkpt lat="47.92635" lon="-2.53546">
        <ele>42.39</ele>
        <time>2019-03-29T09:10:06Z</time>
      </trkpt>
      <trkpt lat="47.92636" lon="-2.53546">
        <ele>42.38</ele>
        <time>2019-03-29T09:10:07Z</time>
      </trkpt>
      <trkpt lat="47.92638" lon="-2.53546">
        <ele>42.38</ele>
        <time>2019-03-29T09:10:08Z</time>
      </trkpt>
      <trkpt lat="47.9264" lon="-2.53546">
        <ele>42.38</ele>
        <time>2019-03-29T09:10:09Z</time>
      </trkpt>
      <trkpt lat="47.92667" lon="-2.53544">
        <ele>42.06</ele>
        <time>2019-03-29T09:10:24Z</time>
      </trkpt>
      <trkpt lat="47.92692" lon="-2.53555">
        <ele>41.6</ele>
        <time>2019-03-29T09:10:37Z</time>
      </trkpt>
      <trkpt lat="47.92722" lon="-2.53567">
        <ele>41.81</ele>
        <time>2019-03-29T09:10:54Z</time>
      </trkpt>
      <trkpt lat="47.92748" lon="-2.5358">
        <ele>42.05</ele>
        <time>2019-03-29T09:11:10Z</time>
      </trkpt>
      <trkpt lat="47.92776" lon="-2.53604">
        <ele>42.81</ele>
        <time>2019-03-29T09:11:27Z</time>
      </trkpt>
      <trkpt lat="47.92802" lon="-2.53636">
        <ele>44</ele>
        <time>2019-03-29T09:11:47Z</time>
      </trkpt>
      <trkpt lat="47.92829" lon="-2.5367">
        <ele>44.52</ele>
        <time>2019-03-29T09:12:08Z</time>
      </trkpt>
      <trkpt lat="47.9285" lon="-2.53697">
        <ele>45.16</ele>
        <time>2019-03-29T09:12:25Z</time>
      </trkpt>
      <trkpt lat="47.92874" lon="-2.53722">
        <ele>45.59</ele>
        <time>2019-03-29T09:12:43Z</time>
      </trkpt>
      <trkpt lat="47.9288" lon="-2.53727">
        <ele>46.14</ele>
        <time>2019-03-29T09:12:52Z</time>
      </trkpt>
      <trkpt lat="47.92881" lon="-2.53728">
        <ele>46.17</ele>
        <time>2019-03-29T09:12:53Z</time>
      </trkpt>
      <trkpt lat="47.92882" lon="-2.53729">
        <ele>46.18</ele>
        <time>2019-03-29T09:12:54Z</time>
      </trkpt>
      <trkpt lat="47.92883" lon="-2.5373">
        <ele>46.18</ele>
        <time>2019-03-29T09:12:55Z</time>
      </trkpt>
      <trkpt lat="47.92885" lon="-2.53731">
        <ele>46.19</ele>
        <time>2019-03-29T09:12:56Z</time>
      </trkpt>
      <trkpt lat="47.92886" lon="-2.53732">
        <ele>46.2</ele>
        <time>2019-03-29T09:12:57Z</time>
      </trkpt>
      <trkpt lat="47.92905" lon="-2.53747">
        <ele>46.73</ele>
        <time>2019-03-29T09:13:10Z</time>
      </trkpt>
      <trkpt lat="47.92926" lon="-2.53745">
        <ele>46.91</ele>
        <time>2019-03-29T09:13:23Z</time>
      </trkpt>
      <trkpt lat="47.92954" lon="-2.53728">
        <ele>45.97</ele>
        <time>2019-03-29T09:13:41Z</time>
      </trkpt>
      <trkpt lat="47.92973" lon="-2.53714">
        <ele>45.22</ele>
        <time>2019-03-29T09:13:54Z</time>
      </trkpt>
      <trkpt lat="47.92982" lon="-2.53706">
        <ele>44.18</ele>
        <time>2019-03-29T09:14:01Z</time>
      </trkpt>
      <trkpt lat="47.92984" lon="-2.53706">
        <ele>43.89</ele>
        <time>2019-03-29T09:14:02Z</time>
      </trkpt>
      <trkpt lat="47.92985" lon="-2.53705">
        <ele>43.89</ele>
        <time>2019-03-29T09:14:03Z</time>
      </trkpt>
      <trkpt lat="47.92986" lon="-2.53704">
        <ele>43.64</ele>
        <time>2019-03-29T09:14:04Z</time>
      </trkpt>
      <trkpt lat="47.92988" lon="-2.53703">
        <ele>43.53</ele>
        <time>2019-03-29T09:14:05Z</time>
      </trkpt>
      <trkpt lat="47.9299" lon="-2.53702">
        <ele>43.45</ele>
        <time>2019-03-29T09:14:06Z</time>
      </trkpt>
      <trkpt lat="47.93016" lon="-2.53703">
        <ele>42.31</ele>
        <time>2019-03-29T09:14:20Z</time>
      </trkpt>
      <trkpt lat="47.93034" lon="-2.53713">
        <ele>41.67</ele>
        <time>2019-03-29T09:14:32Z</time>
      </trkpt>
      <trkpt lat="47.93053" lon="-2.53727">
        <ele>41.56</ele>
        <time>2019-03-29T09:14:46Z</time>
      </trkpt>
      <trkpt lat="47.93069" lon="-2.5374">
        <ele>42.83</ele>
        <time>2019-03-29T09:15:00Z</time>
      </trkpt>
      <trkpt lat="47.93073" lon="-2.53741">
        <ele>43.13</ele>
        <time>2019-03-29T09:15:04Z</time>
      </trkpt>
      <trkpt lat="47.93075" lon="-2.53743">
        <ele>43.4</ele>
        <time>2019-03-29T09:15:10Z</time>
      </trkpt>
      <trkpt lat="47.93085" lon="-2.5375">
        <ele>43.83</ele>
        <time>2019-03-29T09:15:26Z</time>
      </trkpt>
      <trkpt lat="47.93086" lon="-2.53751">
        <ele>43.86</ele>
        <time>2019-03-29T09:15:27Z</time>
      </trkpt>
      <trkpt lat="47.93088" lon="-2.53751">
        <ele>43.91</ele>
        <time>2019-03-29T09:15:28Z</time>
      </trkpt>
      <trkpt lat="47.93089" lon="-2.53752">
        <ele>43.98</ele>
        <time>2019-03-29T09:15:29Z</time>
      </trkpt>
      <trkpt lat="47.93092" lon="-2.53753">
        <ele>44.19</ele>
        <time>2019-03-29T09:15:31Z</time>
      </trkpt>
      <trkpt lat="47.93101" lon="-2.53759">
        <ele>45.44</ele>
        <time>2019-03-29T09:15:38Z</time>
      </trkpt>
      <trkpt lat="47.93102" lon="-2.5376">
        <ele>45.58</ele>
        <time>2019-03-29T09:15:39Z</time>
      </trkpt>
      <trkpt lat="47.9311" lon="-2.53764">
        <ele>46.62</ele>
        <time>2019-03-29T09:15:48Z</time>
      </trkpt>
      <trkpt lat="47.93124" lon="-2.53778">
        <ele>47.64</ele>
        <time>2019-03-29T09:16:07Z</time>
      </trkpt>
      <trkpt lat="47.93125" lon="-2.5378">
        <ele>47.65</ele>
        <time>2019-03-29T09:16:08Z</time>
      </trkpt>
      <trkpt lat="47.93126" lon="-2.53784">
        <ele>47.69</ele>
        <time>2019-03-29T09:16:09Z</time>
      </trkpt>
      <trkpt lat="47.93126" lon="-2.53788">
        <ele>47.76</ele>
        <time>2019-03-29T09:16:10Z</time>
      </trkpt>
      <trkpt lat="47.93125" lon="-2.53792">
        <ele>47.84</ele>
        <time>2019-03-29T09:16:11Z</time>
      </trkpt>
      <trkpt lat="47.93125" lon="-2.53794">
        <ele>47.92</ele>
        <time>2019-03-29T09:16:12Z</time>
      </trkpt>
      <trkpt lat="47.93125" lon="-2.53805">
        <ele>48.28</ele>
        <time>2019-03-29T09:16:17Z</time>
      </trkpt>
      <trkpt lat="47.93125" lon="-2.53807">
        <ele>48.36</ele>
        <time>2019-03-29T09:16:18Z</time>
      </trkpt>
      <trkpt lat="47.93125" lon="-2.53809">
        <ele>48.43</ele>
        <time>2019-03-29T09:16:19Z</time>
      </trkpt>
      <trkpt lat="47.93126" lon="-2.5381">
        <ele>48.51</ele>
        <time>2019-03-29T09:16:20Z</time>
      </trkpt>
      <trkpt lat="47.93126" lon="-2.53813">
        <ele>48.59</ele>
        <time>2019-03-29T09:16:21Z</time>
      </trkpt>
      <trkpt lat="47.93127" lon="-2.53815">
        <ele>48.66</ele>
        <time>2019-03-29T09:16:22Z</time>
      </trkpt>
      <trkpt lat="47.93127" lon="-2.53826">
        <ele>48.96</ele>
        <time>2019-03-29T09:16:27Z</time>
      </trkpt>
      <trkpt lat="47.93127" lon="-2.53828">
        <ele>49.03</ele>
        <time>2019-03-29T09:16:28Z</time>
      </trkpt>
      <trkpt lat="47.93128" lon="-2.5383">
        <ele>49.13</ele>
        <time>2019-03-29T09:16:29Z</time>
      </trkpt>
      <trkpt lat="47.93131" lon="-2.5386">
        <ele>50.17</ele>
        <time>2019-03-29T09:16:41Z</time>
      </trkpt>
      <trkpt lat="47.93132" lon="-2.53892">
        <ele>51.5</ele>
        <time>2019-03-29T09:16:55Z</time>
      </trkpt>
      <trkpt lat="47.93133" lon="-2.53926">
        <ele>52.27</ele>
        <time>2019-03-29T09:17:09Z</time>
      </trkpt>
      <trkpt lat="47.93133" lon="-2.53957">
        <ele>54.13</ele>
        <time>2019-03-29T09:17:24Z</time>
      </trkpt>
      <trkpt lat="47.93133" lon="-2.53978">
        <ele>55.35</ele>
        <time>2019-03-29T09:17:34Z</time>
      </trkpt>
      <trkpt lat="47.93132" lon="-2.5398">
        <ele>55.52</ele>
        <time>2019-03-29T09:17:35Z</time>
      </trkpt>
      <trkpt lat="47.93131" lon="-2.53989">
        <ele>56.76</ele>
        <time>2019-03-29T09:17:41Z</time>
      </trkpt>
      <trkpt lat="47.93133" lon="-2.53991">
        <ele>56.88</ele>
        <time>2019-03-29T09:17:43Z</time>
      </trkpt>
      <trkpt lat="47.93134" lon="-2.53992">
        <ele>57</ele>
        <time>2019-03-29T09:17:44Z</time>
      </trkpt>
      <trkpt lat="47.9315" lon="-2.54008">
        <ele>57.78</ele>
        <time>2019-03-29T09:17:55Z</time>
      </trkpt>
      <trkpt lat="47.9317" lon="-2.54028">
        <ele>57.45</ele>
        <time>2019-03-29T09:18:09Z</time>
      </trkpt>
      <trkpt lat="47.93191" lon="-2.5405">
        <ele>56.61</ele>
        <time>2019-03-29T09:18:24Z</time>
      </trkpt>
      <trkpt lat="47.93208" lon="-2.54066">
        <ele>55.94</ele>
        <time>2019-03-29T09:18:37Z</time>
      </trkpt>
      <trkpt lat="47.93231" lon="-2.54079">
        <ele>55.19</ele>
        <time>2019-03-29T09:18:53Z</time>
      </trkpt>
      <trkpt lat="47.93234" lon="-2.54082">
        <ele>55.03</ele>
        <time>2019-03-29T09:18:59Z</time>
      </trkpt>
      <trkpt lat="47.93239" lon="-2.54083">
        <ele>55.01</ele>
        <time>2019-03-29T09:19:29Z</time>
      </trkpt>
      <trkpt lat="47.9324" lon="-2.54084">
        <ele>54.97</ele>
        <time>2019-03-29T09:19:30Z</time>
      </trkpt>
      <trkpt lat="47.93265" lon="-2.54088">
        <ele>53.98</ele>
        <time>2019-03-29T09:19:46Z</time>
      </trkpt>
      <trkpt lat="47.93287" lon="-2.54091">
        <ele>53.92</ele>
        <time>2019-03-29T09:20:01Z</time>
      </trkpt>
      <trkpt lat="47.93317" lon="-2.54107">
        <ele>53.84</ele>
        <time>2019-03-29T09:20:20Z</time>
      </trkpt>
      <trkpt lat="47.93337" lon="-2.5412">
        <ele>54.28</ele>
        <time>2019-03-29T09:20:33Z</time>
      </trkpt>
      <trkpt lat="47.93372" lon="-2.5414">
        <ele>55.04</ele>
        <time>2019-03-29T09:20:55Z</time>
      </trkpt>
      <trkpt lat="47.93401" lon="-2.5416">
        <ele>55.42</ele>
        <time>2019-03-29T09:21:14Z</time>
      </trkpt>
      <trkpt lat="47.9343" lon="-2.5418">
        <ele>55.89</ele>
        <time>2019-03-29T09:21:33Z</time>
      </trkpt>
      <trkpt lat="47.93461" lon="-2.54201">
        <ele>56.12</ele>
        <time>2019-03-29T09:21:54Z</time>
      </trkpt>
      <trkpt lat="47.93489" lon="-2.5422">
        <ele>56.1</ele>
        <time>2019-03-29T09:22:12Z</time>
      </trkpt>
      <trkpt lat="47.93514" lon="-2.54236">
        <ele>56.48</ele>
        <time>2019-03-29T09:22:28Z</time>
      </trkpt>
      <trkpt lat="47.93539" lon="-2.54253">
        <ele>56.85</ele>
        <time>2019-03-29T09:22:44Z</time>
      </trkpt>
      <trkpt lat="47.93568" lon="-2.54276">
        <ele>57.44</ele>
        <time>2019-03-29T09:23:03Z</time>
      </trkpt>
      <trkpt lat="47.93603" lon="-2.54297">
        <ele>57.36</ele>
        <time>2019-03-29T09:23:24Z</time>
      </trkpt>
      <trkpt lat="47.93635" lon="-2.54317">
        <ele>57.41</ele>
        <time>2019-03-29T09:23:43Z</time>
      </trkpt>
      <trkpt lat="47.93667" lon="-2.54339">
        <ele>57.32</ele>
        <time>2019-03-29T09:24:03Z</time>
      </trkpt>
      <trkpt lat="47.93696" lon="-2.54358">
        <ele>57.73</ele>
        <time>2019-03-29T09:24:21Z</time>
      </trkpt>
      <trkpt lat="47.93728" lon="-2.54379">
        <ele>58.1</ele>
        <time>2019-03-29T09:24:41Z</time>
      </trkpt>
      <trkpt lat="47.93755" lon="-2.54399">
        <ele>58.38</ele>
        <time>2019-03-29T09:24:59Z</time>
      </trkpt>
      <trkpt lat="47.9378" lon="-2.54415">
        <ele>59.23</ele>
        <time>2019-03-29T09:25:15Z</time>
      </trkpt>
      <trkpt lat="47.93803" lon="-2.54432">
        <ele>59.66</ele>
        <time>2019-03-29T09:25:30Z</time>
      </trkpt>
      <trkpt lat="47.93831" lon="-2.54451">
        <ele>60.86</ele>
        <time>2019-03-29T09:25:48Z</time>
      </trkpt>
      <trkpt lat="47.93863" lon="-2.54471">
        <ele>62.5</ele>
        <time>2019-03-29T09:26:09Z</time>
      </trkpt>
      <trkpt lat="47.93887" lon="-2.54487">
        <ele>62.93</ele>
        <time>2019-03-29T09:26:24Z</time>
      </trkpt>
      <trkpt lat="47.93913" lon="-2.54503">
        <ele>62.48</ele>
        <time>2019-03-29T09:26:40Z</time>
      </trkpt>
      <trkpt lat="47.9394" lon="-2.54511">
        <ele>60.52</ele>
        <time>2019-03-29T09:26:56Z</time>
      </trkpt>
      <trkpt lat="47.93975" lon="-2.54512">
        <ele>58.56</ele>
        <time>2019-03-29T09:27:16Z</time>
      </trkpt>
      <trkpt lat="47.94002" lon="-2.54508">
        <ele>60.08</ele>
        <time>2019-03-29T09:27:33Z</time>
      </trkpt>
      <trkpt lat="47.94024" lon="-2.54506">
        <ele>62.8</ele>
        <time>2019-03-29T09:27:47Z</time>
      </trkpt>
      <trkpt lat="47.94052" lon="-2.54509">
        <ele>65.94</ele>
        <time>2019-03-29T09:28:05Z</time>
      </trkpt>
      <trkpt lat="47.94074" lon="-2.54516">
        <ele>67.37</ele>
        <time>2019-03-29T09:28:21Z</time>
      </trkpt>
      <trkpt lat="47.94096" lon="-2.54525">
        <ele>68.64</ele>
        <time>2019-03-29T09:28:36Z</time>
      </trkpt>
      <trkpt lat="47.94122" lon="-2.54531">
        <ele>69.89</ele>
        <time>2019-03-29T09:28:51Z</time>
      </trkpt>
      <trkpt lat="47.9414" lon="-2.54539">
        <ele>71.11</ele>
        <time>2019-03-29T09:29:04Z</time>
      </trkpt>
      <trkpt lat="47.94166" lon="-2.54548">
        <ele>72.07</ele>
        <time>2019-03-29T09:29:19Z</time>
      </trkpt>
      <trkpt lat="47.94195" lon="-2.54555">
        <ele>73.5</ele>
        <time>2019-03-29T09:29:36Z</time>
      </trkpt>
      <trkpt lat="47.94228" lon="-2.54567">
        <ele>74.56</ele>
        <time>2019-03-29T09:29:56Z</time>
      </trkpt>
      <trkpt lat="47.94254" lon="-2.54584">
        <ele>74.92</ele>
        <time>2019-03-29T09:30:13Z</time>
      </trkpt>
      <trkpt lat="47.94272" lon="-2.54609">
        <ele>74.5</ele>
        <time>2019-03-29T09:30:29Z</time>
      </trkpt>
      <trkpt lat="47.9429" lon="-2.54628">
        <ele>73.73</ele>
        <time>2019-03-29T09:30:45Z</time>
      </trkpt>
      <trkpt lat="47.94294" lon="-2.54621">
        <ele>73.31</ele>
        <time>2019-03-29T09:31:05Z</time>
      </trkpt>
      <trkpt lat="47.94294" lon="-2.54619">
        <ele>73.26</ele>
        <time>2019-03-29T09:31:06Z</time>
      </trkpt>
      <trkpt lat="47.94294" lon="-2.54616">
        <ele>73.21</ele>
        <time>2019-03-29T09:31:07Z</time>
      </trkpt>
      <trkpt lat="47.94299" lon="-2.54588">
        <ele>72.8</ele>
        <time>2019-03-29T09:31:20Z</time>
      </trkpt>
      <trkpt lat="47.94305" lon="-2.54557">
        <ele>73.15</ele>
        <time>2019-03-29T09:31:34Z</time>
      </trkpt>
      <trkpt lat="47.94307" lon="-2.54522">
        <ele>71.73</ele>
        <time>2019-03-29T09:31:49Z</time>
      </trkpt>
      <trkpt lat="47.94306" lon="-2.54517">
        <ele>71.5</ele>
        <time>2019-03-29T09:31:51Z</time>
      </trkpt>
      <trkpt lat="47.94307" lon="-2.54514">
        <ele>71.37</ele>
        <time>2019-03-29T09:31:52Z</time>
      </trkpt>
      <trkpt lat="47.943" lon="-2.54474">
        <ele>68.62</ele>
        <time>2019-03-29T09:32:08Z</time>
      </trkpt>
      <trkpt lat="47.94292" lon="-2.54439">
        <ele>65.94</ele>
        <time>2019-03-29T09:32:22Z</time>
      </trkpt>
      <trkpt lat="47.94285" lon="-2.544">
        <ele>62.8</ele>
        <time>2019-03-29T09:32:37Z</time>
      </trkpt>
      <trkpt lat="47.94284" lon="-2.54398">
        <ele>62.68</ele>
        <time>2019-03-29T09:32:38Z</time>
      </trkpt>
      <trkpt lat="47.94283" lon="-2.54395">
        <ele>62.57</ele>
        <time>2019-03-29T09:32:39Z</time>
      </trkpt>
      <trkpt lat="47.94283" lon="-2.54393">
        <ele>62.45</ele>
        <time>2019-03-29T09:32:40Z</time>
      </trkpt>
      <trkpt lat="47.94282" lon="-2.5439">
        <ele>62.34</ele>
        <time>2019-03-29T09:32:41Z</time>
      </trkpt>
      <trkpt lat="47.94282" lon="-2.54387">
        <ele>62.24</ele>
        <time>2019-03-29T09:32:42Z</time>
      </trkpt>
      <trkpt lat="47.94281" lon="-2.54385">
        <ele>62.12</ele>
        <time>2019-03-29T09:32:43Z</time>
      </trkpt>
      <trkpt lat="47.94274" lon="-2.54343">
        <ele>60.77</ele>
        <time>2019-03-29T09:33:00Z</time>
      </trkpt>
      <trkpt lat="47.94267" lon="-2.5431">
        <ele>60.79</ele>
        <time>2019-03-29T09:33:15Z</time>
      </trkpt>
      <trkpt lat="47.94244" lon="-2.54297">
        <ele>60.11</ele>
        <time>2019-03-29T09:33:29Z</time>
      </trkpt>
      <trkpt lat="47.94222" lon="-2.54292">
        <ele>59.06</ele>
        <time>2019-03-29T09:33:41Z</time>
      </trkpt>
      <trkpt lat="47.94191" lon="-2.54285">
        <ele>57.47</ele>
        <time>2019-03-29T09:33:59Z</time>
      </trkpt>
      <trkpt lat="47.94162" lon="-2.54279">
        <ele>56.49</ele>
        <time>2019-03-29T09:34:15Z</time>
      </trkpt>
      <trkpt lat="47.94135" lon="-2.54276">
        <ele>55.56</ele>
        <time>2019-03-29T09:34:31Z</time>
      </trkpt>
      <trkpt lat="47.94114" lon="-2.54272">
        <ele>54.66</ele>
        <time>2019-03-29T09:34:43Z</time>
      </trkpt>
      <trkpt lat="47.9411" lon="-2.54273">
        <ele>54.37</ele>
        <time>2019-03-29T09:34:49Z</time>
      </trkpt>
      <trkpt lat="47.94106" lon="-2.54268">
        <ele>54.32</ele>
        <time>2019-03-29T09:34:55Z</time>
      </trkpt>
      <trkpt lat="47.94105" lon="-2.54266">
        <ele>54.32</ele>
        <time>2019-03-29T09:34:56Z</time>
      </trkpt>
      <trkpt lat="47.94104" lon="-2.54262">
        <ele>54.33</ele>
        <time>2019-03-29T09:34:57Z</time>
      </trkpt>
      <trkpt lat="47.94102" lon="-2.54222">
        <ele>54.12</ele>
        <time>2019-03-29T09:35:11Z</time>
      </trkpt>
      <trkpt lat="47.94105" lon="-2.54181">
        <ele>53.24</ele>
        <time>2019-03-29T09:35:28Z</time>
      </trkpt>
      <trkpt lat="47.94106" lon="-2.54148">
        <ele>50.78</ele>
        <time>2019-03-29T09:35:43Z</time>
      </trkpt>
      <trkpt lat="47.94111" lon="-2.54111">
        <ele>47.71</ele>
        <time>2019-03-29T09:35:57Z</time>
      </trkpt>
      <trkpt lat="47.94131" lon="-2.54101">
        <ele>45.45</ele>
        <time>2019-03-29T09:36:11Z</time>
      </trkpt>
      <trkpt lat="47.94133" lon="-2.54101">
        <ele>45.42</ele>
        <time>2019-03-29T09:36:12Z</time>
      </trkpt>
      <trkpt lat="47.9416" lon="-2.54102">
        <ele>45.45</ele>
        <time>2019-03-29T09:36:28Z</time>
      </trkpt>
      <trkpt lat="47.94187" lon="-2.54105">
        <ele>45.86</ele>
        <time>2019-03-29T09:36:45Z</time>
      </trkpt>
      <trkpt lat="47.94212" lon="-2.54109">
        <ele>46.39</ele>
        <time>2019-03-29T09:36:59Z</time>
      </trkpt>
      <trkpt lat="47.94236" lon="-2.54112">
        <ele>47</ele>
        <time>2019-03-29T09:37:14Z</time>
      </trkpt>
      <trkpt lat="47.94263" lon="-2.54114">
        <ele>47.5</ele>
        <time>2019-03-29T09:37:31Z</time>
      </trkpt>
      <trkpt lat="47.94282" lon="-2.54115">
        <ele>47.6</ele>
        <time>2019-03-29T09:37:44Z</time>
      </trkpt>
      <trkpt lat="47.94306" lon="-2.54118">
        <ele>48.32</ele>
        <time>2019-03-29T09:38:00Z</time>
      </trkpt>
      <trkpt lat="47.94327" lon="-2.54123">
        <ele>49.13</ele>
        <time>2019-03-29T09:38:14Z</time>
      </trkpt>
      <trkpt lat="47.94346" lon="-2.54125">
        <ele>49.76</ele>
        <time>2019-03-29T09:38:28Z</time>
      </trkpt>
      <trkpt lat="47.94371" lon="-2.54129">
        <ele>50.39</ele>
        <time>2019-03-29T09:38:45Z</time>
      </trkpt>
      <trkpt lat="47.94397" lon="-2.54138">
        <ele>50.73</ele>
        <time>2019-03-29T09:39:01Z</time>
      </trkpt>
      <trkpt lat="47.94419" lon="-2.54148">
        <ele>51.07</ele>
        <time>2019-03-29T09:39:15Z</time>
      </trkpt>
      <trkpt lat="47.9444" lon="-2.5416">
        <ele>51.47</ele>
        <time>2019-03-29T09:39:29Z</time>
      </trkpt>
      <trkpt lat="47.94463" lon="-2.54171">
        <ele>52.25</ele>
        <time>2019-03-29T09:39:43Z</time>
      </trkpt>
      <trkpt lat="47.94479" lon="-2.54183">
        <ele>52.49</ele>
        <time>2019-03-29T09:39:56Z</time>
      </trkpt>
      <trkpt lat="47.94482" lon="-2.54186">
        <ele>52.57</ele>
        <time>2019-03-29T09:39:58Z</time>
      </trkpt>
      <trkpt lat="47.94486" lon="-2.54189">
        <ele>52.69</ele>
        <time>2019-03-29T09:40:01Z</time>
      </trkpt>
      <trkpt lat="47.94488" lon="-2.54189">
        <ele>52.7</ele>
        <time>2019-03-29T09:40:02Z</time>
      </trkpt>
      <trkpt lat="47.9449" lon="-2.5419">
        <ele>52.75</ele>
        <time>2019-03-29T09:40:03Z</time>
      </trkpt>
      <trkpt lat="47.94518" lon="-2.54208">
        <ele>53.12</ele>
        <time>2019-03-29T09:40:18Z</time>
      </trkpt>
      <trkpt lat="47.94545" lon="-2.54225">
        <ele>53.27</ele>
        <time>2019-03-29T09:40:33Z</time>
      </trkpt>
      <trkpt lat="47.94565" lon="-2.54237">
        <ele>53.23</ele>
        <time>2019-03-29T09:40:45Z</time>
      </trkpt>
      <trkpt lat="47.94583" lon="-2.54247">
        <ele>53.25</ele>
        <time>2019-03-29T09:40:56Z</time>
      </trkpt>
      <trkpt lat="47.94585" lon="-2.54249">
        <ele>53.25</ele>
        <time>2019-03-29T09:40:57Z</time>
      </trkpt>
      <trkpt lat="47.94587" lon="-2.5425">
        <ele>53.25</ele>
        <time>2019-03-29T09:40:58Z</time>
      </trkpt>
      <trkpt lat="47.94604" lon="-2.54262">
        <ele>53.18</ele>
        <time>2019-03-29T09:41:09Z</time>
      </trkpt>
      <trkpt lat="47.94626" lon="-2.54278">
        <ele>53.19</ele>
        <time>2019-03-29T09:41:23Z</time>
      </trkpt>
      <trkpt lat="47.94646" lon="-2.54289">
        <ele>53.1</ele>
        <time>2019-03-29T09:41:35Z</time>
      </trkpt>
      <trkpt lat="47.94652" lon="-2.54293">
        <ele>53.11</ele>
        <time>2019-03-29T09:41:39Z</time>
      </trkpt>
      <trkpt lat="47.94667" lon="-2.54303">
        <ele>53.25</ele>
        <time>2019-03-29T09:41:49Z</time>
      </trkpt>
      <trkpt lat="47.94689" lon="-2.54315">
        <ele>53.45</ele>
        <time>2019-03-29T09:42:03Z</time>
      </trkpt>
      <trkpt lat="47.9471" lon="-2.54327">
        <ele>53.37</ele>
        <time>2019-03-29T09:42:17Z</time>
      </trkpt>
      <trkpt lat="47.94734" lon="-2.54342">
        <ele>53.6</ele>
        <time>2019-03-29T09:42:31Z</time>
      </trkpt>
      <trkpt lat="47.94756" lon="-2.54356">
        <ele>53.81</ele>
        <time>2019-03-29T09:42:43Z</time>
      </trkpt>
      <trkpt lat="47.94777" lon="-2.54369">
        <ele>53.91</ele>
        <time>2019-03-29T09:42:55Z</time>
      </trkpt>
      <trkpt lat="47.94779" lon="-2.5437">
        <ele>53.9</ele>
        <time>2019-03-29T09:42:56Z</time>
      </trkpt>
      <trkpt lat="47.94781" lon="-2.54372">
        <ele>53.89</ele>
        <time>2019-03-29T09:42:57Z</time>
      </trkpt>
      <trkpt lat="47.94798" lon="-2.54388">
        <ele>53.72</ele>
        <time>2019-03-29T09:43:10Z</time>
      </trkpt>
      <trkpt lat="47.94819" lon="-2.5441">
        <ele>53.77</ele>
        <time>2019-03-29T09:43:25Z</time>
      </trkpt>
      <trkpt lat="47.94834" lon="-2.54428">
        <ele>54.03</ele>
        <time>2019-03-29T09:43:37Z</time>
      </trkpt>
      <trkpt lat="47.94851" lon="-2.54452">
        <ele>54.3</ele>
        <time>2019-03-29T09:43:52Z</time>
      </trkpt>
      <trkpt lat="47.94863" lon="-2.54471">
        <ele>54.38</ele>
        <time>2019-03-29T09:44:03Z</time>
      </trkpt>
      <trkpt lat="47.94878" lon="-2.54495">
        <ele>54.45</ele>
        <time>2019-03-29T09:44:16Z</time>
      </trkpt>
      <trkpt lat="47.94888" lon="-2.54513">
        <ele>54.32</ele>
        <time>2019-03-29T09:44:26Z</time>
      </trkpt>
      <trkpt lat="47.94888" lon="-2.54515">
        <ele>54.28</ele>
        <time>2019-03-29T09:44:27Z</time>
      </trkpt>
      <trkpt lat="47.94889" lon="-2.54517">
        <ele>54.26</ele>
        <time>2019-03-29T09:44:28Z</time>
      </trkpt>
      <trkpt lat="47.9489" lon="-2.54518">
        <ele>54.26</ele>
        <time>2019-03-29T09:44:29Z</time>
      </trkpt>
      <trkpt lat="47.94891" lon="-2.5452">
        <ele>54.27</ele>
        <time>2019-03-29T09:44:30Z</time>
      </trkpt>
      <trkpt lat="47.94892" lon="-2.54521">
        <ele>54.29</ele>
        <time>2019-03-29T09:44:31Z</time>
      </trkpt>
      <trkpt lat="47.94895" lon="-2.54525">
        <ele>54.42</ele>
        <time>2019-03-29T09:44:37Z</time>
      </trkpt>
      <trkpt lat="47.94898" lon="-2.54525">
        <ele>54.12</ele>
        <time>2019-03-29T09:44:44Z</time>
      </trkpt>
      <trkpt lat="47.94902" lon="-2.54523">
        <ele>53.81</ele>
        <time>2019-03-29T09:44:47Z</time>
      </trkpt>
      <trkpt lat="47.94903" lon="-2.54517">
        <ele>52.94</ele>
        <time>2019-03-29T09:44:51Z</time>
      </trkpt>
      <trkpt lat="47.94902" lon="-2.54509">
        <ele>51.5</ele>
        <time>2019-03-29T09:44:59Z</time>
      </trkpt>
      <trkpt lat="47.94901" lon="-2.54536">
        <ele>54.12</ele>
        <time>2019-03-29T09:46:55Z</time>
      </trkpt>
      <trkpt lat="47.94903" lon="-2.54541">
        <ele>53.99</ele>
        <time>2019-03-29T09:46:58Z</time>
      </trkpt>
      <trkpt lat="47.94919" lon="-2.54573">
        <ele>53.99</ele>
        <time>2019-03-29T09:47:17Z</time>
      </trkpt>
      <trkpt lat="47.94922" lon="-2.54579">
        <ele>53.99</ele>
        <time>2019-03-29T09:47:20Z</time>
      </trkpt>
      <trkpt lat="47.94931" lon="-2.54597">
        <ele>53.94</ele>
        <time>2019-03-29T09:47:32Z</time>
      </trkpt>
      <trkpt lat="47.94934" lon="-2.54604">
        <ele>53.88</ele>
        <time>2019-03-29T09:47:36Z</time>
      </trkpt>
      <trkpt lat="47.94945" lon="-2.54629">
        <ele>54</ele>
        <time>2019-03-29T09:47:50Z</time>
      </trkpt>
      <trkpt lat="47.94958" lon="-2.54654">
        <ele>53.89</ele>
        <time>2019-03-29T09:48:04Z</time>
      </trkpt>
      <trkpt lat="47.94977" lon="-2.54695">
        <ele>54.11</ele>
        <time>2019-03-29T09:48:25Z</time>
      </trkpt>
      <trkpt lat="47.94986" lon="-2.54711">
        <ele>54.06</ele>
        <time>2019-03-29T09:48:34Z</time>
      </trkpt>
      <trkpt lat="47.94989" lon="-2.54717">
        <ele>54.14</ele>
        <time>2019-03-29T09:48:38Z</time>
      </trkpt>
      <trkpt lat="47.9499" lon="-2.54719">
        <ele>54.16</ele>
        <time>2019-03-29T09:48:40Z</time>
      </trkpt>
      <trkpt lat="47.94996" lon="-2.54721">
        <ele>54.02</ele>
        <time>2019-03-29T09:48:47Z</time>
      </trkpt>
      <trkpt lat="47.95" lon="-2.54727">
        <ele>54.15</ele>
        <time>2019-03-29T09:48:56Z</time>
      </trkpt>
      <trkpt lat="47.95002" lon="-2.5473">
        <ele>54.13</ele>
        <time>2019-03-29T09:48:58Z</time>
      </trkpt>
      <trkpt lat="47.95004" lon="-2.54734">
        <ele>54.11</ele>
        <time>2019-03-29T09:49:01Z</time>
      </trkpt>
      <trkpt lat="47.95007" lon="-2.54741">
        <ele>53.98</ele>
        <time>2019-03-29T09:49:05Z</time>
      </trkpt>
      <trkpt lat="47.95014" lon="-2.54748">
        <ele>53.53</ele>
        <time>2019-03-29T09:49:11Z</time>
      </trkpt>
      <trkpt lat="47.9503" lon="-2.54762">
        <ele>52.41</ele>
        <time>2019-03-29T09:49:23Z</time>
      </trkpt>
      <trkpt lat="47.95045" lon="-2.54778">
        <ele>51.38</ele>
        <time>2019-03-29T09:49:37Z</time>
      </trkpt>
      <trkpt lat="47.95054" lon="-2.54782">
        <ele>50.66</ele>
        <time>2019-03-29T09:49:48Z</time>
      </trkpt>
      <trkpt lat="47.95063" lon="-2.54787">
        <ele>50.71</ele>
        <time>2019-03-29T09:50:26Z</time>
      </trkpt>
      <trkpt lat="47.9508" lon="-2.54802">
        <ele>50.17</ele>
        <time>2019-03-29T09:50:41Z</time>
      </trkpt>
      <trkpt lat="47.95089" lon="-2.54809">
        <ele>49.41</ele>
        <time>2019-03-29T09:50:48Z</time>
      </trkpt>
      <trkpt lat="47.95094" lon="-2.54813">
        <ele>49.05</ele>
        <time>2019-03-29T09:50:52Z</time>
      </trkpt>
      <trkpt lat="47.95115" lon="-2.54832">
        <ele>47.93</ele>
        <time>2019-03-29T09:51:09Z</time>
      </trkpt>
      <trkpt lat="47.95133" lon="-2.54848">
        <ele>46.87</ele>
        <time>2019-03-29T09:51:24Z</time>
      </trkpt>
      <trkpt lat="47.95149" lon="-2.54864">
        <ele>45.58</ele>
        <time>2019-03-29T09:51:39Z</time>
      </trkpt>
      <trkpt lat="47.9516" lon="-2.54873">
        <ele>45.08</ele>
        <time>2019-03-29T09:51:50Z</time>
      </trkpt>
      <trkpt lat="47.95163" lon="-2.54875">
        <ele>44.92</ele>
        <time>2019-03-29T09:51:53Z</time>
      </trkpt>
      <trkpt lat="47.95183" lon="-2.54891">
        <ele>43.58</ele>
        <time>2019-03-29T09:52:09Z</time>
      </trkpt>
      <trkpt lat="47.952" lon="-2.54894">
        <ele>43.08</ele>
        <time>2019-03-29T09:52:20Z</time>
      </trkpt>
      <trkpt lat="47.95214" lon="-2.54888">
        <ele>42.75</ele>
        <time>2019-03-29T09:52:31Z</time>
      </trkpt>
      <trkpt lat="47.95214" lon="-2.54887">
        <ele>42.77</ele>
        <time>2019-03-29T09:52:32Z</time>
      </trkpt>
      <trkpt lat="47.95218" lon="-2.54882">
        <ele>43.12</ele>
        <time>2019-03-29T09:52:38Z</time>
      </trkpt>
      <trkpt lat="47.95222" lon="-2.54878">
        <ele>43.4</ele>
        <time>2019-03-29T09:52:44Z</time>
      </trkpt>
      <trkpt lat="47.95232" lon="-2.54871">
        <ele>44.02</ele>
        <time>2019-03-29T09:53:16Z</time>
      </trkpt>
      <trkpt lat="47.95242" lon="-2.54874">
        <ele>44.19</ele>
        <time>2019-03-29T09:53:22Z</time>
      </trkpt>
      <trkpt lat="47.95245" lon="-2.54874">
        <ele>44.22</ele>
        <time>2019-03-29T09:53:23Z</time>
      </trkpt>
      <trkpt lat="47.95247" lon="-2.54873">
        <ele>44.33</ele>
        <time>2019-03-29T09:53:24Z</time>
      </trkpt>
      <trkpt lat="47.95248" lon="-2.54872">
        <ele>44.43</ele>
        <time>2019-03-29T09:53:25Z</time>
      </trkpt>
      <trkpt lat="47.95251" lon="-2.54871">
        <ele>44.76</ele>
        <time>2019-03-29T09:53:30Z</time>
      </trkpt>
      <trkpt lat="47.95247" lon="-2.54874">
        <ele>44.81</ele>
        <time>2019-03-29T09:53:36Z</time>
      </trkpt>
      <trkpt lat="47.95234" lon="-2.54877">
        <ele>44.4</ele>
        <time>2019-03-29T09:53:49Z</time>
      </trkpt>
      <trkpt lat="47.95232" lon="-2.54879">
        <ele>44.24</ele>
        <time>2019-03-29T09:53:52Z</time>
      </trkpt>
      <trkpt lat="47.95228" lon="-2.54884">
        <ele>43.97</ele>
        <time>2019-03-29T09:53:58Z</time>
      </trkpt>
      <trkpt lat="47.95228" lon="-2.54888">
        <ele>43.86</ele>
        <time>2019-03-29T09:54:00Z</time>
      </trkpt>
      <trkpt lat="47.95227" lon="-2.54896">
        <ele>43.31</ele>
        <time>2019-03-29T09:54:07Z</time>
      </trkpt>
      <trkpt lat="47.95226" lon="-2.54898">
        <ele>43.27</ele>
        <time>2019-03-29T09:54:08Z</time>
      </trkpt>
      <trkpt lat="47.95225" lon="-2.54903">
        <ele>43.16</ele>
        <time>2019-03-29T09:54:11Z</time>
      </trkpt>
      <trkpt lat="47.95225" lon="-2.54905">
        <ele>43.09</ele>
        <time>2019-03-29T09:54:12Z</time>
      </trkpt>
      <trkpt lat="47.95225" lon="-2.54908">
        <ele>43.01</ele>
        <time>2019-03-29T09:54:13Z</time>
      </trkpt>
      <trkpt lat="47.95225" lon="-2.54913">
        <ele>42.8</ele>
        <time>2019-03-29T09:54:15Z</time>
      </trkpt>
      <trkpt lat="47.95224" lon="-2.54915">
        <ele>42.67</ele>
        <time>2019-03-29T09:54:16Z</time>
      </trkpt>
      <trkpt lat="47.95224" lon="-2.54917">
        <ele>42.54</ele>
        <time>2019-03-29T09:54:17Z</time>
      </trkpt>
      <trkpt lat="47.95223" lon="-2.5492">
        <ele>42.43</ele>
        <time>2019-03-29T09:54:18Z</time>
      </trkpt>
      <trkpt lat="47.95223" lon="-2.54924">
        <ele>42.17</ele>
        <time>2019-03-29T09:54:20Z</time>
      </trkpt>
      <trkpt lat="47.95222" lon="-2.54927">
        <ele>42.05</ele>
        <time>2019-03-29T09:54:22Z</time>
      </trkpt>
      <trkpt lat="47.95222" lon="-2.54929">
        <ele>41.99</ele>
        <time>2019-03-29T09:54:23Z</time>
      </trkpt>
      <trkpt lat="47.95221" lon="-2.54932">
        <ele>41.95</ele>
        <time>2019-03-29T09:54:24Z</time>
      </trkpt>
      <trkpt lat="47.95221" lon="-2.54934">
        <ele>41.91</ele>
        <time>2019-03-29T09:54:25Z</time>
      </trkpt>
      <trkpt lat="47.95222" lon="-2.54935">
        <ele>41.88</ele>
        <time>2019-03-29T09:54:26Z</time>
      </trkpt>
      <trkpt lat="47.95221" lon="-2.54954">
        <ele>41.6</ele>
        <time>2019-03-29T09:54:37Z</time>
      </trkpt>
      <trkpt lat="47.95221" lon="-2.54956">
        <ele>41.58</ele>
        <time>2019-03-29T09:54:38Z</time>
      </trkpt>
      <trkpt lat="47.9522" lon="-2.54958">
        <ele>41.57</ele>
        <time>2019-03-29T09:54:39Z</time>
      </trkpt>
      <trkpt lat="47.95219" lon="-2.5496">
        <ele>41.56</ele>
        <time>2019-03-29T09:54:40Z</time>
      </trkpt>
      <trkpt lat="47.95219" lon="-2.54963">
        <ele>41.56</ele>
        <time>2019-03-29T09:54:41Z</time>
      </trkpt>
      <trkpt lat="47.95218" lon="-2.54965">
        <ele>41.58</ele>
        <time>2019-03-29T09:54:42Z</time>
      </trkpt>
      <trkpt lat="47.95218" lon="-2.54967">
        <ele>41.66</ele>
        <time>2019-03-29T09:54:43Z</time>
      </trkpt>
      <trkpt lat="47.95217" lon="-2.54969">
        <ele>41.66</ele>
        <time>2019-03-29T09:54:44Z</time>
      </trkpt>
      <trkpt lat="47.95216" lon="-2.54971">
        <ele>41.79</ele>
        <time>2019-03-29T09:54:45Z</time>
      </trkpt>
      <trkpt lat="47.95214" lon="-2.54982">
        <ele>42.11</ele>
        <time>2019-03-29T09:54:50Z</time>
      </trkpt>
      <trkpt lat="47.95216" lon="-2.54985">
        <ele>42.19</ele>
        <time>2019-03-29T09:54:53Z</time>
      </trkpt>
      <trkpt lat="47.95218" lon="-2.54985">
        <ele>42.2</ele>
        <time>2019-03-29T09:54:54Z</time>
      </trkpt>
      <trkpt lat="47.95219" lon="-2.54986">
        <ele>42.19</ele>
        <time>2019-03-29T09:54:55Z</time>
      </trkpt>
      <trkpt lat="47.95234" lon="-2.5499">
        <ele>42.06</ele>
        <time>2019-03-29T09:55:06Z</time>
      </trkpt>
      <trkpt lat="47.95241" lon="-2.55007">
        <ele>42.36</ele>
        <time>2019-03-29T09:55:16Z</time>
      </trkpt>
      <trkpt lat="47.95246" lon="-2.5502">
        <ele>42.33</ele>
        <time>2019-03-29T09:55:29Z</time>
      </trkpt>
      <trkpt lat="47.95247" lon="-2.55027">
        <ele>42.16</ele>
        <time>2019-03-29T09:55:37Z</time>
      </trkpt>
      <trkpt lat="47.95249" lon="-2.55058">
        <ele>43.06</ele>
        <time>2019-03-29T09:56:16Z</time>
      </trkpt>
      <trkpt lat="47.95249" lon="-2.5506">
        <ele>43.08</ele>
        <time>2019-03-29T09:56:17Z</time>
      </trkpt>
      <trkpt lat="47.95249" lon="-2.55062">
        <ele>43.1</ele>
        <time>2019-03-29T09:56:18Z</time>
      </trkpt>
      <trkpt lat="47.95248" lon="-2.55065">
        <ele>43.11</ele>
        <time>2019-03-29T09:56:19Z</time>
      </trkpt>
      <trkpt lat="47.95247" lon="-2.55067">
        <ele>43.11</ele>
        <time>2019-03-29T09:56:20Z</time>
      </trkpt>
      <trkpt lat="47.95245" lon="-2.55089">
        <ele>42.9</ele>
        <time>2019-03-29T09:56:29Z</time>
      </trkpt>
      <trkpt lat="47.95246" lon="-2.55091">
        <ele>42.83</ele>
        <time>2019-03-29T09:56:30Z</time>
      </trkpt>
      <trkpt lat="47.95248" lon="-2.55123">
        <ele>42.8</ele>
        <time>2019-03-29T09:56:44Z</time>
      </trkpt>
      <trkpt lat="47.95246" lon="-2.55159">
        <ele>42.83</ele>
        <time>2019-03-29T09:56:59Z</time>
      </trkpt>
      <trkpt lat="47.95235" lon="-2.55198">
        <ele>43.47</ele>
        <time>2019-03-29T09:57:14Z</time>
      </trkpt>
      <trkpt lat="47.95216" lon="-2.55228">
        <ele>44.43</ele>
        <time>2019-03-29T09:57:29Z</time>
      </trkpt>
      <trkpt lat="47.95205" lon="-2.55255">
        <ele>45.24</ele>
        <time>2019-03-29T09:57:42Z</time>
      </trkpt>
      <trkpt lat="47.95205" lon="-2.55257">
        <ele>45.36</ele>
        <time>2019-03-29T09:57:43Z</time>
      </trkpt>
      <trkpt lat="47.95204" lon="-2.55259">
        <ele>45.41</ele>
        <time>2019-03-29T09:57:44Z</time>
      </trkpt>
      <trkpt lat="47.95193" lon="-2.55292">
        <ele>46.29</ele>
        <time>2019-03-29T09:58:01Z</time>
      </trkpt>
      <trkpt lat="47.9519" lon="-2.55314">
        <ele>46.73</ele>
        <time>2019-03-29T09:58:14Z</time>
      </trkpt>
      <trkpt lat="47.9519" lon="-2.55319">
        <ele>46.73</ele>
        <time>2019-03-29T09:58:17Z</time>
      </trkpt>
      <trkpt lat="47.9519" lon="-2.55321">
        <ele>46.74</ele>
        <time>2019-03-29T09:58:18Z</time>
      </trkpt>
      <trkpt lat="47.9519" lon="-2.55323">
        <ele>46.75</ele>
        <time>2019-03-29T09:58:19Z</time>
      </trkpt>
      <trkpt lat="47.9519" lon="-2.55335">
        <ele>46.56</ele>
        <time>2019-03-29T09:58:25Z</time>
      </trkpt>
      <trkpt lat="47.95191" lon="-2.55338">
        <ele>46.55</ele>
        <time>2019-03-29T09:58:26Z</time>
      </trkpt>
      <trkpt lat="47.95191" lon="-2.5534">
        <ele>46.53</ele>
        <time>2019-03-29T09:58:27Z</time>
      </trkpt>
      <trkpt lat="47.95191" lon="-2.55343">
        <ele>46.51</ele>
        <time>2019-03-29T09:58:28Z</time>
      </trkpt>
      <trkpt lat="47.95191" lon="-2.55346">
        <ele>46.5</ele>
        <time>2019-03-29T09:58:29Z</time>
      </trkpt>
      <trkpt lat="47.95191" lon="-2.55349">
        <ele>46.49</ele>
        <time>2019-03-29T09:58:30Z</time>
      </trkpt>
      <trkpt lat="47.95191" lon="-2.55351">
        <ele>46.48</ele>
        <time>2019-03-29T09:58:31Z</time>
      </trkpt>
      <trkpt lat="47.9519" lon="-2.55353">
        <ele>46.47</ele>
        <time>2019-03-29T09:58:32Z</time>
      </trkpt>
      <trkpt lat="47.9519" lon="-2.55356">
        <ele>46.45</ele>
        <time>2019-03-29T09:58:33Z</time>
      </trkpt>
      <trkpt lat="47.9519" lon="-2.55358">
        <ele>46.45</ele>
        <time>2019-03-29T09:58:34Z</time>
      </trkpt>
      <trkpt lat="47.9519" lon="-2.55361">
        <ele>46.49</ele>
        <time>2019-03-29T09:58:35Z</time>
      </trkpt>
      <trkpt lat="47.95191" lon="-2.55363">
        <ele>46.53</ele>
        <time>2019-03-29T09:58:36Z</time>
      </trkpt>
      <trkpt lat="47.95191" lon="-2.55381">
        <ele>46.6</ele>
        <time>2019-03-29T09:58:43Z</time>
      </trkpt>
      <trkpt lat="47.9519" lon="-2.55385">
        <ele>46.57</ele>
        <time>2019-03-29T09:58:44Z</time>
      </trkpt>
      <trkpt lat="47.95189" lon="-2.55389">
        <ele>46.55</ele>
        <time>2019-03-29T09:58:45Z</time>
      </trkpt>
      <trkpt lat="47.95178" lon="-2.55424">
        <ele>46.58</ele>
        <time>2019-03-29T09:58:59Z</time>
      </trkpt>
      <trkpt lat="47.95179" lon="-2.55426">
        <ele>46.59</ele>
        <time>2019-03-29T09:59:00Z</time>
      </trkpt>
      <trkpt lat="47.95178" lon="-2.55429">
        <ele>46.59</ele>
        <time>2019-03-29T09:59:01Z</time>
      </trkpt>
      <trkpt lat="47.95176" lon="-2.55436">
        <ele>46.55</ele>
        <time>2019-03-29T09:59:04Z</time>
      </trkpt>
      <trkpt lat="47.95176" lon="-2.55442">
        <ele>46.52</ele>
        <time>2019-03-29T09:59:06Z</time>
      </trkpt>
      <trkpt lat="47.9517" lon="-2.55473">
        <ele>46.36</ele>
        <time>2019-03-29T09:59:20Z</time>
      </trkpt>
      <trkpt lat="47.95164" lon="-2.55505">
        <ele>46.37</ele>
        <time>2019-03-29T09:59:34Z</time>
      </trkpt>
      <trkpt lat="47.95162" lon="-2.55509">
        <ele>46.39</ele>
        <time>2019-03-29T09:59:36Z</time>
      </trkpt>
      <trkpt lat="47.95161" lon="-2.55511">
        <ele>46.38</ele>
        <time>2019-03-29T09:59:37Z</time>
      </trkpt>
      <trkpt lat="47.95154" lon="-2.5554">
        <ele>46.47</ele>
        <time>2019-03-29T09:59:51Z</time>
      </trkpt>
      <trkpt lat="47.95136" lon="-2.55569">
        <ele>46.58</ele>
        <time>2019-03-29T10:00:05Z</time>
      </trkpt>
      <trkpt lat="47.95135" lon="-2.55572">
        <ele>46.6</ele>
        <time>2019-03-29T10:00:06Z</time>
      </trkpt>
      <trkpt lat="47.95133" lon="-2.55576">
        <ele>46.61</ele>
        <time>2019-03-29T10:00:07Z</time>
      </trkpt>
      <trkpt lat="47.95129" lon="-2.55585">
        <ele>46.6</ele>
        <time>2019-03-29T10:00:11Z</time>
      </trkpt>
      <trkpt lat="47.9512" lon="-2.55615">
        <ele>46.5</ele>
        <time>2019-03-29T10:00:26Z</time>
      </trkpt>
      <trkpt lat="47.95116" lon="-2.55624">
        <ele>46.45</ele>
        <time>2019-03-29T10:00:31Z</time>
      </trkpt>
      <trkpt lat="47.95116" lon="-2.55626">
        <ele>46.46</ele>
        <time>2019-03-29T10:00:32Z</time>
      </trkpt>
      <trkpt lat="47.95115" lon="-2.55628">
        <ele>46.47</ele>
        <time>2019-03-29T10:00:33Z</time>
      </trkpt>
      <trkpt lat="47.95115" lon="-2.5563">
        <ele>46.47</ele>
        <time>2019-03-29T10:00:34Z</time>
      </trkpt>
      <trkpt lat="47.95107" lon="-2.55648">
        <ele>46.72</ele>
        <time>2019-03-29T10:00:45Z</time>
      </trkpt>
      <trkpt lat="47.95106" lon="-2.5565">
        <ele>46.73</ele>
        <time>2019-03-29T10:00:46Z</time>
      </trkpt>
      <trkpt lat="47.95104" lon="-2.55653">
        <ele>46.74</ele>
        <time>2019-03-29T10:00:47Z</time>
      </trkpt>
      <trkpt lat="47.95103" lon="-2.55655">
        <ele>46.74</ele>
        <time>2019-03-29T10:00:48Z</time>
      </trkpt>
      <trkpt lat="47.95103" lon="-2.55658">
        <ele>46.75</ele>
        <time>2019-03-29T10:00:49Z</time>
      </trkpt>
      <trkpt lat="47.95102" lon="-2.55661">
        <ele>46.75</ele>
        <time>2019-03-29T10:00:50Z</time>
      </trkpt>
      <trkpt lat="47.951" lon="-2.55665">
        <ele>46.71</ele>
        <time>2019-03-29T10:00:51Z</time>
      </trkpt>
      <trkpt lat="47.95099" lon="-2.55668">
        <ele>46.7</ele>
        <time>2019-03-29T10:00:52Z</time>
      </trkpt>
      <trkpt lat="47.95093" lon="-2.55685">
        <ele>46.84</ele>
        <time>2019-03-29T10:01:01Z</time>
      </trkpt>
      <trkpt lat="47.95086" lon="-2.55712">
        <ele>46.79</ele>
        <time>2019-03-29T10:01:12Z</time>
      </trkpt>
      <trkpt lat="47.95079" lon="-2.55742">
        <ele>46.83</ele>
        <time>2019-03-29T10:01:25Z</time>
      </trkpt>
      <trkpt lat="47.9507" lon="-2.55773">
        <ele>46.9</ele>
        <time>2019-03-29T10:01:37Z</time>
      </trkpt>
      <trkpt lat="47.95067" lon="-2.55797">
        <ele>47.11</ele>
        <time>2019-03-29T10:01:47Z</time>
      </trkpt>
      <trkpt lat="47.95068" lon="-2.55821">
        <ele>47.14</ele>
        <time>2019-03-29T10:01:58Z</time>
      </trkpt>
      <trkpt lat="47.95068" lon="-2.5583">
        <ele>47.15</ele>
        <time>2019-03-29T10:02:03Z</time>
      </trkpt>
      <trkpt lat="47.95068" lon="-2.55832">
        <ele>47.13</ele>
        <time>2019-03-29T10:02:04Z</time>
      </trkpt>
      <trkpt lat="47.95068" lon="-2.55835">
        <ele>47.1</ele>
        <time>2019-03-29T10:02:05Z</time>
      </trkpt>
      <trkpt lat="47.95067" lon="-2.55837">
        <ele>47.06</ele>
        <time>2019-03-29T10:02:06Z</time>
      </trkpt>
      <trkpt lat="47.95067" lon="-2.5584">
        <ele>47.01</ele>
        <time>2019-03-29T10:02:07Z</time>
      </trkpt>
      <trkpt lat="47.95067" lon="-2.55843">
        <ele>47</ele>
        <time>2019-03-29T10:02:08Z</time>
      </trkpt>
      <trkpt lat="47.95067" lon="-2.55845">
        <ele>47.02</ele>
        <time>2019-03-29T10:02:09Z</time>
      </trkpt>
      <trkpt lat="47.95064" lon="-2.55864">
        <ele>47.2</ele>
        <time>2019-03-29T10:02:15Z</time>
      </trkpt>
      <trkpt lat="47.95063" lon="-2.55867">
        <ele>47.22</ele>
        <time>2019-03-29T10:02:16Z</time>
      </trkpt>
      <trkpt lat="47.95063" lon="-2.5587">
        <ele>47.23</ele>
        <time>2019-03-29T10:02:17Z</time>
      </trkpt>
      <trkpt lat="47.95062" lon="-2.55886">
        <ele>47.17</ele>
        <time>2019-03-29T10:02:24Z</time>
      </trkpt>
      <trkpt lat="47.95062" lon="-2.55893">
        <ele>47.19</ele>
        <time>2019-03-29T10:02:26Z</time>
      </trkpt>
      <trkpt lat="47.95062" lon="-2.55896">
        <ele>47.21</ele>
        <time>2019-03-29T10:02:27Z</time>
      </trkpt>
      <trkpt lat="47.95062" lon="-2.55898">
        <ele>47.23</ele>
        <time>2019-03-29T10:02:28Z</time>
      </trkpt>
      <trkpt lat="47.95062" lon="-2.55901">
        <ele>47.23</ele>
        <time>2019-03-29T10:02:29Z</time>
      </trkpt>
      <trkpt lat="47.95062" lon="-2.55904">
        <ele>47.21</ele>
        <time>2019-03-29T10:02:30Z</time>
      </trkpt>
      <trkpt lat="47.95062" lon="-2.55906">
        <ele>47.19</ele>
        <time>2019-03-29T10:02:31Z</time>
      </trkpt>
      <trkpt lat="47.95062" lon="-2.55908">
        <ele>47.15</ele>
        <time>2019-03-29T10:02:32Z</time>
      </trkpt>
      <trkpt lat="47.95062" lon="-2.5591">
        <ele>47.11</ele>
        <time>2019-03-29T10:02:33Z</time>
      </trkpt>
      <trkpt lat="47.95063" lon="-2.55914">
        <ele>47.07</ele>
        <time>2019-03-29T10:02:34Z</time>
      </trkpt>
      <trkpt lat="47.95062" lon="-2.55943">
        <ele>47.02</ele>
        <time>2019-03-29T10:02:47Z</time>
      </trkpt>
      <trkpt lat="47.95061" lon="-2.55945">
        <ele>47.01</ele>
        <time>2019-03-29T10:02:48Z</time>
      </trkpt>
      <trkpt lat="47.95062" lon="-2.55949">
        <ele>47</ele>
        <time>2019-03-29T10:02:49Z</time>
      </trkpt>
      <trkpt lat="47.95062" lon="-2.55951">
        <ele>46.98</ele>
        <time>2019-03-29T10:02:50Z</time>
      </trkpt>
      <trkpt lat="47.95062" lon="-2.55953">
        <ele>46.97</ele>
        <time>2019-03-29T10:02:51Z</time>
      </trkpt>
      <trkpt lat="47.95062" lon="-2.55956">
        <ele>46.95</ele>
        <time>2019-03-29T10:02:52Z</time>
      </trkpt>
      <trkpt lat="47.95062" lon="-2.55958">
        <ele>46.92</ele>
        <time>2019-03-29T10:02:53Z</time>
      </trkpt>
      <trkpt lat="47.95062" lon="-2.55961">
        <ele>46.9</ele>
        <time>2019-03-29T10:02:54Z</time>
      </trkpt>
      <trkpt lat="47.95063" lon="-2.55977">
        <ele>46.84</ele>
        <time>2019-03-29T10:03:01Z</time>
      </trkpt>
      <trkpt lat="47.95063" lon="-2.55981">
        <ele>46.84</ele>
        <time>2019-03-29T10:03:02Z</time>
      </trkpt>
      <trkpt lat="47.95063" lon="-2.55984">
        <ele>46.83</ele>
        <time>2019-03-29T10:03:03Z</time>
      </trkpt>
      <trkpt lat="47.95067" lon="-2.55998">
        <ele>46.85</ele>
        <time>2019-03-29T10:03:11Z</time>
      </trkpt>
      <trkpt lat="47.95067" lon="-2.56001">
        <ele>46.86</ele>
        <time>2019-03-29T10:03:12Z</time>
      </trkpt>
      <trkpt lat="47.95066" lon="-2.56005">
        <ele>46.89</ele>
        <time>2019-03-29T10:03:13Z</time>
      </trkpt>
      <trkpt lat="47.95067" lon="-2.56008">
        <ele>46.91</ele>
        <time>2019-03-29T10:03:14Z</time>
      </trkpt>
      <trkpt lat="47.95066" lon="-2.56014">
        <ele>46.93</ele>
        <time>2019-03-29T10:03:16Z</time>
      </trkpt>
      <trkpt lat="47.9507" lon="-2.56052">
        <ele>46.86</ele>
        <time>2019-03-29T10:03:30Z</time>
      </trkpt>
      <trkpt lat="47.95072" lon="-2.56085">
        <ele>46.96</ele>
        <time>2019-03-29T10:03:44Z</time>
      </trkpt>
      <trkpt lat="47.95074" lon="-2.56087">
        <ele>47</ele>
        <time>2019-03-29T10:03:46Z</time>
      </trkpt>
      <trkpt lat="47.9507" lon="-2.56098">
        <ele>47.11</ele>
        <time>2019-03-29T10:03:55Z</time>
      </trkpt>
      <trkpt lat="47.95066" lon="-2.561">
        <ele>47.83</ele>
        <time>2019-03-29T10:03:58Z</time>
      </trkpt>
      <trkpt lat="47.95053" lon="-2.56104">
        <ele>51.61</ele>
        <time>2019-03-29T10:04:06Z</time>
      </trkpt>
      <trkpt lat="47.95047" lon="-2.56106">
        <ele>54.62</ele>
        <time>2019-03-29T10:04:11Z</time>
      </trkpt>
      <trkpt lat="47.95045" lon="-2.56107">
        <ele>56.02</ele>
        <time>2019-03-29T10:04:14Z</time>
      </trkpt>
      <trkpt lat="47.95028" lon="-2.56098">
        <ele>58.68</ele>
        <time>2019-03-29T10:04:26Z</time>
      </trkpt>
      <trkpt lat="47.95006" lon="-2.5609">
        <ele>62.07</ele>
        <time>2019-03-29T10:04:41Z</time>
      </trkpt>
      <trkpt lat="47.94992" lon="-2.56104">
        <ele>64.47</ele>
        <time>2019-03-29T10:04:54Z</time>
      </trkpt>
      <trkpt lat="47.94982" lon="-2.56105">
        <ele>58.90234375</ele>
      </trkpt>
      <trkpt lat="47.95014" lon="-2.56189">
        <ele>55.515625</ele>
      </trkpt>
      <trkpt lat="47.95041" lon="-2.56276">
        <ele>53.33203125</ele>
      </trkpt>
      <trkpt lat="47.95129" lon="-2.5644">
        <ele>40.40234375</ele>
      </trkpt>
      <trkpt lat="47.95132" lon="-2.56454">
        <ele>49.82</ele>
        <time>2019-03-29T10:12:18Z</time>
      </trkpt>
      <trkpt lat="47.95141" lon="-2.56473">
        <ele>49.49</ele>
        <time>2019-03-29T10:12:27Z</time>
      </trkpt>
      <trkpt lat="47.95139" lon="-2.56481">
        <ele>49.35</ele>
        <time>2019-03-29T10:12:31Z</time>
      </trkpt>
      <trkpt lat="47.95131" lon="-2.56482">
        <ele>49.36</ele>
        <time>2019-03-29T10:12:38Z</time>
      </trkpt>
      <trkpt lat="47.95129" lon="-2.56483">
        <ele>49.35</ele>
        <time>2019-03-29T10:12:40Z</time>
      </trkpt>
      <trkpt lat="47.9512" lon="-2.56492">
        <ele>49.76</ele>
        <time>2019-03-29T10:12:50Z</time>
      </trkpt>
      <trkpt lat="47.9511" lon="-2.56501">
        <ele>51.58</ele>
        <time>2019-03-29T10:12:57Z</time>
      </trkpt>
      <trkpt lat="47.95108" lon="-2.56514">
        <ele>55.14</ele>
        <time>2019-03-29T10:13:06Z</time>
      </trkpt>
      <trkpt lat="47.95103" lon="-2.56521">
        <ele>58.25</ele>
        <time>2019-03-29T10:13:13Z</time>
      </trkpt>
      <trkpt lat="47.95095" lon="-2.56543">
        <ele>61.56</ele>
        <time>2019-03-29T10:13:22Z</time>
      </trkpt>
      <trkpt lat="47.95093" lon="-2.56547">
        <ele>62.74</ele>
        <time>2019-03-29T10:13:24Z</time>
      </trkpt>
      <trkpt lat="47.95084" lon="-2.56564">
        <ele>66.34</ele>
        <time>2019-03-29T10:13:35Z</time>
      </trkpt>
      <trkpt lat="47.95082" lon="-2.56567">
        <ele>66.59</ele>
        <time>2019-03-29T10:13:37Z</time>
      </trkpt>
      <trkpt lat="47.95076" lon="-2.56574">
        <ele>66.92</ele>
        <time>2019-03-29T10:13:41Z</time>
      </trkpt>
      <trkpt lat="47.95063" lon="-2.56595">
        <ele>68.91</ele>
        <time>2019-03-29T10:13:54Z</time>
      </trkpt>
      <trkpt lat="47.95058" lon="-2.56601">
        <ele>69.44</ele>
        <time>2019-03-29T10:13:57Z</time>
      </trkpt>
      <trkpt lat="47.95054" lon="-2.56609">
        <ele>69.95</ele>
        <time>2019-03-29T10:14:00Z</time>
      </trkpt>
      <trkpt lat="47.95052" lon="-2.56614">
        <ele>70.4</ele>
        <time>2019-03-29T10:14:03Z</time>
      </trkpt>
      <trkpt lat="47.95051" lon="-2.56617">
        <ele>70.78</ele>
        <time>2019-03-29T10:14:05Z</time>
      </trkpt>
      <trkpt lat="47.95063" lon="-2.56627">
        <ele>73.74</ele>
        <time>2019-03-29T10:14:20Z</time>
      </trkpt>
      <trkpt lat="47.95064" lon="-2.56634">
        <ele>74.36</ele>
        <time>2019-03-29T10:14:24Z</time>
      </trkpt>
      <trkpt lat="47.95063" lon="-2.56647">
        <ele>75.55</ele>
        <time>2019-03-29T10:14:31Z</time>
      </trkpt>
      <trkpt lat="47.95064" lon="-2.56657">
        <ele>76.14</ele>
        <time>2019-03-29T10:14:36Z</time>
      </trkpt>
      <trkpt lat="47.95061" lon="-2.56682">
        <ele>77.21</ele>
        <time>2019-03-29T10:14:48Z</time>
      </trkpt>
      <trkpt lat="47.95059" lon="-2.56694">
        <ele>77.52</ele>
        <time>2019-03-29T10:14:55Z</time>
      </trkpt>
      <trkpt lat="47.95058" lon="-2.56703">
        <ele>77.68</ele>
        <time>2019-03-29T10:14:59Z</time>
      </trkpt>
      <trkpt lat="47.95057" lon="-2.56718">
        <ele>77.86</ele>
        <time>2019-03-29T10:15:04Z</time>
      </trkpt>
      <trkpt lat="47.95051" lon="-2.56762">
        <ele>78.37</ele>
        <time>2019-03-29T10:15:20Z</time>
      </trkpt>
      <trkpt lat="47.9505" lon="-2.56795">
        <ele>78.46</ele>
        <time>2019-03-29T10:15:33Z</time>
      </trkpt>
      <trkpt lat="47.95044" lon="-2.56845">
        <ele>78.82</ele>
        <time>2019-03-29T10:15:51Z</time>
      </trkpt>
      <trkpt lat="47.95042" lon="-2.56886">
        <ele>79.29</ele>
        <time>2019-03-29T10:16:09Z</time>
      </trkpt>
      <trkpt lat="47.95038" lon="-2.56927">
        <ele>79.36</ele>
        <time>2019-03-29T10:16:26Z</time>
      </trkpt>
      <trkpt lat="47.95034" lon="-2.56968">
        <ele>79.48</ele>
        <time>2019-03-29T10:16:41Z</time>
      </trkpt>
      <trkpt lat="47.9503" lon="-2.5701">
        <ele>79.27</ele>
        <time>2019-03-29T10:16:57Z</time>
      </trkpt>
      <trkpt lat="47.95027" lon="-2.57019">
        <ele>79.19</ele>
        <time>2019-03-29T10:17:07Z</time>
      </trkpt>
      <trkpt lat="47.95028" lon="-2.57027">
        <ele>78.95</ele>
        <time>2019-03-29T10:17:15Z</time>
      </trkpt>
      <trkpt lat="47.95027" lon="-2.57029">
        <ele>78.98</ele>
        <time>2019-03-29T10:17:16Z</time>
      </trkpt>
      <trkpt lat="47.95027" lon="-2.57032">
        <ele>79.04</ele>
        <time>2019-03-29T10:17:17Z</time>
      </trkpt>
      <trkpt lat="47.95027" lon="-2.57035">
        <ele>79.08</ele>
        <time>2019-03-29T10:17:18Z</time>
      </trkpt>
      <trkpt lat="47.95027" lon="-2.57037">
        <ele>79.12</ele>
        <time>2019-03-29T10:17:19Z</time>
      </trkpt>
      <trkpt lat="47.95024" lon="-2.57078">
        <ele>77.92</ele>
        <time>2019-03-29T10:17:35Z</time>
      </trkpt>
      <trkpt lat="47.9502" lon="-2.57123">
        <ele>75.1</ele>
        <time>2019-03-29T10:17:53Z</time>
      </trkpt>
      <trkpt lat="47.95027" lon="-2.57149">
        <ele>72.06</ele>
        <time>2019-03-29T10:18:06Z</time>
      </trkpt>
      <trkpt lat="47.95046" lon="-2.57171">
        <ele>69.65</ele>
        <time>2019-03-29T10:18:20Z</time>
      </trkpt>
      <trkpt lat="47.95067" lon="-2.57198">
        <ele>67.16</ele>
        <time>2019-03-29T10:18:36Z</time>
      </trkpt>
      <trkpt lat="47.95067" lon="-2.572">
        <ele>67.01</ele>
        <time>2019-03-29T10:18:37Z</time>
      </trkpt>
      <trkpt lat="47.95067" lon="-2.57202">
        <ele>66.82</ele>
        <time>2019-03-29T10:18:38Z</time>
      </trkpt>
      <trkpt lat="47.95066" lon="-2.57208">
        <ele>66.22</ele>
        <time>2019-03-29T10:18:42Z</time>
      </trkpt>
      <trkpt lat="47.95064" lon="-2.57216">
        <ele>65.81</ele>
        <time>2019-03-29T10:18:46Z</time>
      </trkpt>
      <trkpt lat="47.9506" lon="-2.5723">
        <ele>65.55</ele>
        <time>2019-03-29T10:18:58Z</time>
      </trkpt>
      <trkpt lat="47.9506" lon="-2.57239">
        <ele>65.88</ele>
        <time>2019-03-29T10:19:03Z</time>
      </trkpt>
      <trkpt lat="47.95058" lon="-2.57272">
        <ele>66.38</ele>
        <time>2019-03-29T10:19:18Z</time>
      </trkpt>
      <trkpt lat="47.95057" lon="-2.57289">
        <ele>65.73</ele>
        <time>2019-03-29T10:19:24Z</time>
      </trkpt>
      <trkpt lat="47.95051" lon="-2.57328">
        <ele>64.36</ele>
        <time>2019-03-29T10:19:39Z</time>
      </trkpt>
      <trkpt lat="47.9505" lon="-2.57334">
        <ele>64.21</ele>
        <time>2019-03-29T10:19:41Z</time>
      </trkpt>
      <trkpt lat="47.95049" lon="-2.57342">
        <ele>64.15</ele>
        <time>2019-03-29T10:19:45Z</time>
      </trkpt>
      <trkpt lat="47.95047" lon="-2.5737">
        <ele>63.98</ele>
        <time>2019-03-29T10:20:00Z</time>
      </trkpt>
      <trkpt lat="47.95045" lon="-2.57384">
        <ele>63.7</ele>
        <time>2019-03-29T10:20:05Z</time>
      </trkpt>
      <trkpt lat="47.95042" lon="-2.574">
        <ele>62.64</ele>
        <time>2019-03-29T10:20:11Z</time>
      </trkpt>
      <trkpt lat="47.95051" lon="-2.57417">
        <ele>59.44</ele>
        <time>2019-03-29T10:20:23Z</time>
      </trkpt>
      <trkpt lat="47.95058" lon="-2.57424">
        <ele>56.69</ele>
        <time>2019-03-29T10:20:32Z</time>
      </trkpt>
      <trkpt lat="47.9506" lon="-2.5748">
        <ele>58.11</ele>
        <time>2019-03-29T10:21:20Z</time>
      </trkpt>
      <trkpt lat="47.95061" lon="-2.57496">
        <ele>58.68</ele>
        <time>2019-03-29T10:21:28Z</time>
      </trkpt>
      <trkpt lat="47.95063" lon="-2.57536">
        <ele>59.26</ele>
        <time>2019-03-29T10:21:45Z</time>
      </trkpt>
      <trkpt lat="47.95064" lon="-2.57558">
        <ele>59.45</ele>
        <time>2019-03-29T10:21:55Z</time>
      </trkpt>
      <trkpt lat="47.95061" lon="-2.57568">
        <ele>60.23</ele>
        <time>2019-03-29T10:22:01Z</time>
      </trkpt>
      <trkpt lat="47.95059" lon="-2.57566">
        <ele>60.79</ele>
        <time>2019-03-29T10:22:04Z</time>
      </trkpt>
      <trkpt lat="47.95059" lon="-2.57564">
        <ele>61.18</ele>
        <time>2019-03-29T10:22:07Z</time>
      </trkpt>
      <trkpt lat="47.95057" lon="-2.57561">
        <ele>61.44</ele>
        <time>2019-03-29T10:22:09Z</time>
      </trkpt>
      <trkpt lat="47.95054" lon="-2.57557">
        <ele>62.52</ele>
        <time>2019-03-29T10:22:14Z</time>
      </trkpt>
      <trkpt lat="47.95049" lon="-2.5755">
        <ele>63.76</ele>
        <time>2019-03-29T10:22:21Z</time>
      </trkpt>
      <trkpt lat="47.95041" lon="-2.57546">
        <ele>65.07</ele>
        <time>2019-03-29T10:22:27Z</time>
      </trkpt>
      <trkpt lat="47.95028" lon="-2.57543">
        <ele>67.46</ele>
        <time>2019-03-29T10:22:36Z</time>
      </trkpt>
      <trkpt lat="47.95011" lon="-2.57537">
        <ele>70.23</ele>
        <time>2019-03-29T10:22:51Z</time>
      </trkpt>
      <trkpt lat="47.95008" lon="-2.57536">
        <ele>70.68</ele>
        <time>2019-03-29T10:22:54Z</time>
      </trkpt>
      <trkpt lat="47.94997" lon="-2.57536">
        <ele>72.04</ele>
        <time>2019-03-29T10:23:02Z</time>
      </trkpt>
      <trkpt lat="47.94966" lon="-2.5754">
        <ele>74.69</ele>
        <time>2019-03-29T10:23:17Z</time>
      </trkpt>
      <trkpt lat="47.94937" lon="-2.57549">
        <ele>76.55</ele>
        <time>2019-03-29T10:23:34Z</time>
      </trkpt>
      <trkpt lat="47.94914" lon="-2.57546">
        <ele>77.71</ele>
        <time>2019-03-29T10:23:50Z</time>
      </trkpt>
      <trkpt lat="47.94904" lon="-2.57542">
        <ele>78.09</ele>
        <time>2019-03-29T10:24:01Z</time>
      </trkpt>
      <trkpt lat="47.94897" lon="-2.57541">
        <ele>78.08</ele>
        <time>2019-03-29T10:24:13Z</time>
      </trkpt>
      <trkpt lat="47.94888" lon="-2.5754">
        <ele>78.08</ele>
        <time>2019-03-29T10:24:20Z</time>
      </trkpt>
      <trkpt lat="47.94863" lon="-2.57546">
        <ele>78.75</ele>
        <time>2019-03-29T10:24:38Z</time>
      </trkpt>
      <trkpt lat="47.9485" lon="-2.57554">
        <ele>79.79</ele>
        <time>2019-03-29T10:24:47Z</time>
      </trkpt>
      <trkpt lat="47.94834" lon="-2.57581">
        <ele>80.98</ele>
        <time>2019-03-29T10:25:02Z</time>
      </trkpt>
      <trkpt lat="47.94825" lon="-2.57632">
        <ele>82.14</ele>
        <time>2019-03-29T10:25:23Z</time>
      </trkpt>
      <trkpt lat="47.94814" lon="-2.57681">
        <ele>82.98</ele>
        <time>2019-03-29T10:25:45Z</time>
      </trkpt>
      <trkpt lat="47.94808" lon="-2.57718">
        <ele>83.22</ele>
        <time>2019-03-29T10:26:02Z</time>
      </trkpt>
      <trkpt lat="47.94803" lon="-2.57757">
        <ele>82.52</ele>
        <time>2019-03-29T10:26:20Z</time>
      </trkpt>
      <trkpt lat="47.94799" lon="-2.57789">
        <ele>81.64</ele>
        <time>2019-03-29T10:26:34Z</time>
      </trkpt>
      <trkpt lat="47.94796" lon="-2.57799">
        <ele>81.3</ele>
        <time>2019-03-29T10:26:39Z</time>
      </trkpt>
      <trkpt lat="47.94798" lon="-2.57819">
        <ele>79.32</ele>
        <time>2019-03-29T10:26:52Z</time>
      </trkpt>
      <trkpt lat="47.94796" lon="-2.57825">
        <ele>78.64</ele>
        <time>2019-03-29T10:26:56Z</time>
      </trkpt>
      <trkpt lat="47.94795" lon="-2.57828">
        <ele>78.52</ele>
        <time>2019-03-29T10:26:58Z</time>
      </trkpt>
      <trkpt lat="47.94787" lon="-2.5785">
        <ele>77.59</ele>
        <time>2019-03-29T10:27:10Z</time>
      </trkpt>
      <trkpt lat="47.94782" lon="-2.57869">
        <ele>74.99</ele>
        <time>2019-03-29T10:27:21Z</time>
      </trkpt>
      <trkpt lat="47.94778" lon="-2.57886">
        <ele>72.95</ele>
        <time>2019-03-29T10:27:33Z</time>
      </trkpt>
      <trkpt lat="47.94778" lon="-2.57912">
        <ele>69.77</ele>
        <time>2019-03-29T10:27:49Z</time>
      </trkpt>
      <trkpt lat="47.94775" lon="-2.57937">
        <ele>66.5</ele>
        <time>2019-03-29T10:28:02Z</time>
      </trkpt>
      <trkpt lat="47.9476" lon="-2.57963">
        <ele>63.5</ele>
        <time>2019-03-29T10:28:16Z</time>
      </trkpt>
      <trkpt lat="47.94745" lon="-2.57993">
        <ele>60.43</ele>
        <time>2019-03-29T10:28:29Z</time>
      </trkpt>
      <trkpt lat="47.94736" lon="-2.58006">
        <ele>59.41</ele>
        <time>2019-03-29T10:28:37Z</time>
      </trkpt>
      <trkpt lat="47.94736" lon="-2.58008">
        <ele>59.38</ele>
        <time>2019-03-29T10:28:38Z</time>
      </trkpt>
      <trkpt lat="47.94737" lon="-2.58009">
        <ele>59.35</ele>
        <time>2019-03-29T10:28:39Z</time>
      </trkpt>
      <trkpt lat="47.94754" lon="-2.57987">
        <ele>58.5</ele>
        <time>2019-03-29T10:28:53Z</time>
      </trkpt>
      <trkpt lat="47.94772" lon="-2.57965">
        <ele>57.88</ele>
        <time>2019-03-29T10:29:06Z</time>
      </trkpt>
      <trkpt lat="47.9479" lon="-2.57942">
        <ele>56.91</ele>
        <time>2019-03-29T10:29:19Z</time>
      </trkpt>
      <trkpt lat="47.94817" lon="-2.57929">
        <ele>55.96</ele>
        <time>2019-03-29T10:29:34Z</time>
      </trkpt>
      <trkpt lat="47.94847" lon="-2.57934">
        <ele>55.79</ele>
        <time>2019-03-29T10:29:52Z</time>
      </trkpt>
      <trkpt lat="47.94849" lon="-2.57935">
        <ele>55.94</ele>
        <time>2019-03-29T10:29:57Z</time>
      </trkpt>
      <trkpt lat="47.94856" lon="-2.57937">
        <ele>56.16</ele>
        <time>2019-03-29T10:30:09Z</time>
      </trkpt>
      <trkpt lat="47.94857" lon="-2.57937">
        <ele>56.16</ele>
        <time>2019-03-29T10:30:10Z</time>
      </trkpt>
      <trkpt lat="47.94859" lon="-2.57936">
        <ele>56.15</ele>
        <time>2019-03-29T10:30:11Z</time>
      </trkpt>
      <trkpt lat="47.9486" lon="-2.57932">
        <ele>56.14</ele>
        <time>2019-03-29T10:30:13Z</time>
      </trkpt>
      <trkpt lat="47.9486" lon="-2.57934">
        <ele>56.59</ele>
        <time>2019-03-29T10:30:24Z</time>
      </trkpt>
      <trkpt lat="47.9486" lon="-2.57934">
        <ele>56.55</ele>
        <time>2019-03-29T10:30:25Z</time>
      </trkpt>
      <trkpt lat="47.94862" lon="-2.57941">
        <ele>55.91</ele>
        <time>2019-03-29T10:30:35Z</time>
      </trkpt>
      <trkpt lat="47.94874" lon="-2.57943">
        <ele>55.94</ele>
        <time>2019-03-29T10:30:42Z</time>
      </trkpt>
      <trkpt lat="47.94888" lon="-2.57951">
        <ele>56.6</ele>
        <time>2019-03-29T10:30:53Z</time>
      </trkpt>
      <trkpt lat="47.94909" lon="-2.57968">
        <ele>57.46</ele>
        <time>2019-03-29T10:31:06Z</time>
      </trkpt>
      <trkpt lat="47.94934" lon="-2.57976">
        <ele>59.05</ele>
        <time>2019-03-29T10:31:22Z</time>
      </trkpt>
      <trkpt lat="47.94956" lon="-2.5799">
        <ele>60.19</ele>
        <time>2019-03-29T10:31:37Z</time>
      </trkpt>
      <trkpt lat="47.94976" lon="-2.58007">
        <ele>61.76</ele>
        <time>2019-03-29T10:31:52Z</time>
      </trkpt>
      <trkpt lat="47.95001" lon="-2.58015">
        <ele>62.01</ele>
        <time>2019-03-29T10:32:07Z</time>
      </trkpt>
      <trkpt lat="47.95022" lon="-2.58006">
        <ele>61.72</ele>
        <time>2019-03-29T10:32:21Z</time>
      </trkpt>
      <trkpt lat="47.95046" lon="-2.57986">
        <ele>60.81</ele>
        <time>2019-03-29T10:32:37Z</time>
      </trkpt>
      <trkpt lat="47.95076" lon="-2.57964">
        <ele>59.43</ele>
        <time>2019-03-29T10:32:56Z</time>
      </trkpt>
      <trkpt lat="47.95088" lon="-2.57954">
        <ele>58.82</ele>
        <time>2019-03-29T10:33:04Z</time>
      </trkpt>
      <trkpt lat="47.95113" lon="-2.57944">
        <ele>57.83</ele>
        <time>2019-03-29T10:33:20Z</time>
      </trkpt>
      <trkpt lat="47.95133" lon="-2.57928">
        <ele>57.1</ele>
        <time>2019-03-29T10:33:35Z</time>
      </trkpt>
      <trkpt lat="47.95147" lon="-2.57956">
        <ele>56.74</ele>
        <time>2019-03-29T10:33:51Z</time>
      </trkpt>
      <trkpt lat="47.95161" lon="-2.5799">
        <ele>57.72</ele>
        <time>2019-03-29T10:34:06Z</time>
      </trkpt>
      <trkpt lat="47.9518" lon="-2.58024">
        <ele>58.65</ele>
        <time>2019-03-29T10:34:24Z</time>
      </trkpt>
      <trkpt lat="47.95198" lon="-2.58045">
        <ele>59.65</ele>
        <time>2019-03-29T10:34:38Z</time>
      </trkpt>
      <trkpt lat="47.95201" lon="-2.58048">
        <ele>59.77</ele>
        <time>2019-03-29T10:34:40Z</time>
      </trkpt>
      <trkpt lat="47.95211" lon="-2.58066">
        <ele>60.26</ele>
        <time>2019-03-29T10:34:49Z</time>
      </trkpt>
      <trkpt lat="47.95213" lon="-2.58092">
        <ele>61.32</ele>
        <time>2019-03-29T10:35:00Z</time>
      </trkpt>
      <trkpt lat="47.95219" lon="-2.581">
        <ele>62.42</ele>
        <time>2019-03-29T10:35:10Z</time>
      </trkpt>
      <trkpt lat="47.95224" lon="-2.58097">
        <ele>63.01</ele>
        <time>2019-03-29T10:35:17Z</time>
      </trkpt>
      <trkpt lat="47.95227" lon="-2.58096">
        <ele>63.27</ele>
        <time>2019-03-29T10:35:19Z</time>
      </trkpt>
      <trkpt lat="47.95248" lon="-2.58096">
        <ele>66.42</ele>
        <time>2019-03-29T10:35:31Z</time>
      </trkpt>
      <trkpt lat="47.9525" lon="-2.58096">
        <ele>66.59</ele>
        <time>2019-03-29T10:35:32Z</time>
      </trkpt>
      <trkpt lat="47.95251" lon="-2.58096">
        <ele>66.73</ele>
        <time>2019-03-29T10:35:33Z</time>
      </trkpt>
      <trkpt lat="47.95283" lon="-2.58092">
        <ele>67.86</ele>
        <time>2019-03-29T10:35:50Z</time>
      </trkpt>
      <trkpt lat="47.95315" lon="-2.58088">
        <ele>67.69</ele>
        <time>2019-03-29T10:36:09Z</time>
      </trkpt>
      <trkpt lat="47.95342" lon="-2.58086">
        <ele>68.05</ele>
        <time>2019-03-29T10:36:25Z</time>
      </trkpt>
      <trkpt lat="47.95372" lon="-2.58082">
        <ele>67.37</ele>
        <time>2019-03-29T10:36:45Z</time>
      </trkpt>
      <trkpt lat="47.95383" lon="-2.58061">
        <ele>64.79</ele>
        <time>2019-03-29T10:36:59Z</time>
      </trkpt>
      <trkpt lat="47.95381" lon="-2.58034">
        <ele>61.95</ele>
        <time>2019-03-29T10:37:12Z</time>
      </trkpt>
      <trkpt lat="47.95383" lon="-2.58024">
        <ele>60.64</ele>
        <time>2019-03-29T10:37:18Z</time>
      </trkpt>
      <trkpt lat="47.95385" lon="-2.58022">
        <ele>60.17</ele>
        <time>2019-03-29T10:37:20Z</time>
      </trkpt>
      <trkpt lat="47.95402" lon="-2.5803">
        <ele>57</ele>
        <time>2019-03-29T10:37:33Z</time>
      </trkpt>
      <trkpt lat="47.95418" lon="-2.58055">
        <ele>55.34</ele>
        <time>2019-03-29T10:37:48Z</time>
      </trkpt>
      <trkpt lat="47.95428" lon="-2.58097">
        <ele>55.04</ele>
        <time>2019-03-29T10:38:05Z</time>
      </trkpt>
      <trkpt lat="47.95437" lon="-2.58145">
        <ele>53.49</ele>
        <time>2019-03-29T10:38:25Z</time>
      </trkpt>
      <trkpt lat="47.95444" lon="-2.58181">
        <ele>52.09</ele>
        <time>2019-03-29T10:38:40Z</time>
      </trkpt>
      <trkpt lat="47.95451" lon="-2.58218">
        <ele>50.27</ele>
        <time>2019-03-29T10:38:56Z</time>
      </trkpt>
      <trkpt lat="47.95463" lon="-2.58261">
        <ele>50.09</ele>
        <time>2019-03-29T10:39:09Z</time>
      </trkpt>
      <trkpt lat="47.95465" lon="-2.58268">
        <ele>50.03</ele>
        <time>2019-03-29T10:39:10Z</time>
      </trkpt>
      <trkpt lat="47.9547" lon="-2.5829">
        <ele>49.58</ele>
        <time>2019-03-29T10:39:13Z</time>
      </trkpt>
      <trkpt lat="47.95477" lon="-2.5832">
        <ele>49.25</ele>
        <time>2019-03-29T10:39:17Z</time>
      </trkpt>
      <trkpt lat="47.95479" lon="-2.58327">
        <ele>49.23</ele>
        <time>2019-03-29T10:39:18Z</time>
      </trkpt>
      <trkpt lat="47.95491" lon="-2.58379">
        <ele>49.2</ele>
        <time>2019-03-29T10:39:24Z</time>
      </trkpt>
      <trkpt lat="47.95498" lon="-2.58408">
        <ele>49.08</ele>
        <time>2019-03-29T10:39:27Z</time>
      </trkpt>
      <trkpt lat="47.95549" lon="-2.58519">
        <ele>48.72</ele>
        <time>2019-03-29T10:39:40Z</time>
      </trkpt>
      <trkpt lat="47.95575" lon="-2.58558">
        <ele>48.94</ele>
        <time>2019-03-29T10:39:46Z</time>
      </trkpt>
      <trkpt lat="47.95578" lon="-2.58564">
        <ele>48.84</ele>
        <time>2019-03-29T10:39:47Z</time>
      </trkpt>
      <trkpt lat="47.95635" lon="-2.58645">
        <ele>48.63</ele>
        <time>2019-03-29T10:39:59Z</time>
      </trkpt>
      <trkpt lat="47.9564" lon="-2.58652">
        <ele>48.66</ele>
        <time>2019-03-29T10:40:00Z</time>
      </trkpt>
      <trkpt lat="47.9571" lon="-2.58745">
        <ele>48.91</ele>
        <time>2019-03-29T10:40:14Z</time>
      </trkpt>
      <trkpt lat="47.95755" lon="-2.58805">
        <ele>48.32</ele>
        <time>2019-03-29T10:40:23Z</time>
      </trkpt>
      <trkpt lat="47.9576" lon="-2.58812">
        <ele>48.26</ele>
        <time>2019-03-29T10:40:24Z</time>
      </trkpt>
      <trkpt lat="47.95808" lon="-2.58889">
        <ele>47.62</ele>
        <time>2019-03-29T10:40:35Z</time>
      </trkpt>
      <trkpt lat="47.95859" lon="-2.58969">
        <ele>48.08</ele>
        <time>2019-03-29T10:40:47Z</time>
      </trkpt>
      <trkpt lat="47.95866" lon="-2.58982">
        <ele>48.17</ele>
        <time>2019-03-29T10:40:49Z</time>
      </trkpt>
      <trkpt lat="47.95869" lon="-2.58989">
        <ele>48.21</ele>
        <time>2019-03-29T10:40:50Z</time>
      </trkpt>
      <trkpt lat="47.95875" lon="-2.59005">
        <ele>48.3</ele>
        <time>2019-03-29T10:40:52Z</time>
      </trkpt>
      <trkpt lat="47.95891" lon="-2.59119">
        <ele>47.67</ele>
        <time>2019-03-29T10:41:05Z</time>
      </trkpt>
      <trkpt lat="47.95895" lon="-2.59181">
        <ele>48.08</ele>
        <time>2019-03-29T10:41:12Z</time>
      </trkpt>
      <trkpt lat="47.95895" lon="-2.59189">
        <ele>48.13</ele>
        <time>2019-03-29T10:41:13Z</time>
      </trkpt>
      <trkpt lat="47.95895" lon="-2.59198">
        <ele>48.18</ele>
        <time>2019-03-29T10:41:14Z</time>
      </trkpt>
      <trkpt lat="47.95896" lon="-2.59215">
        <ele>48.22</ele>
        <time>2019-03-29T10:41:16Z</time>
      </trkpt>
      <trkpt lat="47.95897" lon="-2.59223">
        <ele>48.24</ele>
        <time>2019-03-29T10:41:17Z</time>
      </trkpt>
      <trkpt lat="47.95899" lon="-2.5926">
        <ele>48.51</ele>
        <time>2019-03-29T10:41:22Z</time>
      </trkpt>
      <trkpt lat="47.95899" lon="-2.59266">
        <ele>48.64</ele>
        <time>2019-03-29T10:41:23Z</time>
      </trkpt>
      <trkpt lat="47.959" lon="-2.59271">
        <ele>48.79</ele>
        <time>2019-03-29T10:41:24Z</time>
      </trkpt>
      <trkpt lat="47.959" lon="-2.59275">
        <ele>48.97</ele>
        <time>2019-03-29T10:41:25Z</time>
      </trkpt>
      <trkpt lat="47.95901" lon="-2.5928">
        <ele>49.12</ele>
        <time>2019-03-29T10:41:26Z</time>
      </trkpt>
      <trkpt lat="47.95903" lon="-2.59315">
        <ele>50.47</ele>
        <time>2019-03-29T10:41:39Z</time>
      </trkpt>
      <trkpt lat="47.9591" lon="-2.59356">
        <ele>50.88</ele>
        <time>2019-03-29T10:41:58Z</time>
      </trkpt>
      <trkpt lat="47.95911" lon="-2.59358">
        <ele>50.82</ele>
        <time>2019-03-29T10:41:59Z</time>
      </trkpt>
      <trkpt lat="47.95911" lon="-2.59364">
        <ele>50.53</ele>
        <time>2019-03-29T10:42:03Z</time>
      </trkpt>
      <trkpt lat="47.9591" lon="-2.59366">
        <ele>50.47</ele>
        <time>2019-03-29T10:42:04Z</time>
      </trkpt>
      <trkpt lat="47.9591" lon="-2.59368">
        <ele>50.43</ele>
        <time>2019-03-29T10:42:05Z</time>
      </trkpt>
      <trkpt lat="47.95909" lon="-2.5937">
        <ele>50.42</ele>
        <time>2019-03-29T10:42:06Z</time>
      </trkpt>
      <trkpt lat="47.95907" lon="-2.59382">
        <ele>50.7</ele>
        <time>2019-03-29T10:42:13Z</time>
      </trkpt>
      <trkpt lat="47.95909" lon="-2.59399">
        <ele>51.04</ele>
        <time>2019-03-29T10:42:21Z</time>
      </trkpt>
      <trkpt lat="47.95909" lon="-2.59401">
        <ele>51.08</ele>
        <time>2019-03-29T10:42:22Z</time>
      </trkpt>
      <trkpt lat="47.95909" lon="-2.59403">
        <ele>51.12</ele>
        <time>2019-03-29T10:42:23Z</time>
      </trkpt>
      <trkpt lat="47.9591" lon="-2.59413">
        <ele>51.23</ele>
        <time>2019-03-29T10:42:33Z</time>
      </trkpt>
      <trkpt lat="47.95915" lon="-2.59454">
        <ele>51.26</ele>
        <time>2019-03-29T10:43:56Z</time>
      </trkpt>
      <trkpt lat="47.95915" lon="-2.59452">
        <ele>51.27</ele>
        <time>2019-03-29T10:43:57Z</time>
      </trkpt>
      <trkpt lat="47.95915" lon="-2.5945">
        <ele>51.28</ele>
        <time>2019-03-29T10:43:58Z</time>
      </trkpt>
      <trkpt lat="47.95916" lon="-2.59448">
        <ele>51.25</ele>
        <time>2019-03-29T10:43:59Z</time>
      </trkpt>
      <trkpt lat="47.95917" lon="-2.59446">
        <ele>51.16</ele>
        <time>2019-03-29T10:44:00Z</time>
      </trkpt>
      <trkpt lat="47.9593" lon="-2.59423">
        <ele>50.68</ele>
        <time>2019-03-29T10:44:15Z</time>
      </trkpt>
      <trkpt lat="47.95935" lon="-2.59413">
        <ele>50.34</ele>
        <time>2019-03-29T10:44:25Z</time>
      </trkpt>
      <trkpt lat="47.95939" lon="-2.59407">
        <ele>50.3</ele>
        <time>2019-03-29T10:44:41Z</time>
      </trkpt>
      <trkpt lat="47.95943" lon="-2.59404">
        <ele>50.36</ele>
        <time>2019-03-29T10:44:45Z</time>
      </trkpt>
      <trkpt lat="47.95946" lon="-2.59406">
        <ele>50.46</ele>
        <time>2019-03-29T10:44:52Z</time>
      </trkpt>
      <trkpt lat="47.95941" lon="-2.59398">
        <ele>50.48</ele>
        <time>2019-03-29T10:45:11Z</time>
      </trkpt>
      <trkpt lat="47.9594" lon="-2.59399">
        <ele>50.5</ele>
        <time>2019-03-29T10:45:12Z</time>
      </trkpt>
      <trkpt lat="47.95928" lon="-2.59425">
        <ele>50.62</ele>
        <time>2019-03-29T10:45:27Z</time>
      </trkpt>
      <trkpt lat="47.95922" lon="-2.5943">
        <ele>50.93</ele>
        <time>2019-03-29T10:45:36Z</time>
      </trkpt>
      <trkpt lat="47.95915" lon="-2.59446">
        <ele>51.21</ele>
        <time>2019-03-29T10:45:57Z</time>
      </trkpt>
      <trkpt lat="47.95909" lon="-2.59493">
        <ele>51.43</ele>
        <time>2019-03-29T10:46:16Z</time>
      </trkpt>
      <trkpt lat="47.95913" lon="-2.59542">
        <ele>51.81</ele>
        <time>2019-03-29T10:46:36Z</time>
      </trkpt>
      <trkpt lat="47.95917" lon="-2.59584">
        <ele>51.81</ele>
        <time>2019-03-29T10:46:54Z</time>
      </trkpt>
      <trkpt lat="47.9592" lon="-2.59616">
        <ele>51.74</ele>
        <time>2019-03-29T10:47:08Z</time>
      </trkpt>
      <trkpt lat="47.95922" lon="-2.59646">
        <ele>51.96</ele>
        <time>2019-03-29T10:47:24Z</time>
      </trkpt>
      <trkpt lat="47.95922" lon="-2.59676">
        <ele>52.11</ele>
        <time>2019-03-29T10:47:39Z</time>
      </trkpt>
      <trkpt lat="47.95924" lon="-2.59711">
        <ele>52.05</ele>
        <time>2019-03-29T10:47:55Z</time>
      </trkpt>
      <trkpt lat="47.95925" lon="-2.59756">
        <ele>52.26</ele>
        <time>2019-03-29T10:48:13Z</time>
      </trkpt>
      <trkpt lat="47.95921" lon="-2.59797">
        <ele>52.45</ele>
        <time>2019-03-29T10:48:31Z</time>
      </trkpt>
      <trkpt lat="47.95919" lon="-2.59827">
        <ele>52.64</ele>
        <time>2019-03-29T10:48:45Z</time>
      </trkpt>
      <trkpt lat="47.9592" lon="-2.59831">
        <ele>52.6</ele>
        <time>2019-03-29T10:48:47Z</time>
      </trkpt>
      <trkpt lat="47.95918" lon="-2.59867">
        <ele>52.68</ele>
        <time>2019-03-29T10:49:03Z</time>
      </trkpt>
      <trkpt lat="47.95912" lon="-2.59907">
        <ele>53.19</ele>
        <time>2019-03-29T10:49:18Z</time>
      </trkpt>
      <trkpt lat="47.95912" lon="-2.59912">
        <ele>53.2</ele>
        <time>2019-03-29T10:49:20Z</time>
      </trkpt>
      <trkpt lat="47.95912" lon="-2.59922">
        <ele>53.14</ele>
        <time>2019-03-29T10:49:24Z</time>
      </trkpt>
      <trkpt lat="47.95909" lon="-2.59942">
        <ele>53.17</ele>
        <time>2019-03-29T10:49:33Z</time>
      </trkpt>
      <trkpt lat="47.95909" lon="-2.59953">
        <ele>53.15</ele>
        <time>2019-03-29T10:49:37Z</time>
      </trkpt>
      <trkpt lat="47.95906" lon="-2.59989">
        <ele>53.35</ele>
        <time>2019-03-29T10:49:54Z</time>
      </trkpt>
      <trkpt lat="47.95905" lon="-2.60004">
        <ele>53.37</ele>
        <time>2019-03-29T10:50:01Z</time>
      </trkpt>
      <trkpt lat="47.95902" lon="-2.60046">
        <ele>52.95</ele>
        <time>2019-03-29T10:50:18Z</time>
      </trkpt>
      <trkpt lat="47.95897" lon="-2.60094">
        <ele>53</ele>
        <time>2019-03-29T10:50:36Z</time>
      </trkpt>
      <trkpt lat="47.95892" lon="-2.60128">
        <ele>53.67</ele>
        <time>2019-03-29T10:50:49Z</time>
      </trkpt>
      <trkpt lat="47.95891" lon="-2.60138">
        <ele>53.64</ele>
        <time>2019-03-29T10:50:53Z</time>
      </trkpt>
      <trkpt lat="47.95885" lon="-2.60211">
        <ele>53.44</ele>
        <time>2019-03-29T10:51:01Z</time>
      </trkpt>
      <trkpt lat="47.95883" lon="-2.6023">
        <ele>53.53</ele>
        <time>2019-03-29T10:51:03Z</time>
      </trkpt>
      <trkpt lat="47.95876" lon="-2.60344">
        <ele>54.2</ele>
        <time>2019-03-29T10:51:14Z</time>
      </trkpt>
      <trkpt lat="47.95858" lon="-2.60451">
        <ele>55.22</ele>
        <time>2019-03-29T10:51:24Z</time>
      </trkpt>
      <trkpt lat="47.95836" lon="-2.60558">
        <ele>54.72</ele>
        <time>2019-03-29T10:51:34Z</time>
      </trkpt>
      <trkpt lat="47.95818" lon="-2.60645">
        <ele>56.15</ele>
        <time>2019-03-29T10:51:44Z</time>
      </trkpt>
      <trkpt lat="47.95811" lon="-2.60684">
        <ele>56.88</ele>
        <time>2019-03-29T10:51:50Z</time>
      </trkpt>
      <trkpt lat="47.95798" lon="-2.6077">
        <ele>56.5</ele>
        <time>2019-03-29T10:51:59Z</time>
      </trkpt>
      <trkpt lat="47.9579" lon="-2.60828">
        <ele>55.68</ele>
        <time>2019-03-29T10:52:05Z</time>
      </trkpt>
      <trkpt lat="47.95787" lon="-2.60847">
        <ele>55.08</ele>
        <time>2019-03-29T10:52:07Z</time>
      </trkpt>
      <trkpt lat="47.95786" lon="-2.60856">
        <ele>54.87</ele>
        <time>2019-03-29T10:52:08Z</time>
      </trkpt>
      <trkpt lat="47.95785" lon="-2.60864">
        <ele>54.64</ele>
        <time>2019-03-29T10:52:09Z</time>
      </trkpt>
      <trkpt lat="47.95784" lon="-2.60873">
        <ele>54.45</ele>
        <time>2019-03-29T10:52:10Z</time>
      </trkpt>
      <trkpt lat="47.95782" lon="-2.60883">
        <ele>54.27</ele>
        <time>2019-03-29T10:52:11Z</time>
      </trkpt>
      <trkpt lat="47.95778" lon="-2.60912">
        <ele>53.7</ele>
        <time>2019-03-29T10:52:14Z</time>
      </trkpt>
      <trkpt lat="47.9577" lon="-2.60999">
        <ele>52.91</ele>
        <time>2019-03-29T10:52:23Z</time>
      </trkpt>
      <trkpt lat="47.95768" lon="-2.61008">
        <ele>52.81</ele>
        <time>2019-03-29T10:52:24Z</time>
      </trkpt>
      <trkpt lat="47.95764" lon="-2.61028">
        <ele>52.66</ele>
        <time>2019-03-29T10:52:26Z</time>
      </trkpt>
      <trkpt lat="47.95757" lon="-2.61095">
        <ele>52.93</ele>
        <time>2019-03-29T10:52:33Z</time>
      </trkpt>
      <trkpt lat="47.95755" lon="-2.61105">
        <ele>52.99</ele>
        <time>2019-03-29T10:52:34Z</time>
      </trkpt>
      <trkpt lat="47.95754" lon="-2.61114">
        <ele>53.06</ele>
        <time>2019-03-29T10:52:35Z</time>
      </trkpt>
      <trkpt lat="47.95749" lon="-2.61181">
        <ele>53.93</ele>
        <time>2019-03-29T10:52:42Z</time>
      </trkpt>
      <trkpt lat="47.95747" lon="-2.6119">
        <ele>54.08</ele>
        <time>2019-03-29T10:52:43Z</time>
      </trkpt>
      <trkpt lat="47.95746" lon="-2.61199">
        <ele>54.22</ele>
        <time>2019-03-29T10:52:44Z</time>
      </trkpt>
      <trkpt lat="47.95744" lon="-2.61208">
        <ele>54.36</ele>
        <time>2019-03-29T10:52:45Z</time>
      </trkpt>
      <trkpt lat="47.95743" lon="-2.61216">
        <ele>54.5</ele>
        <time>2019-03-29T10:52:46Z</time>
      </trkpt>
      <trkpt lat="47.95739" lon="-2.61244">
        <ele>54.92</ele>
        <time>2019-03-29T10:52:49Z</time>
      </trkpt>
      <trkpt lat="47.95738" lon="-2.61253">
        <ele>55.06</ele>
        <time>2019-03-29T10:52:50Z</time>
      </trkpt>
      <trkpt lat="47.95736" lon="-2.61271">
        <ele>55.32</ele>
        <time>2019-03-29T10:52:52Z</time>
      </trkpt>
      <trkpt lat="47.95735" lon="-2.61287">
        <ele>55.51</ele>
        <time>2019-03-29T10:52:54Z</time>
      </trkpt>
      <trkpt lat="47.95735" lon="-2.61296">
        <ele>55.66</ele>
        <time>2019-03-29T10:52:55Z</time>
      </trkpt>
      <trkpt lat="47.95733" lon="-2.61371">
        <ele>55.7</ele>
        <time>2019-03-29T10:53:02Z</time>
      </trkpt>
      <trkpt lat="47.95732" lon="-2.61381">
        <ele>55.7</ele>
        <time>2019-03-29T10:53:03Z</time>
      </trkpt>
      <trkpt lat="47.95729" lon="-2.61481">
        <ele>55.87</ele>
        <time>2019-03-29T10:53:13Z</time>
      </trkpt>
      <trkpt lat="47.95729" lon="-2.61492">
        <ele>55.83</ele>
        <time>2019-03-29T10:53:14Z</time>
      </trkpt>
      <trkpt lat="47.95728" lon="-2.61521">
        <ele>55.76</ele>
        <time>2019-03-29T10:53:17Z</time>
      </trkpt>
      <trkpt lat="47.95725" lon="-2.61547">
        <ele>55.57</ele>
        <time>2019-03-29T10:53:20Z</time>
      </trkpt>
      <trkpt lat="47.95724" lon="-2.61556">
        <ele>55.5</ele>
        <time>2019-03-29T10:53:21Z</time>
      </trkpt>
      <trkpt lat="47.95723" lon="-2.61565">
        <ele>55.46</ele>
        <time>2019-03-29T10:53:22Z</time>
      </trkpt>
      <trkpt lat="47.95722" lon="-2.61583">
        <ele>55.36</ele>
        <time>2019-03-29T10:53:24Z</time>
      </trkpt>
      <trkpt lat="47.95722" lon="-2.61592">
        <ele>55.34</ele>
        <time>2019-03-29T10:53:25Z</time>
      </trkpt>
      <trkpt lat="47.9572" lon="-2.6162">
        <ele>55.22</ele>
        <time>2019-03-29T10:53:28Z</time>
      </trkpt>
      <trkpt lat="47.95718" lon="-2.61638">
        <ele>55.19</ele>
        <time>2019-03-29T10:53:30Z</time>
      </trkpt>
      <trkpt lat="47.95715" lon="-2.61691">
        <ele>55.2</ele>
        <time>2019-03-29T10:53:35Z</time>
      </trkpt>
      <trkpt lat="47.95713" lon="-2.61701">
        <ele>55.21</ele>
        <time>2019-03-29T10:53:36Z</time>
      </trkpt>
      <trkpt lat="47.95713" lon="-2.61711">
        <ele>55.23</ele>
        <time>2019-03-29T10:53:37Z</time>
      </trkpt>
      <trkpt lat="47.95712" lon="-2.6172">
        <ele>55.25</ele>
        <time>2019-03-29T10:53:38Z</time>
      </trkpt>
      <trkpt lat="47.95711" lon="-2.6173">
        <ele>55.28</ele>
        <time>2019-03-29T10:53:39Z</time>
      </trkpt>
      <trkpt lat="47.95711" lon="-2.61741">
        <ele>55.33</ele>
        <time>2019-03-29T10:53:40Z</time>
      </trkpt>
      <trkpt lat="47.9571" lon="-2.61751">
        <ele>55.38</ele>
        <time>2019-03-29T10:53:41Z</time>
      </trkpt>
      <trkpt lat="47.95709" lon="-2.61808">
        <ele>55.06</ele>
        <time>2019-03-29T10:53:46Z</time>
      </trkpt>
      <trkpt lat="47.95709" lon="-2.61819">
        <ele>54.91</ele>
        <time>2019-03-29T10:53:47Z</time>
      </trkpt>
      <trkpt lat="47.95712" lon="-2.61877">
        <ele>54.03</ele>
        <time>2019-03-29T10:53:52Z</time>
      </trkpt>
      <trkpt lat="47.95714" lon="-2.61887">
        <ele>53.88</ele>
        <time>2019-03-29T10:53:53Z</time>
      </trkpt>
      <trkpt lat="47.95725" lon="-2.61943">
        <ele>53.39</ele>
        <time>2019-03-29T10:53:59Z</time>
      </trkpt>
      <trkpt lat="47.95732" lon="-2.61961">
        <ele>53.53</ele>
        <time>2019-03-29T10:54:01Z</time>
      </trkpt>
      <trkpt lat="47.9575" lon="-2.62006">
        <ele>53.65</ele>
        <time>2019-03-29T10:54:06Z</time>
      </trkpt>
      <trkpt lat="47.95768" lon="-2.62049">
        <ele>53.7</ele>
        <time>2019-03-29T10:54:11Z</time>
      </trkpt>
      <trkpt lat="47.95772" lon="-2.62057">
        <ele>53.74</ele>
        <time>2019-03-29T10:54:12Z</time>
      </trkpt>
      <trkpt lat="47.95782" lon="-2.62075">
        <ele>53.76</ele>
        <time>2019-03-29T10:54:14Z</time>
      </trkpt>
      <trkpt lat="47.95787" lon="-2.62084">
        <ele>53.74</ele>
        <time>2019-03-29T10:54:15Z</time>
      </trkpt>
      <trkpt lat="47.9583" lon="-2.62154">
        <ele>53.15</ele>
        <time>2019-03-29T10:54:24Z</time>
      </trkpt>
      <trkpt lat="47.95835" lon="-2.62162">
        <ele>53.08</ele>
        <time>2019-03-29T10:54:25Z</time>
      </trkpt>
      <trkpt lat="47.95868" lon="-2.62216">
        <ele>53.09</ele>
        <time>2019-03-29T10:54:32Z</time>
      </trkpt>
      <trkpt lat="47.95897" lon="-2.62265">
        <ele>53.79</ele>
        <time>2019-03-29T10:54:39Z</time>
      </trkpt>
      <trkpt lat="47.95938" lon="-2.62304">
        <ele>53.33</ele>
        <time>2019-03-29T10:54:47Z</time>
      </trkpt>
      <trkpt lat="47.95974" lon="-2.62329">
        <ele>53.07</ele>
        <time>2019-03-29T10:54:53Z</time>
      </trkpt>
      <trkpt lat="47.95983" lon="-2.62336">
        <ele>53.13</ele>
        <time>2019-03-29T10:54:55Z</time>
      </trkpt>
      <trkpt lat="47.96012" lon="-2.62357">
        <ele>54.42</ele>
        <time>2019-03-29T10:55:02Z</time>
      </trkpt>
      <trkpt lat="47.96025" lon="-2.62365">
        <ele>54.57</ele>
        <time>2019-03-29T10:55:04Z</time>
      </trkpt>
      <trkpt lat="47.9604" lon="-2.62378">
        <ele>54.54</ele>
        <time>2019-03-29T10:55:07Z</time>
      </trkpt>
      <trkpt lat="47.96062" lon="-2.62399">
        <ele>54.31</ele>
        <time>2019-03-29T10:55:11Z</time>
      </trkpt>
      <trkpt lat="47.96067" lon="-2.62403">
        <ele>54.23</ele>
        <time>2019-03-29T10:55:12Z</time>
      </trkpt>
      <trkpt lat="47.96119" lon="-2.62448">
        <ele>54.36</ele>
        <time>2019-03-29T10:55:21Z</time>
      </trkpt>
      <trkpt lat="47.96133" lon="-2.62458">
        <ele>55.01</ele>
        <time>2019-03-29T10:55:24Z</time>
      </trkpt>
      <trkpt lat="47.96137" lon="-2.62462">
        <ele>55.21</ele>
        <time>2019-03-29T10:55:25Z</time>
      </trkpt>
      <trkpt lat="47.96143" lon="-2.62465">
        <ele>55.39</ele>
        <time>2019-03-29T10:55:26Z</time>
      </trkpt>
      <trkpt lat="47.96169" lon="-2.6248">
        <ele>55.82</ele>
        <time>2019-03-29T10:55:31Z</time>
      </trkpt>
      <trkpt lat="47.9621" lon="-2.62498">
        <ele>54.9</ele>
        <time>2019-03-29T10:55:38Z</time>
      </trkpt>
      <trkpt lat="47.96243" lon="-2.62507">
        <ele>53.96</ele>
        <time>2019-03-29T10:55:44Z</time>
      </trkpt>
      <trkpt lat="47.96303" lon="-2.6252">
        <ele>53.36</ele>
        <time>2019-03-29T10:55:53Z</time>
      </trkpt>
      <trkpt lat="47.96309" lon="-2.62522">
        <ele>53.39</ele>
        <time>2019-03-29T10:55:54Z</time>
      </trkpt>
      <trkpt lat="47.96335" lon="-2.62527">
        <ele>53.95</ele>
        <time>2019-03-29T10:55:58Z</time>
      </trkpt>
      <trkpt lat="47.96357" lon="-2.62532">
        <ele>54.73</ele>
        <time>2019-03-29T10:56:02Z</time>
      </trkpt>
      <trkpt lat="47.96373" lon="-2.62537">
        <ele>55.59</ele>
        <time>2019-03-29T10:56:05Z</time>
      </trkpt>
      <trkpt lat="47.96409" lon="-2.62568">
        <ele>58.66</ele>
        <time>2019-03-29T10:56:13Z</time>
      </trkpt>
      <trkpt lat="47.96441" lon="-2.62598">
        <ele>60.36</ele>
        <time>2019-03-29T10:56:27Z</time>
      </trkpt>
      <trkpt lat="47.96468" lon="-2.62609">
        <ele>60.1</ele>
        <time>2019-03-29T10:56:40Z</time>
      </trkpt>
      <trkpt lat="47.96501" lon="-2.62611">
        <ele>59.09</ele>
        <time>2019-03-29T10:56:56Z</time>
      </trkpt>
      <trkpt lat="47.96521" lon="-2.6259">
        <ele>57.87</ele>
        <time>2019-03-29T10:57:11Z</time>
      </trkpt>
      <trkpt lat="47.96522" lon="-2.6259">
        <ele>57.87</ele>
        <time>2019-03-29T10:57:12Z</time>
      </trkpt>
      <trkpt lat="47.96521" lon="-2.62592">
        <ele>57.91</ele>
        <time>2019-03-29T10:57:14Z</time>
      </trkpt>
      <trkpt lat="47.9652" lon="-2.62592">
        <ele>57.96</ele>
        <time>2019-03-29T10:57:15Z</time>
      </trkpt>
      <trkpt lat="47.96518" lon="-2.62592">
        <ele>58.03</ele>
        <time>2019-03-29T10:57:16Z</time>
      </trkpt>
      <trkpt lat="47.96516" lon="-2.62591">
        <ele>58.11</ele>
        <time>2019-03-29T10:57:22Z</time>
      </trkpt>
      <trkpt lat="47.96518" lon="-2.62572">
        <ele>58.39</ele>
        <time>2019-03-29T10:58:02Z</time>
      </trkpt>
      <trkpt lat="47.96519" lon="-2.6257">
        <ele>58.36</ele>
        <time>2019-03-29T10:58:03Z</time>
      </trkpt>
      <trkpt lat="47.96532" lon="-2.62561">
        <ele>57.84</ele>
        <time>2019-03-29T10:58:16Z</time>
      </trkpt>
      <trkpt lat="47.96554" lon="-2.62553">
        <ele>57.65</ele>
        <time>2019-03-29T10:58:32Z</time>
      </trkpt>
      <trkpt lat="47.96579" lon="-2.62556">
        <ele>57.44</ele>
        <time>2019-03-29T10:58:48Z</time>
      </trkpt>
      <trkpt lat="47.96608" lon="-2.6257">
        <ele>57.16</ele>
        <time>2019-03-29T10:59:05Z</time>
      </trkpt>
      <trkpt lat="47.96632" lon="-2.62572">
        <ele>56.46</ele>
        <time>2019-03-29T10:59:19Z</time>
      </trkpt>
      <trkpt lat="47.96664" lon="-2.62565">
        <ele>55.93</ele>
        <time>2019-03-29T10:59:37Z</time>
      </trkpt>
      <trkpt lat="47.9668" lon="-2.62542">
        <ele>55.46</ele>
        <time>2019-03-29T10:59:51Z</time>
      </trkpt>
      <trkpt lat="47.96693" lon="-2.62498">
        <ele>55.72</ele>
        <time>2019-03-29T11:00:11Z</time>
      </trkpt>
      <trkpt lat="47.9671" lon="-2.62451">
        <ele>57.71</ele>
        <time>2019-03-29T11:00:34Z</time>
      </trkpt>
      <trkpt lat="47.96726" lon="-2.62439">
        <ele>58.76</ele>
        <time>2019-03-29T11:00:47Z</time>
      </trkpt>
      <trkpt lat="47.96732" lon="-2.62438">
        <ele>58.94</ele>
        <time>2019-03-29T11:00:51Z</time>
      </trkpt>
      <trkpt lat="47.96733" lon="-2.62438">
        <ele>58.95</ele>
        <time>2019-03-29T11:00:52Z</time>
      </trkpt>
      <trkpt lat="47.96735" lon="-2.62437">
        <ele>58.96</ele>
        <time>2019-03-29T11:00:53Z</time>
      </trkpt>
      <trkpt lat="47.96736" lon="-2.62437">
        <ele>58.95</ele>
        <time>2019-03-29T11:00:54Z</time>
      </trkpt>
      <trkpt lat="47.96738" lon="-2.62437">
        <ele>58.89</ele>
        <time>2019-03-29T11:00:55Z</time>
      </trkpt>
      <trkpt lat="47.96739" lon="-2.62437">
        <ele>58.83</ele>
        <time>2019-03-29T11:00:56Z</time>
      </trkpt>
      <trkpt lat="47.96741" lon="-2.62436">
        <ele>58.72</ele>
        <time>2019-03-29T11:00:57Z</time>
      </trkpt>
      <trkpt lat="47.96743" lon="-2.62436">
        <ele>58.56</ele>
        <time>2019-03-29T11:00:58Z</time>
      </trkpt>
      <trkpt lat="47.96744" lon="-2.62436">
        <ele>58.36</ele>
        <time>2019-03-29T11:00:59Z</time>
      </trkpt>
      <trkpt lat="47.96746" lon="-2.62435">
        <ele>58.14</ele>
        <time>2019-03-29T11:01:00Z</time>
      </trkpt>
      <trkpt lat="47.96747" lon="-2.62435">
        <ele>57.93</ele>
        <time>2019-03-29T11:01:01Z</time>
      </trkpt>
      <trkpt lat="47.96749" lon="-2.62435">
        <ele>57.7</ele>
        <time>2019-03-29T11:01:02Z</time>
      </trkpt>
      <trkpt lat="47.96751" lon="-2.62435">
        <ele>57.47</ele>
        <time>2019-03-29T11:01:03Z</time>
      </trkpt>
      <trkpt lat="47.96752" lon="-2.62435">
        <ele>57.28</ele>
        <time>2019-03-29T11:01:04Z</time>
      </trkpt>
      <trkpt lat="47.96753" lon="-2.62436">
        <ele>57.12</ele>
        <time>2019-03-29T11:01:05Z</time>
      </trkpt>
      <trkpt lat="47.96755" lon="-2.62436">
        <ele>56.97</ele>
        <time>2019-03-29T11:01:06Z</time>
      </trkpt>
      <trkpt lat="47.9678" lon="-2.62428">
        <ele>55.23</ele>
        <time>2019-03-29T11:01:22Z</time>
      </trkpt>
      <trkpt lat="47.96796" lon="-2.62427">
        <ele>54.84</ele>
        <time>2019-03-29T11:01:34Z</time>
      </trkpt>
      <trkpt lat="47.96798" lon="-2.62427">
        <ele>54.83</ele>
        <time>2019-03-29T11:01:35Z</time>
      </trkpt>
      <trkpt lat="47.96799" lon="-2.62427">
        <ele>54.78</ele>
        <time>2019-03-29T11:01:36Z</time>
      </trkpt>
      <trkpt lat="47.96801" lon="-2.62427">
        <ele>54.74</ele>
        <time>2019-03-29T11:01:37Z</time>
      </trkpt>
      <trkpt lat="47.96803" lon="-2.62427">
        <ele>54.7</ele>
        <time>2019-03-29T11:01:38Z</time>
      </trkpt>
      <trkpt lat="47.96806" lon="-2.62427">
        <ele>54.67</ele>
        <time>2019-03-29T11:01:39Z</time>
      </trkpt>
      <trkpt lat="47.96809" lon="-2.62427">
        <ele>54.64</ele>
        <time>2019-03-29T11:01:40Z</time>
      </trkpt>
      <trkpt lat="47.96812" lon="-2.62427">
        <ele>54.61</ele>
        <time>2019-03-29T11:01:41Z</time>
      </trkpt>
      <trkpt lat="47.96814" lon="-2.62426">
        <ele>54.54</ele>
        <time>2019-03-29T11:01:42Z</time>
      </trkpt>
      <trkpt lat="47.96817" lon="-2.62426">
        <ele>54.48</ele>
        <time>2019-03-29T11:01:43Z</time>
      </trkpt>
      <trkpt lat="47.96821" lon="-2.62426">
        <ele>54.4</ele>
        <time>2019-03-29T11:01:44Z</time>
      </trkpt>
      <trkpt lat="47.96823" lon="-2.62425">
        <ele>54.36</ele>
        <time>2019-03-29T11:01:45Z</time>
      </trkpt>
      <trkpt lat="47.96826" lon="-2.62425">
        <ele>54.32</ele>
        <time>2019-03-29T11:01:46Z</time>
      </trkpt>
      <trkpt lat="47.96829" lon="-2.62425">
        <ele>54.31</ele>
        <time>2019-03-29T11:01:47Z</time>
      </trkpt>
      <trkpt lat="47.96831" lon="-2.62424">
        <ele>54.31</ele>
        <time>2019-03-29T11:01:48Z</time>
      </trkpt>
      <trkpt lat="47.96832" lon="-2.62423">
        <ele>54.35</ele>
        <time>2019-03-29T11:01:49Z</time>
      </trkpt>
      <trkpt lat="47.96834" lon="-2.62423">
        <ele>54.4</ele>
        <time>2019-03-29T11:01:50Z</time>
      </trkpt>
      <trkpt lat="47.96835" lon="-2.62423">
        <ele>54.48</ele>
        <time>2019-03-29T11:01:51Z</time>
      </trkpt>
      <trkpt lat="47.96853" lon="-2.62419">
        <ele>54.64</ele>
        <time>2019-03-29T11:02:04Z</time>
      </trkpt>
      <trkpt lat="47.9688" lon="-2.62415">
        <ele>54.63</ele>
        <time>2019-03-29T11:02:17Z</time>
      </trkpt>
      <trkpt lat="47.9689" lon="-2.62414">
        <ele>54.77</ele>
        <time>2019-03-29T11:02:24Z</time>
      </trkpt>
      <trkpt lat="47.96913" lon="-2.6241">
        <ele>54.93</ele>
        <time>2019-03-29T11:02:38Z</time>
      </trkpt>
      <trkpt lat="47.96935" lon="-2.62401">
        <ele>55.22</ele>
        <time>2019-03-29T11:02:52Z</time>
      </trkpt>
      <trkpt lat="47.96949" lon="-2.62398">
        <ele>54.96</ele>
        <time>2019-03-29T11:03:04Z</time>
      </trkpt>
      <trkpt lat="47.96971" lon="-2.62395">
        <ele>55.03</ele>
        <time>2019-03-29T11:03:18Z</time>
      </trkpt>
      <trkpt lat="47.96976" lon="-2.62392">
        <ele>55.09</ele>
        <time>2019-03-29T11:03:22Z</time>
      </trkpt>
      <trkpt lat="47.96978" lon="-2.6239">
        <ele>55.11</ele>
        <time>2019-03-29T11:03:23Z</time>
      </trkpt>
      <trkpt lat="47.96979" lon="-2.62389">
        <ele>55.15</ele>
        <time>2019-03-29T11:03:24Z</time>
      </trkpt>
      <trkpt lat="47.96981" lon="-2.62388">
        <ele>55.17</ele>
        <time>2019-03-29T11:03:25Z</time>
      </trkpt>
      <trkpt lat="47.96983" lon="-2.62388">
        <ele>55.18</ele>
        <time>2019-03-29T11:03:26Z</time>
      </trkpt>
      <trkpt lat="47.96984" lon="-2.62387">
        <ele>55.18</ele>
        <time>2019-03-29T11:03:27Z</time>
      </trkpt>
      <trkpt lat="47.97009" lon="-2.62382">
        <ele>55.07</ele>
        <time>2019-03-29T11:03:43Z</time>
      </trkpt>
      <trkpt lat="47.97028" lon="-2.62384">
        <ele>55.06</ele>
        <time>2019-03-29T11:03:55Z</time>
      </trkpt>
      <trkpt lat="47.9703" lon="-2.62384">
        <ele>55.06</ele>
        <time>2019-03-29T11:03:56Z</time>
      </trkpt>
      <trkpt lat="47.97031" lon="-2.62383">
        <ele>55.07</ele>
        <time>2019-03-29T11:03:57Z</time>
      </trkpt>
      <trkpt lat="47.97033" lon="-2.62382">
        <ele>55.08</ele>
        <time>2019-03-29T11:03:58Z</time>
      </trkpt>
      <trkpt lat="47.97034" lon="-2.62381">
        <ele>55.06</ele>
        <time>2019-03-29T11:03:59Z</time>
      </trkpt>
      <trkpt lat="47.97035" lon="-2.62381">
        <ele>55.04</ele>
        <time>2019-03-29T11:04:00Z</time>
      </trkpt>
      <trkpt lat="47.97064" lon="-2.62374">
        <ele>55.27</ele>
        <time>2019-03-29T11:04:18Z</time>
      </trkpt>
      <trkpt lat="47.97078" lon="-2.62367">
        <ele>55.06</ele>
        <time>2019-03-29T11:04:26Z</time>
      </trkpt>
      <trkpt lat="47.97096" lon="-2.6235">
        <ele>55.48</ele>
        <time>2019-03-29T11:04:39Z</time>
      </trkpt>
      <trkpt lat="47.97114" lon="-2.62331">
        <ele>55.8</ele>
        <time>2019-03-29T11:04:53Z</time>
      </trkpt>
      <trkpt lat="47.97115" lon="-2.62329">
        <ele>55.8</ele>
        <time>2019-03-29T11:04:54Z</time>
      </trkpt>
      <trkpt lat="47.97116" lon="-2.62328">
        <ele>55.82</ele>
        <time>2019-03-29T11:04:55Z</time>
      </trkpt>
      <trkpt lat="47.97118" lon="-2.62327">
        <ele>55.85</ele>
        <time>2019-03-29T11:04:56Z</time>
      </trkpt>
      <trkpt lat="47.97119" lon="-2.62326">
        <ele>55.86</ele>
        <time>2019-03-29T11:04:57Z</time>
      </trkpt>
      <trkpt lat="47.97121" lon="-2.62326">
        <ele>55.84</ele>
        <time>2019-03-29T11:04:58Z</time>
      </trkpt>
      <trkpt lat="47.97123" lon="-2.62326">
        <ele>55.8</ele>
        <time>2019-03-29T11:04:59Z</time>
      </trkpt>
      <trkpt lat="47.97125" lon="-2.62327">
        <ele>55.76</ele>
        <time>2019-03-29T11:05:00Z</time>
      </trkpt>
      <trkpt lat="47.97126" lon="-2.62327">
        <ele>55.7</ele>
        <time>2019-03-29T11:05:01Z</time>
      </trkpt>
      <trkpt lat="47.9715" lon="-2.62333">
        <ele>55.37</ele>
        <time>2019-03-29T11:05:15Z</time>
      </trkpt>
      <trkpt lat="47.97172" lon="-2.62341">
        <ele>55.66</ele>
        <time>2019-03-29T11:05:28Z</time>
      </trkpt>
      <trkpt lat="47.97193" lon="-2.62348">
        <ele>55.75</ele>
        <time>2019-03-29T11:05:41Z</time>
      </trkpt>
      <trkpt lat="47.97217" lon="-2.62355">
        <ele>55.68</ele>
        <time>2019-03-29T11:05:57Z</time>
      </trkpt>
      <trkpt lat="47.97235" lon="-2.6236">
        <ele>55.74</ele>
        <time>2019-03-29T11:06:08Z</time>
      </trkpt>
      <trkpt lat="47.9726" lon="-2.62368">
        <ele>55.79</ele>
        <time>2019-03-29T11:06:22Z</time>
      </trkpt>
      <trkpt lat="47.97282" lon="-2.62375">
        <ele>55.62</ele>
        <time>2019-03-29T11:06:35Z</time>
      </trkpt>
      <trkpt lat="47.97307" lon="-2.62382">
        <ele>55.72</ele>
        <time>2019-03-29T11:06:51Z</time>
      </trkpt>
      <trkpt lat="47.97332" lon="-2.62393">
        <ele>55.96</ele>
        <time>2019-03-29T11:07:07Z</time>
      </trkpt>
      <trkpt lat="47.97356" lon="-2.62401">
        <ele>55.85</ele>
        <time>2019-03-29T11:07:21Z</time>
      </trkpt>
      <trkpt lat="47.97379" lon="-2.6241">
        <ele>56.88</ele>
        <time>2019-03-29T11:07:34Z</time>
      </trkpt>
      <trkpt lat="47.97403" lon="-2.62416">
        <ele>56.87</ele>
        <time>2019-03-29T11:07:48Z</time>
      </trkpt>
      <trkpt lat="47.97432" lon="-2.62424">
        <ele>56.82</ele>
        <time>2019-03-29T11:08:06Z</time>
      </trkpt>
      <trkpt lat="47.97454" lon="-2.62434">
        <ele>56.62</ele>
        <time>2019-03-29T11:08:20Z</time>
      </trkpt>
      <trkpt lat="47.97479" lon="-2.62453">
        <ele>56.97</ele>
        <time>2019-03-29T11:08:36Z</time>
      </trkpt>
      <trkpt lat="47.975" lon="-2.62475">
        <ele>56.79</ele>
        <time>2019-03-29T11:08:50Z</time>
      </trkpt>
      <trkpt lat="47.97526" lon="-2.62513">
        <ele>57.29</ele>
        <time>2019-03-29T11:09:10Z</time>
      </trkpt>
      <trkpt lat="47.97542" lon="-2.62546">
        <ele>57.28</ele>
        <time>2019-03-29T11:09:26Z</time>
      </trkpt>
      <trkpt lat="47.97558" lon="-2.62574">
        <ele>57.45</ele>
        <time>2019-03-29T11:09:41Z</time>
      </trkpt>
      <trkpt lat="47.97575" lon="-2.6261">
        <ele>57.62</ele>
        <time>2019-03-29T11:09:58Z</time>
      </trkpt>
      <trkpt lat="47.97595" lon="-2.62645">
        <ele>57.89</ele>
        <time>2019-03-29T11:10:17Z</time>
      </trkpt>
      <trkpt lat="47.97603" lon="-2.62663">
        <ele>58.54</ele>
        <time>2019-03-29T11:10:27Z</time>
      </trkpt>
      <trkpt lat="47.97603" lon="-2.62665">
        <ele>58.6</ele>
        <time>2019-03-29T11:10:28Z</time>
      </trkpt>
      <trkpt lat="47.97614" lon="-2.62685">
        <ele>59.9</ele>
        <time>2019-03-29T11:10:42Z</time>
      </trkpt>
      <trkpt lat="47.97621" lon="-2.62689">
        <ele>60.22</ele>
        <time>2019-03-29T11:10:50Z</time>
      </trkpt>
      <trkpt lat="47.97627" lon="-2.62683">
        <ele>60.62</ele>
        <time>2019-03-29T11:10:56Z</time>
      </trkpt>
      <trkpt lat="47.97628" lon="-2.62681">
        <ele>60.66</ele>
        <time>2019-03-29T11:10:57Z</time>
      </trkpt>
      <trkpt lat="47.97629" lon="-2.6268">
        <ele>60.7</ele>
        <time>2019-03-29T11:10:58Z</time>
      </trkpt>
      <trkpt lat="47.9763" lon="-2.62679">
        <ele>60.72</ele>
        <time>2019-03-29T11:10:59Z</time>
      </trkpt>
      <trkpt lat="47.97631" lon="-2.62678">
        <ele>60.72</ele>
        <time>2019-03-29T11:11:00Z</time>
      </trkpt>
      <trkpt lat="47.97633" lon="-2.62676">
        <ele>60.71</ele>
        <time>2019-03-29T11:11:01Z</time>
      </trkpt>
      <trkpt lat="47.97634" lon="-2.62675">
        <ele>60.69</ele>
        <time>2019-03-29T11:11:02Z</time>
      </trkpt>
      <trkpt lat="47.97635" lon="-2.62673">
        <ele>60.67</ele>
        <time>2019-03-29T11:11:03Z</time>
      </trkpt>
      <trkpt lat="47.97637" lon="-2.62672">
        <ele>60.64</ele>
        <time>2019-03-29T11:11:04Z</time>
      </trkpt>
      <trkpt lat="47.97659" lon="-2.62652">
        <ele>59.51</ele>
        <time>2019-03-29T11:11:20Z</time>
      </trkpt>
      <trkpt lat="47.97684" lon="-2.62615">
        <ele>56.84</ele>
        <time>2019-03-29T11:11:39Z</time>
      </trkpt>
      <trkpt lat="47.97708" lon="-2.62584">
        <ele>57.1</ele>
        <time>2019-03-29T11:11:57Z</time>
      </trkpt>
      <trkpt lat="47.97731" lon="-2.62559">
        <ele>57.37</ele>
        <time>2019-03-29T11:12:11Z</time>
      </trkpt>
      <trkpt lat="47.97751" lon="-2.62537">
        <ele>57.2</ele>
        <time>2019-03-29T11:12:21Z</time>
      </trkpt>
      <trkpt lat="47.97769" lon="-2.62508">
        <ele>57.46</ele>
        <time>2019-03-29T11:12:36Z</time>
      </trkpt>
      <trkpt lat="47.97781" lon="-2.62476">
        <ele>56.88</ele>
        <time>2019-03-29T11:12:50Z</time>
      </trkpt>
      <trkpt lat="47.97784" lon="-2.6247">
        <ele>56.94</ele>
        <time>2019-03-29T11:12:56Z</time>
      </trkpt>
      <trkpt lat="47.97785" lon="-2.62468">
        <ele>56.94</ele>
        <time>2019-03-29T11:12:57Z</time>
      </trkpt>
      <trkpt lat="47.97785" lon="-2.62467">
        <ele>56.94</ele>
        <time>2019-03-29T11:12:58Z</time>
      </trkpt>
      <trkpt lat="47.97798" lon="-2.62438">
        <ele>56.78</ele>
        <time>2019-03-29T11:13:14Z</time>
      </trkpt>
      <trkpt lat="47.97806" lon="-2.62412">
        <ele>56.61</ele>
        <time>2019-03-29T11:13:26Z</time>
      </trkpt>
      <trkpt lat="47.97807" lon="-2.6241">
        <ele>56.56</ele>
        <time>2019-03-29T11:13:27Z</time>
      </trkpt>
      <trkpt lat="47.97807" lon="-2.62408">
        <ele>56.51</ele>
        <time>2019-03-29T11:13:28Z</time>
      </trkpt>
      <trkpt lat="47.97808" lon="-2.62406">
        <ele>56.47</ele>
        <time>2019-03-29T11:13:29Z</time>
      </trkpt>
      <trkpt lat="47.97809" lon="-2.62405">
        <ele>56.45</ele>
        <time>2019-03-29T11:13:30Z</time>
      </trkpt>
      <trkpt lat="47.97813" lon="-2.62392">
        <ele>56.94</ele>
        <time>2019-03-29T11:13:42Z</time>
      </trkpt>
      <trkpt lat="47.97825" lon="-2.62347">
        <ele>57.77</ele>
        <time>2019-03-29T11:14:42Z</time>
      </trkpt>
      <trkpt lat="47.97824" lon="-2.62348">
        <ele>57.29</ele>
        <time>2019-03-29T11:14:46Z</time>
      </trkpt>
      <trkpt lat="47.97881" lon="-2.62339">
        <ele>58.93</ele>
        <time>2019-03-29T11:18:38Z</time>
      </trkpt>
      <trkpt lat="47.97889" lon="-2.62323">
        <ele>59.71</ele>
        <time>2019-03-29T11:18:52Z</time>
      </trkpt>
      <trkpt lat="47.97894" lon="-2.62304">
        <ele>60.64</ele>
        <time>2019-03-29T11:19:08Z</time>
      </trkpt>
      <trkpt lat="47.97896" lon="-2.623">
        <ele>60.83</ele>
        <time>2019-03-29T11:19:16Z</time>
      </trkpt>
      <trkpt lat="47.97891" lon="-2.6228">
        <ele>61.06</ele>
        <time>2019-03-29T11:24:54Z</time>
      </trkpt>
      <trkpt lat="47.97893" lon="-2.62285">
        <ele>60.86</ele>
        <time>2019-03-29T11:25:00Z</time>
      </trkpt>
      <trkpt lat="47.97893" lon="-2.6229">
        <ele>60.79</ele>
        <time>2019-03-29T11:25:03Z</time>
      </trkpt>
      <trkpt lat="47.97895" lon="-2.62297">
        <ele>60.92</ele>
        <time>2019-03-29T11:25:07Z</time>
      </trkpt>
      <trkpt lat="47.97896" lon="-2.62305">
        <ele>61.01</ele>
        <time>2019-03-29T11:25:12Z</time>
      </trkpt>
      <trkpt lat="47.97892" lon="-2.62312">
        <ele>60.82</ele>
        <time>2019-03-29T11:25:21Z</time>
      </trkpt>
      <trkpt lat="47.97848" lon="-2.62252">
        <ele>7.9</ele>
        <time>2019-03-29T12:47:05Z</time>
      </trkpt>
      <trkpt lat="47.97847" lon="-2.62249">
        <ele>7.9</ele>
        <time>2019-03-29T12:47:06Z</time>
      </trkpt>
      <trkpt lat="47.97865" lon="-2.6224">
        <ele>8.04</ele>
        <time>2019-03-29T12:47:35Z</time>
      </trkpt>
      <trkpt lat="47.97894" lon="-2.62257">
        <ele>11.71</ele>
        <time>2019-03-29T13:07:11Z</time>
      </trkpt>
      <trkpt lat="47.97897" lon="-2.62263">
        <ele>11.84</ele>
        <time>2019-03-29T13:07:16Z</time>
      </trkpt>
      <trkpt lat="47.97899" lon="-2.62277">
        <ele>11.92</ele>
        <time>2019-03-29T13:07:30Z</time>
      </trkpt>
      <trkpt lat="47.97899" lon="-2.62279">
        <ele>11.72</ele>
        <time>2019-03-29T13:07:41Z</time>
      </trkpt>
      <trkpt lat="47.9789" lon="-2.62287">
        <ele>11.24</ele>
        <time>2019-03-29T13:07:55Z</time>
      </trkpt>
      <trkpt lat="47.9788" lon="-2.62292">
        <ele>10.91</ele>
        <time>2019-03-29T13:08:29Z</time>
      </trkpt>
      <trkpt lat="47.97879" lon="-2.62293">
        <ele>10.93</ele>
        <time>2019-03-29T13:08:33Z</time>
      </trkpt>
      <trkpt lat="47.97882" lon="-2.62296">
        <ele>11.09</ele>
        <time>2019-03-29T13:08:44Z</time>
      </trkpt>
      <trkpt lat="47.97883" lon="-2.62297">
        <ele>11.11</ele>
        <time>2019-03-29T13:08:45Z</time>
      </trkpt>
      <trkpt lat="47.97889" lon="-2.62306">
        <ele>11.07</ele>
        <time>2019-03-29T13:08:59Z</time>
      </trkpt>
      <trkpt lat="47.97895" lon="-2.62315">
        <ele>11.31</ele>
        <time>2019-03-29T13:09:15Z</time>
      </trkpt>
      <trkpt lat="47.97895" lon="-2.62315">
        <ele>10.93</ele>
        <time>2019-03-29T13:09:28Z</time>
      </trkpt>
      <trkpt lat="47.97898" lon="-2.62314">
        <ele>11.1</ele>
        <time>2019-03-29T13:09:42Z</time>
      </trkpt>
      <trkpt lat="47.97899" lon="-2.62314">
        <ele>11.03</ele>
        <time>2019-03-29T13:09:48Z</time>
      </trkpt>
      <trkpt lat="47.97897" lon="-2.6229">
        <ele>11.85</ele>
        <time>2019-03-29T13:10:19Z</time>
      </trkpt>
      <trkpt lat="47.97896" lon="-2.62282">
        <ele>11.76</ele>
        <time>2019-03-29T13:10:33Z</time>
      </trkpt>
      <trkpt lat="47.97897" lon="-2.62281">
        <ele>11.86</ele>
        <time>2019-03-29T13:10:48Z</time>
      </trkpt>
      <trkpt lat="47.97894" lon="-2.62275">
        <ele>12.13</ele>
        <time>2019-03-29T13:11:04Z</time>
      </trkpt>
      <trkpt lat="47.97895" lon="-2.62278">
        <ele>12.4</ele>
        <time>2019-03-29T13:11:13Z</time>
      </trkpt>
      <trkpt lat="47.97901" lon="-2.62284">
        <ele>12.31</ele>
        <time>2019-03-29T13:11:25Z</time>
      </trkpt>
      <trkpt lat="47.97908" lon="-2.62291">
        <ele>12.68</ele>
        <time>2019-03-29T13:11:42Z</time>
      </trkpt>
      <trkpt lat="47.97907" lon="-2.62291">
        <ele>13.11</ele>
        <time>2019-03-29T13:11:51Z</time>
      </trkpt>
      <trkpt lat="47.97904" lon="-2.62287">
        <ele>13.22</ele>
        <time>2019-03-29T13:11:55Z</time>
      </trkpt>
      <trkpt lat="47.97903" lon="-2.6228">
        <ele>13.41</ele>
        <time>2019-03-29T13:12:12Z</time>
      </trkpt>
      <trkpt lat="47.97904" lon="-2.6228">
        <ele>13.23</ele>
        <time>2019-03-29T13:12:23Z</time>
      </trkpt>
      <trkpt lat="47.97899" lon="-2.62277">
        <ele>13.09</ele>
        <time>2019-03-29T13:12:37Z</time>
      </trkpt>
      <trkpt lat="47.979" lon="-2.6228">
        <ele>12.64</ele>
        <time>2019-03-29T13:12:53Z</time>
      </trkpt>
      <trkpt lat="47.97899" lon="-2.6228">
        <ele>12.53</ele>
        <time>2019-03-29T13:12:58Z</time>
      </trkpt>
      <trkpt lat="47.97895" lon="-2.6228">
        <ele>12.68</ele>
        <time>2019-03-29T13:14:12Z</time>
      </trkpt>
      <trkpt lat="47.97896" lon="-2.62283">
        <ele>12.68</ele>
        <time>2019-03-29T13:14:14Z</time>
      </trkpt>
      <trkpt lat="47.97894" lon="-2.62314">
        <ele>12.14</ele>
        <time>2019-03-29T13:14:31Z</time>
      </trkpt>
      <trkpt lat="47.97894" lon="-2.62314">
        <ele>12.4</ele>
        <time>2019-03-29T13:14:50Z</time>
      </trkpt>
      <trkpt lat="47.97893" lon="-2.62316">
        <ele>12.39</ele>
        <time>2019-03-29T13:15:01Z</time>
      </trkpt>
      <trkpt lat="47.97891" lon="-2.6232">
        <ele>11.78</ele>
        <time>2019-03-29T13:17:30Z</time>
      </trkpt>
      <trkpt lat="47.97889" lon="-2.62324">
        <ele>11.61</ele>
        <time>2019-03-29T13:17:33Z</time>
      </trkpt>
      <trkpt lat="47.97884" lon="-2.62338">
        <ele>10.84</ele>
        <time>2019-03-29T13:17:44Z</time>
      </trkpt>
      <trkpt lat="47.97879" lon="-2.62347">
        <ele>10.57</ele>
        <time>2019-03-29T13:17:49Z</time>
      </trkpt>
      <trkpt lat="47.97871" lon="-2.62355">
        <ele>9.99</ele>
        <time>2019-03-29T13:17:58Z</time>
      </trkpt>
      <trkpt lat="47.97867" lon="-2.62359">
        <ele>9.89</ele>
        <time>2019-03-29T13:18:02Z</time>
      </trkpt>
      <trkpt lat="47.97862" lon="-2.62359">
        <ele>9.7</ele>
        <time>2019-03-29T13:18:05Z</time>
      </trkpt>
      <trkpt lat="47.97857" lon="-2.6236">
        <ele>9.59</ele>
        <time>2019-03-29T13:18:08Z</time>
      </trkpt>
      <trkpt lat="47.97854" lon="-2.62362">
        <ele>9.54</ele>
        <time>2019-03-29T13:18:10Z</time>
      </trkpt>
      <trkpt lat="47.97831" lon="-2.62349">
        <ele>9.35</ele>
        <time>2019-03-29T13:18:28Z</time>
      </trkpt>
      <trkpt lat="47.97826" lon="-2.62366">
        <ele>9.8</ele>
        <time>2019-03-29T13:18:46Z</time>
      </trkpt>
      <trkpt lat="47.97822" lon="-2.62386">
        <ele>10</ele>
        <time>2019-03-29T13:19:05Z</time>
      </trkpt>
      <trkpt lat="47.9782" lon="-2.62393">
        <ele>9.81</ele>
        <time>2019-03-29T13:19:12Z</time>
      </trkpt>
      <trkpt lat="47.97819" lon="-2.62396">
        <ele>9.72</ele>
        <time>2019-03-29T13:19:14Z</time>
      </trkpt>
      <trkpt lat="47.97808" lon="-2.62422">
        <ele>9.37</ele>
        <time>2019-03-29T13:19:31Z</time>
      </trkpt>
      <trkpt lat="47.97796" lon="-2.62445">
        <ele>9.32</ele>
        <time>2019-03-29T13:19:47Z</time>
      </trkpt>
      <trkpt lat="47.97791" lon="-2.62462">
        <ele>9.06</ele>
        <time>2019-03-29T13:19:58Z</time>
      </trkpt>
      <trkpt lat="47.97779" lon="-2.62504">
        <ele>9.2</ele>
        <time>2019-03-29T13:20:19Z</time>
      </trkpt>
      <trkpt lat="47.97764" lon="-2.62531">
        <ele>9.47</ele>
        <time>2019-03-29T13:20:35Z</time>
      </trkpt>
      <trkpt lat="47.97741" lon="-2.6256">
        <ele>10.13</ele>
        <time>2019-03-29T13:20:56Z</time>
      </trkpt>
      <trkpt lat="47.97719" lon="-2.62583">
        <ele>10.17</ele>
        <time>2019-03-29T13:21:15Z</time>
      </trkpt>
      <trkpt lat="47.97695" lon="-2.62611">
        <ele>10.04</ele>
        <time>2019-03-29T13:21:35Z</time>
      </trkpt>
      <trkpt lat="47.97672" lon="-2.62639">
        <ele>10.31</ele>
        <time>2019-03-29T13:21:55Z</time>
      </trkpt>
      <trkpt lat="47.97653" lon="-2.62662">
        <ele>11.16</ele>
        <time>2019-03-29T13:22:13Z</time>
      </trkpt>
      <trkpt lat="47.97636" lon="-2.6268">
        <ele>12.99</ele>
        <time>2019-03-29T13:22:30Z</time>
      </trkpt>
      <trkpt lat="47.9763" lon="-2.6269">
        <ele>13.95</ele>
        <time>2019-03-29T13:22:43Z</time>
      </trkpt>
      <trkpt lat="47.97629" lon="-2.62692">
        <ele>14.04</ele>
        <time>2019-03-29T13:22:45Z</time>
      </trkpt>
      <trkpt lat="47.97613" lon="-2.62707">
        <ele>13.87</ele>
        <time>2019-03-29T13:23:02Z</time>
      </trkpt>
      <trkpt lat="47.97593" lon="-2.62718">
        <ele>13.44</ele>
        <time>2019-03-29T13:23:19Z</time>
      </trkpt>
      <trkpt lat="47.97594" lon="-2.62717">
        <ele>13.37</ele>
        <time>2019-03-29T13:23:29Z</time>
      </trkpt>
      <trkpt lat="47.97596" lon="-2.62719">
        <ele>13.99</ele>
        <time>2019-03-29T13:23:41Z</time>
      </trkpt>
      <trkpt lat="47.97594" lon="-2.62723">
        <ele>14.4</ele>
        <time>2019-03-29T13:23:59Z</time>
      </trkpt>
      <trkpt lat="47.97593" lon="-2.62724">
        <ele>14.31</ele>
        <time>2019-03-29T13:24:04Z</time>
      </trkpt>
      <trkpt lat="47.97589" lon="-2.62724">
        <ele>14.22</ele>
        <time>2019-03-29T13:24:07Z</time>
      </trkpt>
      <trkpt lat="47.97561" lon="-2.62732">
        <ele>14.99</ele>
        <time>2019-03-29T13:24:27Z</time>
      </trkpt>
      <trkpt lat="47.97548" lon="-2.62735">
        <ele>16.29</ele>
        <time>2019-03-29T13:24:45Z</time>
      </trkpt>
      <trkpt lat="47.97547" lon="-2.62735">
        <ele>16.44</ele>
        <time>2019-03-29T13:24:49Z</time>
      </trkpt>
      <trkpt lat="47.97545" lon="-2.62735">
        <ele>16.48</ele>
        <time>2019-03-29T13:24:51Z</time>
      </trkpt>
      <trkpt lat="47.9752" lon="-2.62743">
        <ele>17.87</ele>
        <time>2019-03-29T13:25:09Z</time>
      </trkpt>
      <trkpt lat="47.97497" lon="-2.62757">
        <ele>20.04</ele>
        <time>2019-03-29T13:25:27Z</time>
      </trkpt>
      <trkpt lat="47.97479" lon="-2.62771">
        <ele>21.99</ele>
        <time>2019-03-29T13:25:43Z</time>
      </trkpt>
      <trkpt lat="47.97453" lon="-2.62796">
        <ele>24.11</ele>
        <time>2019-03-29T13:26:03Z</time>
      </trkpt>
      <trkpt lat="47.97421" lon="-2.62823">
        <ele>25.94</ele>
        <time>2019-03-29T13:26:27Z</time>
      </trkpt>
      <trkpt lat="47.9739" lon="-2.62851">
        <ele>27.6</ele>
        <time>2019-03-29T13:26:51Z</time>
      </trkpt>
      <trkpt lat="47.97356" lon="-2.62881">
        <ele>27.76</ele>
        <time>2019-03-29T13:27:16Z</time>
      </trkpt>
      <trkpt lat="47.97327" lon="-2.62907">
        <ele>27.91</ele>
        <time>2019-03-29T13:27:38Z</time>
      </trkpt>
      <trkpt lat="47.97298" lon="-2.62932">
        <ele>28.65</ele>
        <time>2019-03-29T13:27:59Z</time>
      </trkpt>
      <trkpt lat="47.97275" lon="-2.62952">
        <ele>28.87</ele>
        <time>2019-03-29T13:28:16Z</time>
      </trkpt>
      <trkpt lat="47.97241" lon="-2.62983">
        <ele>29.54</ele>
        <time>2019-03-29T13:28:40Z</time>
      </trkpt>
      <trkpt lat="47.97203" lon="-2.63017">
        <ele>31.22</ele>
        <time>2019-03-29T13:29:07Z</time>
      </trkpt>
      <trkpt lat="47.97168" lon="-2.63047">
        <ele>33.46</ele>
        <time>2019-03-29T13:29:32Z</time>
      </trkpt>
      <trkpt lat="47.9714" lon="-2.63067">
        <ele>35.28</ele>
        <time>2019-03-29T13:29:53Z</time>
      </trkpt>
      <trkpt lat="47.97109" lon="-2.63086">
        <ele>37.45</ele>
        <time>2019-03-29T13:30:16Z</time>
      </trkpt>
      <trkpt lat="47.97079" lon="-2.63093">
        <ele>38.69</ele>
        <time>2019-03-29T13:30:37Z</time>
      </trkpt>
      <trkpt lat="47.97047" lon="-2.63095">
        <ele>40.28</ele>
        <time>2019-03-29T13:31:00Z</time>
      </trkpt>
      <trkpt lat="47.97025" lon="-2.63104">
        <ele>41.44</ele>
        <time>2019-03-29T13:31:16Z</time>
      </trkpt>
      <trkpt lat="47.96996" lon="-2.6313">
        <ele>42.24</ele>
        <time>2019-03-29T13:31:38Z</time>
      </trkpt>
      <trkpt lat="47.96966" lon="-2.63146">
        <ele>43.14</ele>
        <time>2019-03-29T13:31:58Z</time>
      </trkpt>
      <trkpt lat="47.96938" lon="-2.63165">
        <ele>44.56</ele>
        <time>2019-03-29T13:32:18Z</time>
      </trkpt>
      <trkpt lat="47.96921" lon="-2.63175">
        <ele>46.31</ele>
        <time>2019-03-29T13:32:35Z</time>
      </trkpt>
      <trkpt lat="47.9692" lon="-2.63175">
        <ele>46.36</ele>
        <time>2019-03-29T13:32:36Z</time>
      </trkpt>
      <trkpt lat="47.96917" lon="-2.63176">
        <ele>46.43</ele>
        <time>2019-03-29T13:32:39Z</time>
      </trkpt>
      <trkpt lat="47.96903" lon="-2.63165">
        <ele>47.16</ele>
        <time>2019-03-29T13:32:53Z</time>
      </trkpt>
      <trkpt lat="47.96893" lon="-2.63122">
        <ele>46.71</ele>
        <time>2019-03-29T13:33:13Z</time>
      </trkpt>
      <trkpt lat="47.96881" lon="-2.63075">
        <ele>45.77</ele>
        <time>2019-03-29T13:33:34Z</time>
      </trkpt>
      <trkpt lat="47.96871" lon="-2.63028">
        <ele>44.41</ele>
        <time>2019-03-29T13:33:55Z</time>
      </trkpt>
      <trkpt lat="47.96849" lon="-2.63011">
        <ele>44.38</ele>
        <time>2019-03-29T13:34:10Z</time>
      </trkpt>
      <trkpt lat="47.96816" lon="-2.62997">
        <ele>45.05</ele>
        <time>2019-03-29T13:34:31Z</time>
      </trkpt>
      <trkpt lat="47.96799" lon="-2.63005">
        <ele>44.79</ele>
        <time>2019-03-29T13:34:44Z</time>
      </trkpt>
      <trkpt lat="47.96792" lon="-2.63053">
        <ele>45</ele>
        <time>2019-03-29T13:35:05Z</time>
      </trkpt>
      <trkpt lat="47.9678" lon="-2.63094">
        <ele>44.33</ele>
        <time>2019-03-29T13:35:25Z</time>
      </trkpt>
      <trkpt lat="47.96763" lon="-2.63133">
        <ele>43.06</ele>
        <time>2019-03-29T13:35:45Z</time>
      </trkpt>
      <trkpt lat="47.96743" lon="-2.63163">
        <ele>40.86</ele>
        <time>2019-03-29T13:36:02Z</time>
      </trkpt>
      <trkpt lat="47.96717" lon="-2.63168">
        <ele>37.67</ele>
        <time>2019-03-29T13:36:18Z</time>
      </trkpt>
      <trkpt lat="47.96696" lon="-2.63171">
        <ele>34.49</ele>
        <time>2019-03-29T13:36:30Z</time>
      </trkpt>
      <trkpt lat="47.96677" lon="-2.63173">
        <ele>31.29</ele>
        <time>2019-03-29T13:36:41Z</time>
      </trkpt>
      <trkpt lat="47.96654" lon="-2.63177">
        <ele>28.16</ele>
        <time>2019-03-29T13:36:54Z</time>
      </trkpt>
      <trkpt lat="47.96632" lon="-2.63179">
        <ele>25.06</ele>
        <time>2019-03-29T13:37:06Z</time>
      </trkpt>
      <trkpt lat="47.96608" lon="-2.63182">
        <ele>21.95</ele>
        <time>2019-03-29T13:37:20Z</time>
      </trkpt>
      <trkpt lat="47.96588" lon="-2.63185">
        <ele>18.92</ele>
        <time>2019-03-29T13:37:31Z</time>
      </trkpt>
      <trkpt lat="47.96587" lon="-2.63188">
        <ele>18.63</ele>
        <time>2019-03-29T13:37:32Z</time>
      </trkpt>
      <trkpt lat="47.96586" lon="-2.63191">
        <ele>18.35</ele>
        <time>2019-03-29T13:37:33Z</time>
      </trkpt>
      <trkpt lat="47.96585" lon="-2.63197">
        <ele>18.07</ele>
        <time>2019-03-29T13:37:34Z</time>
      </trkpt>
      <trkpt lat="47.96584" lon="-2.6323">
        <ele>16.26</ele>
        <time>2019-03-29T13:37:43Z</time>
      </trkpt>
      <trkpt lat="47.96584" lon="-2.63272">
        <ele>15.94</ele>
        <time>2019-03-29T13:37:59Z</time>
      </trkpt>
      <trkpt lat="47.96583" lon="-2.63316">
        <ele>16.58</ele>
        <time>2019-03-29T13:38:17Z</time>
      </trkpt>
      <trkpt lat="47.96575" lon="-2.63373">
        <ele>17.14</ele>
        <time>2019-03-29T13:38:40Z</time>
      </trkpt>
      <trkpt lat="47.96565" lon="-2.63437">
        <ele>17.52</ele>
        <time>2019-03-29T13:39:07Z</time>
      </trkpt>
      <trkpt lat="47.96558" lon="-2.63489">
        <ele>18.24</ele>
        <time>2019-03-29T13:39:28Z</time>
      </trkpt>
      <trkpt lat="47.96556" lon="-2.63544">
        <ele>18.21</ele>
        <time>2019-03-29T13:39:50Z</time>
      </trkpt>
      <trkpt lat="47.96559" lon="-2.63573">
        <ele>18.34</ele>
        <time>2019-03-29T13:40:04Z</time>
      </trkpt>
      <trkpt lat="47.9656" lon="-2.6358">
        <ele>18.33</ele>
        <time>2019-03-29T13:40:07Z</time>
      </trkpt>
      <trkpt lat="47.9656" lon="-2.63582">
        <ele>18.34</ele>
        <time>2019-03-29T13:40:08Z</time>
      </trkpt>
      <trkpt lat="47.9656" lon="-2.63585">
        <ele>18.36</ele>
        <time>2019-03-29T13:40:09Z</time>
      </trkpt>
      <trkpt lat="47.96561" lon="-2.63588">
        <ele>18.36</ele>
        <time>2019-03-29T13:40:10Z</time>
      </trkpt>
      <trkpt lat="47.96562" lon="-2.6359">
        <ele>18.37</ele>
        <time>2019-03-29T13:40:11Z</time>
      </trkpt>
      <trkpt lat="47.96562" lon="-2.63592">
        <ele>18.35</ele>
        <time>2019-03-29T13:40:12Z</time>
      </trkpt>
      <trkpt lat="47.96562" lon="-2.63594">
        <ele>18.34</ele>
        <time>2019-03-29T13:40:13Z</time>
      </trkpt>
      <trkpt lat="47.96568" lon="-2.63621">
        <ele>18.32</ele>
        <time>2019-03-29T13:40:19Z</time>
      </trkpt>
      <trkpt lat="47.96569" lon="-2.63628">
        <ele>18.31</ele>
        <time>2019-03-29T13:40:20Z</time>
      </trkpt>
      <trkpt lat="47.9657" lon="-2.63635">
        <ele>18.28</ele>
        <time>2019-03-29T13:40:21Z</time>
      </trkpt>
      <trkpt lat="47.96571" lon="-2.63642">
        <ele>18.24</ele>
        <time>2019-03-29T13:40:22Z</time>
      </trkpt>
      <trkpt lat="47.96572" lon="-2.63648">
        <ele>18.2</ele>
        <time>2019-03-29T13:40:23Z</time>
      </trkpt>
      <trkpt lat="47.96576" lon="-2.63671">
        <ele>18.05</ele>
        <time>2019-03-29T13:40:26Z</time>
      </trkpt>
      <trkpt lat="47.96582" lon="-2.6373">
        <ele>17.21</ele>
        <time>2019-03-29T13:40:32Z</time>
      </trkpt>
      <trkpt lat="47.96582" lon="-2.63739">
        <ele>17.23</ele>
        <time>2019-03-29T13:40:33Z</time>
      </trkpt>
      <trkpt lat="47.96582" lon="-2.63759">
        <ele>17.22</ele>
        <time>2019-03-29T13:40:35Z</time>
      </trkpt>
      <trkpt lat="47.96582" lon="-2.63779">
        <ele>17.13</ele>
        <time>2019-03-29T13:40:37Z</time>
      </trkpt>
      <trkpt lat="47.96582" lon="-2.63789">
        <ele>17.05</ele>
        <time>2019-03-29T13:40:38Z</time>
      </trkpt>
      <trkpt lat="47.96581" lon="-2.63799">
        <ele>16.95</ele>
        <time>2019-03-29T13:40:39Z</time>
      </trkpt>
      <trkpt lat="47.96569" lon="-2.63935">
        <ele>16.77</ele>
        <time>2019-03-29T13:40:52Z</time>
      </trkpt>
      <trkpt lat="47.96566" lon="-2.64071">
        <ele>18.82</ele>
        <time>2019-03-29T13:41:05Z</time>
      </trkpt>
      <trkpt lat="47.96567" lon="-2.64196">
        <ele>19.4</ele>
        <time>2019-03-29T13:41:17Z</time>
      </trkpt>
      <trkpt lat="47.96569" lon="-2.64225">
        <ele>19.79</ele>
        <time>2019-03-29T13:41:20Z</time>
      </trkpt>
      <trkpt lat="47.9657" lon="-2.64235">
        <ele>19.91</ele>
        <time>2019-03-29T13:41:21Z</time>
      </trkpt>
      <trkpt lat="47.96572" lon="-2.64245">
        <ele>20.01</ele>
        <time>2019-03-29T13:41:22Z</time>
      </trkpt>
      <trkpt lat="47.96575" lon="-2.64263">
        <ele>20.21</ele>
        <time>2019-03-29T13:41:24Z</time>
      </trkpt>
      <trkpt lat="47.96611" lon="-2.64367">
        <ele>20.58</ele>
        <time>2019-03-29T13:41:35Z</time>
      </trkpt>
      <trkpt lat="47.96656" lon="-2.64483">
        <ele>21.64</ele>
        <time>2019-03-29T13:41:48Z</time>
      </trkpt>
      <trkpt lat="47.96658" lon="-2.64492">
        <ele>22.03</ele>
        <time>2019-03-29T13:41:49Z</time>
      </trkpt>
      <trkpt lat="47.96661" lon="-2.64499">
        <ele>22.33</ele>
        <time>2019-03-29T13:41:50Z</time>
      </trkpt>
      <trkpt lat="47.96664" lon="-2.64507">
        <ele>22.64</ele>
        <time>2019-03-29T13:41:51Z</time>
      </trkpt>
      <trkpt lat="47.96672" lon="-2.64533">
        <ele>24.11</ele>
        <time>2019-03-29T13:41:55Z</time>
      </trkpt>
      <trkpt lat="47.96674" lon="-2.6454">
        <ele>24.44</ele>
        <time>2019-03-29T13:41:56Z</time>
      </trkpt>
      <trkpt lat="47.96677" lon="-2.64549">
        <ele>24.72</ele>
        <time>2019-03-29T13:41:57Z</time>
      </trkpt>
      <trkpt lat="47.9668" lon="-2.64557">
        <ele>25.01</ele>
        <time>2019-03-29T13:41:58Z</time>
      </trkpt>
      <trkpt lat="47.96684" lon="-2.64567">
        <ele>25.18</ele>
        <time>2019-03-29T13:41:59Z</time>
      </trkpt>
      <trkpt lat="47.96694" lon="-2.64596">
        <ele>25.62</ele>
        <time>2019-03-29T13:42:02Z</time>
      </trkpt>
      <trkpt lat="47.96718" lon="-2.64721">
        <ele>26.86</ele>
        <time>2019-03-29T13:42:14Z</time>
      </trkpt>
      <trkpt lat="47.96719" lon="-2.64731">
        <ele>27.04</ele>
        <time>2019-03-29T13:42:15Z</time>
      </trkpt>
      <trkpt lat="47.9672" lon="-2.64742">
        <ele>27.26</ele>
        <time>2019-03-29T13:42:16Z</time>
      </trkpt>
      <trkpt lat="47.96722" lon="-2.64753">
        <ele>27.48</ele>
        <time>2019-03-29T13:42:17Z</time>
      </trkpt>
      <trkpt lat="47.96724" lon="-2.64764">
        <ele>27.73</ele>
        <time>2019-03-29T13:42:18Z</time>
      </trkpt>
      <trkpt lat="47.96732" lon="-2.64808">
        <ele>28.96</ele>
        <time>2019-03-29T13:42:22Z</time>
      </trkpt>
      <trkpt lat="47.96736" lon="-2.64819">
        <ele>29.18</ele>
        <time>2019-03-29T13:42:23Z</time>
      </trkpt>
      <trkpt lat="47.9674" lon="-2.64829">
        <ele>29.36</ele>
        <time>2019-03-29T13:42:24Z</time>
      </trkpt>
      <trkpt lat="47.96794" lon="-2.64946">
        <ele>31.77</ele>
        <time>2019-03-29T13:42:36Z</time>
      </trkpt>
      <trkpt lat="47.96801" lon="-2.65005">
        <ele>32.85</ele>
        <time>2019-03-29T13:42:41Z</time>
      </trkpt>
      <trkpt lat="47.968" lon="-2.65016">
        <ele>32.88</ele>
        <time>2019-03-29T13:42:42Z</time>
      </trkpt>
      <trkpt lat="47.96791" lon="-2.6514">
        <ele>32.73</ele>
        <time>2019-03-29T13:42:53Z</time>
      </trkpt>
      <trkpt lat="47.96794" lon="-2.65281">
        <ele>34.6</ele>
        <time>2019-03-29T13:43:06Z</time>
      </trkpt>
      <trkpt lat="47.96801" lon="-2.65345">
        <ele>35.32</ele>
        <time>2019-03-29T13:43:12Z</time>
      </trkpt>
      <trkpt lat="47.96808" lon="-2.65378">
        <ele>35.7</ele>
        <time>2019-03-29T13:43:15Z</time>
      </trkpt>
      <trkpt lat="47.96826" lon="-2.65501">
        <ele>36.31</ele>
        <time>2019-03-29T13:43:26Z</time>
      </trkpt>
      <trkpt lat="47.96835" lon="-2.65564">
        <ele>36.65</ele>
        <time>2019-03-29T13:43:32Z</time>
      </trkpt>
      <trkpt lat="47.96838" lon="-2.65594">
        <ele>36.99</ele>
        <time>2019-03-29T13:43:35Z</time>
      </trkpt>
      <trkpt lat="47.96856" lon="-2.65703">
        <ele>39.57</ele>
        <time>2019-03-29T13:43:46Z</time>
      </trkpt>
      <trkpt lat="47.96857" lon="-2.65714">
        <ele>39.68</ele>
        <time>2019-03-29T13:43:47Z</time>
      </trkpt>
      <trkpt lat="47.96856" lon="-2.65765">
        <ele>40.13</ele>
        <time>2019-03-29T13:43:52Z</time>
      </trkpt>
      <trkpt lat="47.96855" lon="-2.65793">
        <ele>41.62</ele>
        <time>2019-03-29T13:43:59Z</time>
      </trkpt>
      <trkpt lat="47.96852" lon="-2.65813">
        <ele>42.6</ele>
        <time>2019-03-29T13:44:05Z</time>
      </trkpt>
      <trkpt lat="47.9685" lon="-2.65815">
        <ele>42.72</ele>
        <time>2019-03-29T13:44:06Z</time>
      </trkpt>
      <trkpt lat="47.96848" lon="-2.65816">
        <ele>42.88</ele>
        <time>2019-03-29T13:44:07Z</time>
      </trkpt>
      <trkpt lat="47.96845" lon="-2.65818">
        <ele>43.05</ele>
        <time>2019-03-29T13:44:08Z</time>
      </trkpt>
      <trkpt lat="47.96843" lon="-2.65818">
        <ele>43.2</ele>
        <time>2019-03-29T13:44:09Z</time>
      </trkpt>
      <trkpt lat="47.96841" lon="-2.65818">
        <ele>43.35</ele>
        <time>2019-03-29T13:44:10Z</time>
      </trkpt>
      <trkpt lat="47.96839" lon="-2.65817">
        <ele>43.49</ele>
        <time>2019-03-29T13:44:11Z</time>
      </trkpt>
      <trkpt lat="47.96838" lon="-2.65816">
        <ele>43.67</ele>
        <time>2019-03-29T13:44:12Z</time>
      </trkpt>
      <trkpt lat="47.96836" lon="-2.65816">
        <ele>43.89</ele>
        <time>2019-03-29T13:44:13Z</time>
      </trkpt>
      <trkpt lat="47.96834" lon="-2.65815">
        <ele>44.11</ele>
        <time>2019-03-29T13:44:14Z</time>
      </trkpt>
      <trkpt lat="47.96833" lon="-2.65814">
        <ele>44.55</ele>
        <time>2019-03-29T13:44:15Z</time>
      </trkpt>
      <trkpt lat="47.96812" lon="-2.65806">
        <ele>47.72</ele>
        <time>2019-03-29T13:44:26Z</time>
      </trkpt>
      <trkpt lat="47.96791" lon="-2.65805">
        <ele>50.84</ele>
        <time>2019-03-29T13:44:37Z</time>
      </trkpt>
      <trkpt lat="47.96768" lon="-2.65806">
        <ele>53.94</ele>
        <time>2019-03-29T13:44:50Z</time>
      </trkpt>
      <trkpt lat="47.96747" lon="-2.65806">
        <ele>56.97</ele>
        <time>2019-03-29T13:45:04Z</time>
      </trkpt>
      <trkpt lat="47.96724" lon="-2.65808">
        <ele>60</ele>
        <time>2019-03-29T13:45:20Z</time>
      </trkpt>
      <trkpt lat="47.9669" lon="-2.65811">
        <ele>62.46</ele>
        <time>2019-03-29T13:45:42Z</time>
      </trkpt>
      <trkpt lat="47.96686" lon="-2.65811">
        <ele>63.27</ele>
        <time>2019-03-29T13:45:49Z</time>
      </trkpt>
      <trkpt lat="47.96681" lon="-2.6581">
        <ele>63.46</ele>
        <time>2019-03-29T13:45:54Z</time>
      </trkpt>
      <trkpt lat="47.96679" lon="-2.6581">
        <ele>63.47</ele>
        <time>2019-03-29T13:45:55Z</time>
      </trkpt>
      <trkpt lat="47.96677" lon="-2.6581">
        <ele>63.5</ele>
        <time>2019-03-29T13:45:56Z</time>
      </trkpt>
      <trkpt lat="47.96675" lon="-2.6581">
        <ele>63.5</ele>
        <time>2019-03-29T13:45:57Z</time>
      </trkpt>
      <trkpt lat="47.96673" lon="-2.65809">
        <ele>63.5</ele>
        <time>2019-03-29T13:45:58Z</time>
      </trkpt>
      <trkpt lat="47.96651" lon="-2.65806">
        <ele>63.98</ele>
        <time>2019-03-29T13:46:13Z</time>
      </trkpt>
      <trkpt lat="47.96617" lon="-2.65809">
        <ele>64.1</ele>
        <time>2019-03-29T13:46:34Z</time>
      </trkpt>
      <trkpt lat="47.96589" lon="-2.65826">
        <ele>63.49</ele>
        <time>2019-03-29T13:46:52Z</time>
      </trkpt>
      <trkpt lat="47.96562" lon="-2.65837">
        <ele>62.54</ele>
        <time>2019-03-29T13:47:07Z</time>
      </trkpt>
      <trkpt lat="47.96541" lon="-2.65833">
        <ele>60.71</ele>
        <time>2019-03-29T13:47:20Z</time>
      </trkpt>
      <trkpt lat="47.9654" lon="-2.65833">
        <ele>60.59</ele>
        <time>2019-03-29T13:47:21Z</time>
      </trkpt>
      <trkpt lat="47.96538" lon="-2.65832">
        <ele>60.5</ele>
        <time>2019-03-29T13:47:22Z</time>
      </trkpt>
      <trkpt lat="47.96537" lon="-2.65831">
        <ele>60.48</ele>
        <time>2019-03-29T13:47:23Z</time>
      </trkpt>
      <trkpt lat="47.96535" lon="-2.6583">
        <ele>60.41</ele>
        <time>2019-03-29T13:47:24Z</time>
      </trkpt>
      <trkpt lat="47.96534" lon="-2.6583">
        <ele>60.33</ele>
        <time>2019-03-29T13:47:25Z</time>
      </trkpt>
      <trkpt lat="47.96532" lon="-2.65829">
        <ele>60.26</ele>
        <time>2019-03-29T13:47:26Z</time>
      </trkpt>
      <trkpt lat="47.96531" lon="-2.65828">
        <ele>60.13</ele>
        <time>2019-03-29T13:47:27Z</time>
      </trkpt>
      <trkpt lat="47.96502" lon="-2.65815">
        <ele>56.94</ele>
        <time>2019-03-29T13:47:44Z</time>
      </trkpt>
      <trkpt lat="47.9648" lon="-2.65823">
        <ele>53.91</ele>
        <time>2019-03-29T13:47:57Z</time>
      </trkpt>
      <trkpt lat="47.9647" lon="-2.65847">
        <ele>50.78</ele>
        <time>2019-03-29T13:48:09Z</time>
      </trkpt>
      <trkpt lat="47.9647" lon="-2.65854">
        <ele>49.66</ele>
        <time>2019-03-29T13:48:13Z</time>
      </trkpt>
      <trkpt lat="47.9647" lon="-2.65856">
        <ele>49.43</ele>
        <time>2019-03-29T13:48:14Z</time>
      </trkpt>
      <trkpt lat="47.96456" lon="-2.65879">
        <ele>46.63</ele>
        <time>2019-03-29T13:48:27Z</time>
      </trkpt>
      <trkpt lat="47.96432" lon="-2.65884">
        <ele>43.63</ele>
        <time>2019-03-29T13:48:41Z</time>
      </trkpt>
      <trkpt lat="47.96408" lon="-2.65875">
        <ele>40.61</ele>
        <time>2019-03-29T13:48:55Z</time>
      </trkpt>
      <trkpt lat="47.96382" lon="-2.65866">
        <ele>37.54</ele>
        <time>2019-03-29T13:49:09Z</time>
      </trkpt>
      <trkpt lat="47.96362" lon="-2.6585">
        <ele>34.21</ele>
        <time>2019-03-29T13:49:22Z</time>
      </trkpt>
      <trkpt lat="47.96347" lon="-2.65826">
        <ele>31.92</ele>
        <time>2019-03-29T13:49:36Z</time>
      </trkpt>
      <trkpt lat="47.96344" lon="-2.65824">
        <ele>31.78</ele>
        <time>2019-03-29T13:49:41Z</time>
      </trkpt>
      <trkpt lat="47.96344" lon="-2.65834">
        <ele>31.31</ele>
        <time>2019-03-29T13:49:51Z</time>
      </trkpt>
      <trkpt lat="47.96345" lon="-2.65836">
        <ele>31.3</ele>
        <time>2019-03-29T13:49:52Z</time>
      </trkpt>
      <trkpt lat="47.96347" lon="-2.6584">
        <ele>31.1</ele>
        <time>2019-03-29T13:49:55Z</time>
      </trkpt>
      <trkpt lat="47.96348" lon="-2.65841">
        <ele>30.99</ele>
        <time>2019-03-29T13:49:56Z</time>
      </trkpt>
      <trkpt lat="47.9635" lon="-2.65842">
        <ele>30.36</ele>
        <time>2019-03-29T13:50:02Z</time>
      </trkpt>
      <trkpt lat="47.96344" lon="-2.65844">
        <ele>30.31</ele>
        <time>2019-03-29T13:50:47Z</time>
      </trkpt>
      <trkpt lat="47.96343" lon="-2.65843">
        <ele>30.55</ele>
        <time>2019-03-29T13:50:50Z</time>
      </trkpt>
      <trkpt lat="47.96344" lon="-2.65827">
        <ele>31.01</ele>
        <time>2019-03-29T13:52:59Z</time>
      </trkpt>
      <trkpt lat="47.96342" lon="-2.65825">
        <ele>31.42</ele>
        <time>2019-03-29T13:53:05Z</time>
      </trkpt>
      <trkpt lat="47.96345" lon="-2.65803">
        <ele>32.35</ele>
        <time>2019-03-29T13:54:10Z</time>
      </trkpt>
      <trkpt lat="47.96346" lon="-2.65756">
        <ele>32.41</ele>
        <time>2019-03-29T13:54:29Z</time>
      </trkpt>
      <trkpt lat="47.96349" lon="-2.65714">
        <ele>32.99</ele>
        <time>2019-03-29T13:54:47Z</time>
      </trkpt>
      <trkpt lat="47.96359" lon="-2.65679">
        <ele>33</ele>
        <time>2019-03-29T13:55:04Z</time>
      </trkpt>
      <trkpt lat="47.96364" lon="-2.65643">
        <ele>32.89</ele>
        <time>2019-03-29T13:55:20Z</time>
      </trkpt>
      <trkpt lat="47.9636" lon="-2.65639">
        <ele>33.21</ele>
        <time>2019-03-29T13:55:26Z</time>
      </trkpt>
      <trkpt lat="47.96358" lon="-2.65637">
        <ele>33.32</ele>
        <time>2019-03-29T13:55:28Z</time>
      </trkpt>
      <trkpt lat="47.96356" lon="-2.65636">
        <ele>33.36</ele>
        <time>2019-03-29T13:55:29Z</time>
      </trkpt>
      <trkpt lat="47.96355" lon="-2.65636">
        <ele>33.39</ele>
        <time>2019-03-29T13:55:30Z</time>
      </trkpt>
      <trkpt lat="47.96353" lon="-2.65635">
        <ele>33.42</ele>
        <time>2019-03-29T13:55:31Z</time>
      </trkpt>
      <trkpt lat="47.96352" lon="-2.65635">
        <ele>33.45</ele>
        <time>2019-03-29T13:55:32Z</time>
      </trkpt>
      <trkpt lat="47.96339" lon="-2.65598">
        <ele>34.26</ele>
        <time>2019-03-29T13:55:48Z</time>
      </trkpt>
      <trkpt lat="47.96349" lon="-2.65543">
        <ele>35.47</ele>
        <time>2019-03-29T13:55:59Z</time>
      </trkpt>
      <trkpt lat="47.96354" lon="-2.65521">
        <ele>37.34</ele>
        <time>2019-03-29T13:56:04Z</time>
      </trkpt>
      <trkpt lat="47.96354" lon="-2.65492">
        <ele>39.03</ele>
        <time>2019-03-29T13:56:15Z</time>
      </trkpt>
      <trkpt lat="47.96333" lon="-2.65451">
        <ele>38.65</ele>
        <time>2019-03-29T13:56:35Z</time>
      </trkpt>
      <trkpt lat="47.96317" lon="-2.65422">
        <ele>36.48</ele>
        <time>2019-03-29T13:56:51Z</time>
      </trkpt>
      <trkpt lat="47.96302" lon="-2.65392">
        <ele>35.39</ele>
        <time>2019-03-29T13:57:07Z</time>
      </trkpt>
      <trkpt lat="47.96284" lon="-2.65354">
        <ele>37.85</ele>
        <time>2019-03-29T13:57:24Z</time>
      </trkpt>
      <trkpt lat="47.96268" lon="-2.65325">
        <ele>40.4</ele>
        <time>2019-03-29T13:57:40Z</time>
      </trkpt>
      <trkpt lat="47.96253" lon="-2.65284">
        <ele>42.88</ele>
        <time>2019-03-29T13:58:01Z</time>
      </trkpt>
      <trkpt lat="47.96241" lon="-2.65251">
        <ele>43.89</ele>
        <time>2019-03-29T13:58:17Z</time>
      </trkpt>
      <trkpt lat="47.96229" lon="-2.65221">
        <ele>44.8</ele>
        <time>2019-03-29T13:58:35Z</time>
      </trkpt>
      <trkpt lat="47.96212" lon="-2.65216">
        <ele>46.38</ele>
        <time>2019-03-29T13:58:48Z</time>
      </trkpt>
      <trkpt lat="47.96195" lon="-2.65236">
        <ele>48.29</ele>
        <time>2019-03-29T13:59:04Z</time>
      </trkpt>
      <trkpt lat="47.9617" lon="-2.65265">
        <ele>49.9</ele>
        <time>2019-03-29T13:59:24Z</time>
      </trkpt>
      <trkpt lat="47.96156" lon="-2.65269">
        <ele>50.58</ele>
        <time>2019-03-29T13:59:32Z</time>
      </trkpt>
      <trkpt lat="47.96139" lon="-2.65242">
        <ele>52.66</ele>
        <time>2019-03-29T13:59:48Z</time>
      </trkpt>
      <trkpt lat="47.96118" lon="-2.65201">
        <ele>55.7</ele>
        <time>2019-03-29T14:00:09Z</time>
      </trkpt>
      <trkpt lat="47.96099" lon="-2.65166">
        <ele>58.43</ele>
        <time>2019-03-29T14:00:28Z</time>
      </trkpt>
      <trkpt lat="47.9608" lon="-2.65142">
        <ele>60.75</ele>
        <time>2019-03-29T14:00:45Z</time>
      </trkpt>
      <trkpt lat="47.96071" lon="-2.65128">
        <ele>61.61</ele>
        <time>2019-03-29T14:00:53Z</time>
      </trkpt>
      <trkpt lat="47.9607" lon="-2.65127">
        <ele>61.75</ele>
        <time>2019-03-29T14:00:54Z</time>
      </trkpt>
      <trkpt lat="47.96048" lon="-2.65101">
        <ele>64.3</ele>
        <time>2019-03-29T14:01:12Z</time>
      </trkpt>
      <trkpt lat="47.96027" lon="-2.65076">
        <ele>66.13</ele>
        <time>2019-03-29T14:01:28Z</time>
      </trkpt>
      <trkpt lat="47.96001" lon="-2.65046">
        <ele>68.06</ele>
        <time>2019-03-29T14:01:47Z</time>
      </trkpt>
      <trkpt lat="47.95972" lon="-2.65014">
        <ele>69.67</ele>
        <time>2019-03-29T14:02:08Z</time>
      </trkpt>
      <trkpt lat="47.95946" lon="-2.64983">
        <ele>70.87</ele>
        <time>2019-03-29T14:02:26Z</time>
      </trkpt>
      <trkpt lat="47.95921" lon="-2.64956">
        <ele>72.02</ele>
        <time>2019-03-29T14:02:45Z</time>
      </trkpt>
      <trkpt lat="47.95916" lon="-2.6495">
        <ele>71.95</ele>
        <time>2019-03-29T14:02:49Z</time>
      </trkpt>
      <trkpt lat="47.95915" lon="-2.64949">
        <ele>71.94</ele>
        <time>2019-03-29T14:02:50Z</time>
      </trkpt>
      <trkpt lat="47.95914" lon="-2.64948">
        <ele>71.93</ele>
        <time>2019-03-29T14:02:51Z</time>
      </trkpt>
      <trkpt lat="47.95913" lon="-2.64947">
        <ele>71.93</ele>
        <time>2019-03-29T14:02:52Z</time>
      </trkpt>
      <trkpt lat="47.95911" lon="-2.64946">
        <ele>71.93</ele>
        <time>2019-03-29T14:02:53Z</time>
      </trkpt>
      <trkpt lat="47.95889" lon="-2.64925">
        <ele>72.08</ele>
        <time>2019-03-29T14:03:07Z</time>
      </trkpt>
      <trkpt lat="47.95872" lon="-2.6491">
        <ele>72.32</ele>
        <time>2019-03-29T14:03:19Z</time>
      </trkpt>
      <trkpt lat="47.95871" lon="-2.64911">
        <ele>72.35</ele>
        <time>2019-03-29T14:03:20Z</time>
      </trkpt>
      <trkpt lat="47.9585" lon="-2.64936">
        <ele>73.2</ele>
        <time>2019-03-29T14:03:39Z</time>
      </trkpt>
      <trkpt lat="47.95829" lon="-2.64969">
        <ele>73.5</ele>
        <time>2019-03-29T14:03:57Z</time>
      </trkpt>
      <trkpt lat="47.95806" lon="-2.65004">
        <ele>74.69</ele>
        <time>2019-03-29T14:04:15Z</time>
      </trkpt>
      <trkpt lat="47.95777" lon="-2.65043">
        <ele>75.13</ele>
        <time>2019-03-29T14:04:38Z</time>
      </trkpt>
      <trkpt lat="47.95757" lon="-2.6507">
        <ele>75.37</ele>
        <time>2019-03-29T14:04:53Z</time>
      </trkpt>
      <trkpt lat="47.95739" lon="-2.65089">
        <ele>75.51</ele>
        <time>2019-03-29T14:05:08Z</time>
      </trkpt>
      <trkpt lat="47.95733" lon="-2.65097">
        <ele>75.49</ele>
        <time>2019-03-29T14:05:17Z</time>
      </trkpt>
      <trkpt lat="47.95734" lon="-2.6509">
        <ele>75.36</ele>
        <time>2019-03-29T14:05:25Z</time>
      </trkpt>
      <trkpt lat="47.95734" lon="-2.65088">
        <ele>75.3</ele>
        <time>2019-03-29T14:05:26Z</time>
      </trkpt>
      <trkpt lat="47.95729" lon="-2.6505">
        <ele>74.99</ele>
        <time>2019-03-29T14:05:43Z</time>
      </trkpt>
      <trkpt lat="47.95718" lon="-2.65026">
        <ele>74.39</ele>
        <time>2019-03-29T14:05:55Z</time>
      </trkpt>
      <trkpt lat="47.95712" lon="-2.65019">
        <ele>74.23</ele>
        <time>2019-03-29T14:06:00Z</time>
      </trkpt>
      <trkpt lat="47.95704" lon="-2.65006">
        <ele>74.03</ele>
        <time>2019-03-29T14:06:07Z</time>
      </trkpt>
      <trkpt lat="47.95686" lon="-2.64972">
        <ele>73.1</ele>
        <time>2019-03-29T14:06:22Z</time>
      </trkpt>
      <trkpt lat="47.95666" lon="-2.64932">
        <ele>71.28</ele>
        <time>2019-03-29T14:06:40Z</time>
      </trkpt>
      <trkpt lat="47.95644" lon="-2.64891">
        <ele>70.14</ele>
        <time>2019-03-29T14:07:00Z</time>
      </trkpt>
      <trkpt lat="47.9563" lon="-2.64859">
        <ele>68.95</ele>
        <time>2019-03-29T14:07:16Z</time>
      </trkpt>
      <trkpt lat="47.9562" lon="-2.64824">
        <ele>67.58</ele>
        <time>2019-03-29T14:07:33Z</time>
      </trkpt>
      <trkpt lat="47.95622" lon="-2.64781">
        <ele>65.81</ele>
        <time>2019-03-29T14:07:51Z</time>
      </trkpt>
      <trkpt lat="47.95632" lon="-2.6474">
        <ele>65.34</ele>
        <time>2019-03-29T14:08:09Z</time>
      </trkpt>
      <trkpt lat="47.95634" lon="-2.64735">
        <ele>65.28</ele>
        <time>2019-03-29T14:08:12Z</time>
      </trkpt>
      <trkpt lat="47.95645" lon="-2.64701">
        <ele>65.07</ele>
        <time>2019-03-29T14:08:28Z</time>
      </trkpt>
      <trkpt lat="47.95658" lon="-2.64663">
        <ele>64.29</ele>
        <time>2019-03-29T14:08:44Z</time>
      </trkpt>
      <trkpt lat="47.95663" lon="-2.64623">
        <ele>63.38</ele>
        <time>2019-03-29T14:09:01Z</time>
      </trkpt>
      <trkpt lat="47.95653" lon="-2.64591">
        <ele>61.99</ele>
        <time>2019-03-29T14:09:16Z</time>
      </trkpt>
      <trkpt lat="47.95643" lon="-2.64547">
        <ele>59.4</ele>
        <time>2019-03-29T14:09:33Z</time>
      </trkpt>
      <trkpt lat="47.95646" lon="-2.64506">
        <ele>56.69</ele>
        <time>2019-03-29T14:09:50Z</time>
      </trkpt>
      <trkpt lat="47.95652" lon="-2.64467">
        <ele>53.8</ele>
        <time>2019-03-29T14:10:07Z</time>
      </trkpt>
      <trkpt lat="47.95655" lon="-2.64454">
        <ele>52.96</ele>
        <time>2019-03-29T14:10:13Z</time>
      </trkpt>
      <trkpt lat="47.95658" lon="-2.64435">
        <ele>51.59</ele>
        <time>2019-03-29T14:10:22Z</time>
      </trkpt>
      <trkpt lat="47.95652" lon="-2.64399">
        <ele>50.35</ele>
        <time>2019-03-29T14:10:37Z</time>
      </trkpt>
      <trkpt lat="47.95639" lon="-2.64373">
        <ele>47.27</ele>
        <time>2019-03-29T14:10:51Z</time>
      </trkpt>
      <trkpt lat="47.95625" lon="-2.64351">
        <ele>44.77</ele>
        <time>2019-03-29T14:11:04Z</time>
      </trkpt>
      <trkpt lat="47.95606" lon="-2.64328">
        <ele>41.59</ele>
        <time>2019-03-29T14:11:19Z</time>
      </trkpt>
      <trkpt lat="47.95603" lon="-2.64324">
        <ele>41.02</ele>
        <time>2019-03-29T14:11:22Z</time>
      </trkpt>
      <trkpt lat="47.95596" lon="-2.64305">
        <ele>39.24</ele>
        <time>2019-03-29T14:11:36Z</time>
      </trkpt>
      <trkpt lat="47.95591" lon="-2.64293">
        <ele>39.33</ele>
        <time>2019-03-29T14:11:43Z</time>
      </trkpt>
      <trkpt lat="47.95582" lon="-2.64272">
        <ele>40.44</ele>
        <time>2019-03-29T14:11:53Z</time>
      </trkpt>
      <trkpt lat="47.95577" lon="-2.64255">
        <ele>41.57</ele>
        <time>2019-03-29T14:12:00Z</time>
      </trkpt>
      <trkpt lat="47.95575" lon="-2.64244">
        <ele>42.26</ele>
        <time>2019-03-29T14:12:04Z</time>
      </trkpt>
      <trkpt lat="47.95566" lon="-2.6421">
        <ele>44.6</ele>
        <time>2019-03-29T14:12:19Z</time>
      </trkpt>
      <trkpt lat="47.95566" lon="-2.64202">
        <ele>45.55</ele>
        <time>2019-03-29T14:12:24Z</time>
      </trkpt>
      <trkpt lat="47.95566" lon="-2.6419">
        <ele>46.67</ele>
        <time>2019-03-29T14:12:30Z</time>
      </trkpt>
      <trkpt lat="47.95558" lon="-2.64158">
        <ele>48.19</ele>
        <time>2019-03-29T14:12:46Z</time>
      </trkpt>
      <trkpt lat="47.95554" lon="-2.64136">
        <ele>49.45</ele>
        <time>2019-03-29T14:12:56Z</time>
      </trkpt>
      <trkpt lat="47.9554" lon="-2.6409">
        <ele>50.89</ele>
        <time>2019-03-29T14:13:13Z</time>
      </trkpt>
      <trkpt lat="47.95514" lon="-2.64064">
        <ele>52.9</ele>
        <time>2019-03-29T14:13:30Z</time>
      </trkpt>
      <trkpt lat="47.95482" lon="-2.64056">
        <ele>55.71</ele>
        <time>2019-03-29T14:13:48Z</time>
      </trkpt>
      <trkpt lat="47.95444" lon="-2.6405">
        <ele>57.97</ele>
        <time>2019-03-29T14:14:11Z</time>
      </trkpt>
      <trkpt lat="47.95424" lon="-2.64065">
        <ele>59.26</ele>
        <time>2019-03-29T14:14:26Z</time>
      </trkpt>
      <trkpt lat="47.95414" lon="-2.64117">
        <ele>61.99</ele>
        <time>2019-03-29T14:14:48Z</time>
      </trkpt>
      <trkpt lat="47.95403" lon="-2.64169">
        <ele>64.77</ele>
        <time>2019-03-29T14:15:12Z</time>
      </trkpt>
      <trkpt lat="47.95392" lon="-2.64215">
        <ele>66.9</ele>
        <time>2019-03-29T14:15:32Z</time>
      </trkpt>
      <trkpt lat="47.95379" lon="-2.64266">
        <ele>69.14</ele>
        <time>2019-03-29T14:15:56Z</time>
      </trkpt>
      <trkpt lat="47.95356" lon="-2.64275">
        <ele>71.11</ele>
        <time>2019-03-29T14:16:13Z</time>
      </trkpt>
      <trkpt lat="47.95328" lon="-2.64268">
        <ele>73.65</ele>
        <time>2019-03-29T14:16:30Z</time>
      </trkpt>
      <trkpt lat="47.95295" lon="-2.6426">
        <ele>75.13</ele>
        <time>2019-03-29T14:16:49Z</time>
      </trkpt>
      <trkpt lat="47.95262" lon="-2.64253">
        <ele>77.36</ele>
        <time>2019-03-29T14:17:10Z</time>
      </trkpt>
      <trkpt lat="47.95228" lon="-2.64247">
        <ele>79.04</ele>
        <time>2019-03-29T14:17:31Z</time>
      </trkpt>
      <trkpt lat="47.95196" lon="-2.6424">
        <ele>80.22</ele>
        <time>2019-03-29T14:17:50Z</time>
      </trkpt>
      <trkpt lat="47.95162" lon="-2.64236">
        <ele>81.47</ele>
        <time>2019-03-29T14:18:11Z</time>
      </trkpt>
      <trkpt lat="47.95155" lon="-2.64246">
        <ele>81.49</ele>
        <time>2019-03-29T14:18:19Z</time>
      </trkpt>
      <trkpt lat="47.95156" lon="-2.64248">
        <ele>81.46</ele>
        <time>2019-03-29T14:18:20Z</time>
      </trkpt>
      <trkpt lat="47.95157" lon="-2.64251">
        <ele>81.43</ele>
        <time>2019-03-29T14:18:21Z</time>
      </trkpt>
      <trkpt lat="47.9517" lon="-2.64291">
        <ele>81.28</ele>
        <time>2019-03-29T14:18:38Z</time>
      </trkpt>
      <trkpt lat="47.95174" lon="-2.64335">
        <ele>80.69</ele>
        <time>2019-03-29T14:18:56Z</time>
      </trkpt>
      <trkpt lat="47.95166" lon="-2.64367">
        <ele>79.42</ele>
        <time>2019-03-29T14:19:12Z</time>
      </trkpt>
      <trkpt lat="47.95143" lon="-2.64401">
        <ele>77.84</ele>
        <time>2019-03-29T14:19:31Z</time>
      </trkpt>
      <trkpt lat="47.95112" lon="-2.64408">
        <ele>78.3</ele>
        <time>2019-03-29T14:19:48Z</time>
      </trkpt>
      <trkpt lat="47.95085" lon="-2.64412">
        <ele>80.02</ele>
        <time>2019-03-29T14:20:05Z</time>
      </trkpt>
      <trkpt lat="47.95072" lon="-2.64413">
        <ele>80.69</ele>
        <time>2019-03-29T14:20:16Z</time>
      </trkpt>
      <trkpt lat="47.95071" lon="-2.64413">
        <ele>80.73</ele>
        <time>2019-03-29T14:20:17Z</time>
      </trkpt>
      <trkpt lat="47.9507" lon="-2.64414">
        <ele>80.84</ele>
        <time>2019-03-29T14:20:18Z</time>
      </trkpt>
      <trkpt lat="47.95068" lon="-2.64414">
        <ele>80.9</ele>
        <time>2019-03-29T14:20:19Z</time>
      </trkpt>
      <trkpt lat="47.95067" lon="-2.64415">
        <ele>80.97</ele>
        <time>2019-03-29T14:20:20Z</time>
      </trkpt>
      <trkpt lat="47.95066" lon="-2.64416">
        <ele>81.03</ele>
        <time>2019-03-29T14:20:21Z</time>
      </trkpt>
      <trkpt lat="47.95064" lon="-2.64417">
        <ele>81.1</ele>
        <time>2019-03-29T14:20:22Z</time>
      </trkpt>
      <trkpt lat="47.95063" lon="-2.64418">
        <ele>81.18</ele>
        <time>2019-03-29T14:20:23Z</time>
      </trkpt>
      <trkpt lat="47.95062" lon="-2.64419">
        <ele>81.27</ele>
        <time>2019-03-29T14:20:24Z</time>
      </trkpt>
      <trkpt lat="47.9506" lon="-2.6442">
        <ele>81.35</ele>
        <time>2019-03-29T14:20:25Z</time>
      </trkpt>
      <trkpt lat="47.95035" lon="-2.64445">
        <ele>82.66</ele>
        <time>2019-03-29T14:20:45Z</time>
      </trkpt>
      <trkpt lat="47.95006" lon="-2.64466">
        <ele>84.2</ele>
        <time>2019-03-29T14:21:03Z</time>
      </trkpt>
      <trkpt lat="47.94966" lon="-2.64472">
        <ele>86.58</ele>
        <time>2019-03-29T14:21:25Z</time>
      </trkpt>
      <trkpt lat="47.94933" lon="-2.64474">
        <ele>87.69</ele>
        <time>2019-03-29T14:21:44Z</time>
      </trkpt>
      <trkpt lat="47.94895" lon="-2.64473">
        <ele>87.7</ele>
        <time>2019-03-29T14:22:05Z</time>
      </trkpt>
      <trkpt lat="47.9487" lon="-2.64474">
        <ele>86.8</ele>
        <time>2019-03-29T14:22:20Z</time>
      </trkpt>
      <trkpt lat="47.9484" lon="-2.64472">
        <ele>85.03</ele>
        <time>2019-03-29T14:22:38Z</time>
      </trkpt>
      <trkpt lat="47.94828" lon="-2.64473">
        <ele>84.37</ele>
        <time>2019-03-29T14:22:45Z</time>
      </trkpt>
      <trkpt lat="47.94801" lon="-2.64475">
        <ele>82.8</ele>
        <time>2019-03-29T14:23:02Z</time>
      </trkpt>
      <trkpt lat="47.9477" lon="-2.64475">
        <ele>81.24</ele>
        <time>2019-03-29T14:23:20Z</time>
      </trkpt>
      <trkpt lat="47.94743" lon="-2.64475">
        <ele>79.6</ele>
        <time>2019-03-29T14:23:36Z</time>
      </trkpt>
      <trkpt lat="47.94714" lon="-2.64474">
        <ele>79.05</ele>
        <time>2019-03-29T14:23:53Z</time>
      </trkpt>
      <trkpt lat="47.9468" lon="-2.64477">
        <ele>79.89</ele>
        <time>2019-03-29T14:24:13Z</time>
      </trkpt>
      <trkpt lat="47.94648" lon="-2.64477">
        <ele>82.93</ele>
        <time>2019-03-29T14:24:33Z</time>
      </trkpt>
      <trkpt lat="47.94632" lon="-2.64484">
        <ele>84.16</ele>
        <time>2019-03-29T14:24:44Z</time>
      </trkpt>
      <trkpt lat="47.94628" lon="-2.64524">
        <ele>84.14</ele>
        <time>2019-03-29T14:25:01Z</time>
      </trkpt>
      <trkpt lat="47.94627" lon="-2.64562">
        <ele>83.08</ele>
        <time>2019-03-29T14:25:16Z</time>
      </trkpt>
      <trkpt lat="47.94626" lon="-2.64614">
        <ele>80.8</ele>
        <time>2019-03-29T14:25:36Z</time>
      </trkpt>
      <trkpt lat="47.94617" lon="-2.64656">
        <ele>78.69</ele>
        <time>2019-03-29T14:25:54Z</time>
      </trkpt>
      <trkpt lat="47.94585" lon="-2.64667">
        <ele>78.47</ele>
        <time>2019-03-29T14:26:08Z</time>
      </trkpt>
      <trkpt lat="47.94559" lon="-2.64672">
        <ele>78.95</ele>
        <time>2019-03-29T14:26:19Z</time>
      </trkpt>
      <trkpt lat="47.94533" lon="-2.64675">
        <ele>78.97</ele>
        <time>2019-03-29T14:26:33Z</time>
      </trkpt>
      <trkpt lat="47.94507" lon="-2.64676">
        <ele>78.61</ele>
        <time>2019-03-29T14:26:47Z</time>
      </trkpt>
      <trkpt lat="47.9448" lon="-2.64672">
        <ele>77.58</ele>
        <time>2019-03-29T14:27:02Z</time>
      </trkpt>
      <trkpt lat="47.94456" lon="-2.64669">
        <ele>76.06</ele>
        <time>2019-03-29T14:27:17Z</time>
      </trkpt>
      <trkpt lat="47.94428" lon="-2.6467">
        <ele>74.51</ele>
        <time>2019-03-29T14:27:32Z</time>
      </trkpt>
      <trkpt lat="47.94399" lon="-2.64669">
        <ele>72.52</ele>
        <time>2019-03-29T14:27:47Z</time>
      </trkpt>
      <trkpt lat="47.94369" lon="-2.64668">
        <ele>70.81</ele>
        <time>2019-03-29T14:28:02Z</time>
      </trkpt>
      <trkpt lat="47.9435" lon="-2.64659">
        <ele>69.73</ele>
        <time>2019-03-29T14:28:14Z</time>
      </trkpt>
      <trkpt lat="47.94352" lon="-2.64617">
        <ele>70.25</ele>
        <time>2019-03-29T14:28:29Z</time>
      </trkpt>
      <trkpt lat="47.94356" lon="-2.64558">
        <ele>72.53</ele>
        <time>2019-03-29T14:28:41Z</time>
      </trkpt>
      <trkpt lat="47.94357" lon="-2.64541">
        <ele>73.21</ele>
        <time>2019-03-29T14:28:44Z</time>
      </trkpt>
      <trkpt lat="47.94361" lon="-2.64466">
        <ele>76.48</ele>
        <time>2019-03-29T14:28:54Z</time>
      </trkpt>
      <trkpt lat="47.94362" lon="-2.64426">
        <ele>79.63</ele>
        <time>2019-03-29T14:28:59Z</time>
      </trkpt>
      <trkpt lat="47.94362" lon="-2.64418">
        <ele>80.21</ele>
        <time>2019-03-29T14:29:00Z</time>
      </trkpt>
      <trkpt lat="47.94365" lon="-2.64363">
        <ele>83.36</ele>
        <time>2019-03-29T14:29:07Z</time>
      </trkpt>
      <trkpt lat="47.94366" lon="-2.64348">
        <ele>84.2</ele>
        <time>2019-03-29T14:29:09Z</time>
      </trkpt>
      <trkpt lat="47.94367" lon="-2.64341">
        <ele>84.58</ele>
        <time>2019-03-29T14:29:10Z</time>
      </trkpt>
      <trkpt lat="47.94368" lon="-2.64334">
        <ele>84.93</ele>
        <time>2019-03-29T14:29:11Z</time>
      </trkpt>
      <trkpt lat="47.94368" lon="-2.64327">
        <ele>85.27</ele>
        <time>2019-03-29T14:29:12Z</time>
      </trkpt>
      <trkpt lat="47.94369" lon="-2.6432">
        <ele>85.59</ele>
        <time>2019-03-29T14:29:13Z</time>
      </trkpt>
      <trkpt lat="47.94369" lon="-2.64312">
        <ele>85.89</ele>
        <time>2019-03-29T14:29:14Z</time>
      </trkpt>
      <trkpt lat="47.9437" lon="-2.64305">
        <ele>86.18</ele>
        <time>2019-03-29T14:29:15Z</time>
      </trkpt>
      <trkpt lat="47.94372" lon="-2.64253">
        <ele>88.85</ele>
        <time>2019-03-29T14:29:22Z</time>
      </trkpt>
      <trkpt lat="47.94372" lon="-2.64245">
        <ele>89.16</ele>
        <time>2019-03-29T14:29:23Z</time>
      </trkpt>
      <trkpt lat="47.94376" lon="-2.64149">
        <ele>90.61</ele>
        <time>2019-03-29T14:29:34Z</time>
      </trkpt>
      <trkpt lat="47.94377" lon="-2.64092">
        <ele>92.81</ele>
        <time>2019-03-29T14:29:44Z</time>
      </trkpt>
      <trkpt lat="47.94363" lon="-2.64066">
        <ele>95</ele>
        <time>2019-03-29T14:29:59Z</time>
      </trkpt>
      <trkpt lat="47.94333" lon="-2.6406">
        <ele>94.92</ele>
        <time>2019-03-29T14:30:16Z</time>
      </trkpt>
      <trkpt lat="47.94297" lon="-2.64051">
        <ele>94.81</ele>
        <time>2019-03-29T14:30:36Z</time>
      </trkpt>
      <trkpt lat="47.94265" lon="-2.64046">
        <ele>94.39</ele>
        <time>2019-03-29T14:30:54Z</time>
      </trkpt>
      <trkpt lat="47.94237" lon="-2.64039">
        <ele>94.31</ele>
        <time>2019-03-29T14:31:10Z</time>
      </trkpt>
      <trkpt lat="47.94203" lon="-2.64032">
        <ele>94.14</ele>
        <time>2019-03-29T14:31:29Z</time>
      </trkpt>
      <trkpt lat="47.94173" lon="-2.64027">
        <ele>93.56</ele>
        <time>2019-03-29T14:31:46Z</time>
      </trkpt>
      <trkpt lat="47.94145" lon="-2.64021">
        <ele>93.59</ele>
        <time>2019-03-29T14:32:02Z</time>
      </trkpt>
      <trkpt lat="47.94107" lon="-2.64012">
        <ele>93.68</ele>
        <time>2019-03-29T14:32:24Z</time>
      </trkpt>
      <trkpt lat="47.94076" lon="-2.64005">
        <ele>93.62</ele>
        <time>2019-03-29T14:32:42Z</time>
      </trkpt>
      <trkpt lat="47.94041" lon="-2.63998">
        <ele>93.75</ele>
        <time>2019-03-29T14:33:02Z</time>
      </trkpt>
      <trkpt lat="47.94013" lon="-2.63991">
        <ele>93.83</ele>
        <time>2019-03-29T14:33:17Z</time>
      </trkpt>
      <trkpt lat="47.9399" lon="-2.63985">
        <ele>93.78</ele>
        <time>2019-03-29T14:33:31Z</time>
      </trkpt>
      <trkpt lat="47.93959" lon="-2.63972">
        <ele>93.84</ele>
        <time>2019-03-29T14:33:49Z</time>
      </trkpt>
      <trkpt lat="47.93944" lon="-2.63933">
        <ele>93.35</ele>
        <time>2019-03-29T14:34:06Z</time>
      </trkpt>
      <trkpt lat="47.93945" lon="-2.63869">
        <ele>92.16</ele>
        <time>2019-03-29T14:34:31Z</time>
      </trkpt>
      <trkpt lat="47.93945" lon="-2.63817">
        <ele>90.85</ele>
        <time>2019-03-29T14:34:51Z</time>
      </trkpt>
      <trkpt lat="47.93946" lon="-2.63781">
        <ele>89.85</ele>
        <time>2019-03-29T14:35:05Z</time>
      </trkpt>
      <trkpt lat="47.93945" lon="-2.6375">
        <ele>88.88</ele>
        <time>2019-03-29T14:35:17Z</time>
      </trkpt>
      <trkpt lat="47.93946" lon="-2.63709">
        <ele>87.5</ele>
        <time>2019-03-29T14:35:34Z</time>
      </trkpt>
      <trkpt lat="47.93948" lon="-2.63668">
        <ele>85.91</ele>
        <time>2019-03-29T14:35:51Z</time>
      </trkpt>
      <trkpt lat="47.9395" lon="-2.63625">
        <ele>83.33</ele>
        <time>2019-03-29T14:36:08Z</time>
      </trkpt>
      <trkpt lat="47.93952" lon="-2.63578">
        <ele>80.35</ele>
        <time>2019-03-29T14:36:26Z</time>
      </trkpt>
      <trkpt lat="47.93954" lon="-2.63536">
        <ele>78.3</ele>
        <time>2019-03-29T14:36:42Z</time>
      </trkpt>
      <trkpt lat="47.93956" lon="-2.63504">
        <ele>76.34</ele>
        <time>2019-03-29T14:36:54Z</time>
      </trkpt>
      <trkpt lat="47.93956" lon="-2.63501">
        <ele>76.15</ele>
        <time>2019-03-29T14:36:55Z</time>
      </trkpt>
      <trkpt lat="47.93956" lon="-2.63498">
        <ele>75.98</ele>
        <time>2019-03-29T14:36:56Z</time>
      </trkpt>
      <trkpt lat="47.93956" lon="-2.63495">
        <ele>75.83</ele>
        <time>2019-03-29T14:36:57Z</time>
      </trkpt>
      <trkpt lat="47.93956" lon="-2.63493">
        <ele>75.69</ele>
        <time>2019-03-29T14:36:58Z</time>
      </trkpt>
      <trkpt lat="47.93956" lon="-2.63489">
        <ele>75.55</ele>
        <time>2019-03-29T14:36:59Z</time>
      </trkpt>
      <trkpt lat="47.93956" lon="-2.63486">
        <ele>75.39</ele>
        <time>2019-03-29T14:37:00Z</time>
      </trkpt>
      <trkpt lat="47.93956" lon="-2.63483">
        <ele>75.23</ele>
        <time>2019-03-29T14:37:01Z</time>
      </trkpt>
      <trkpt lat="47.93956" lon="-2.63481">
        <ele>75.09</ele>
        <time>2019-03-29T14:37:02Z</time>
      </trkpt>
      <trkpt lat="47.93955" lon="-2.63443">
        <ele>72.9</ele>
        <time>2019-03-29T14:37:16Z</time>
      </trkpt>
      <trkpt lat="47.93955" lon="-2.63407">
        <ele>71.38</ele>
        <time>2019-03-29T14:37:29Z</time>
      </trkpt>
      <trkpt lat="47.93955" lon="-2.63403">
        <ele>71.25</ele>
        <time>2019-03-29T14:37:30Z</time>
      </trkpt>
      <trkpt lat="47.93954" lon="-2.634">
        <ele>71.04</ele>
        <time>2019-03-29T14:37:31Z</time>
      </trkpt>
      <trkpt lat="47.93954" lon="-2.63397">
        <ele>71.04</ele>
        <time>2019-03-29T14:37:32Z</time>
      </trkpt>
      <trkpt lat="47.93953" lon="-2.63394">
        <ele>70.82</ele>
        <time>2019-03-29T14:37:33Z</time>
      </trkpt>
      <trkpt lat="47.93953" lon="-2.63392">
        <ele>70.72</ele>
        <time>2019-03-29T14:37:34Z</time>
      </trkpt>
      <trkpt lat="47.9395" lon="-2.6335">
        <ele>69.66</ele>
        <time>2019-03-29T14:37:49Z</time>
      </trkpt>
      <trkpt lat="47.93953" lon="-2.63312">
        <ele>68.63</ele>
        <time>2019-03-29T14:38:03Z</time>
      </trkpt>
      <trkpt lat="47.93953" lon="-2.63262">
        <ele>68.99</ele>
        <time>2019-03-29T14:38:19Z</time>
      </trkpt>
      <trkpt lat="47.93953" lon="-2.63259">
        <ele>69.06</ele>
        <time>2019-03-29T14:38:20Z</time>
      </trkpt>
      <trkpt lat="47.93953" lon="-2.63257">
        <ele>69.14</ele>
        <time>2019-03-29T14:38:21Z</time>
      </trkpt>
      <trkpt lat="47.93953" lon="-2.63255">
        <ele>69.25</ele>
        <time>2019-03-29T14:38:22Z</time>
      </trkpt>
      <trkpt lat="47.93952" lon="-2.63252">
        <ele>69.39</ele>
        <time>2019-03-29T14:38:23Z</time>
      </trkpt>
      <trkpt lat="47.93951" lon="-2.6321">
        <ele>71.21</ele>
        <time>2019-03-29T14:38:35Z</time>
      </trkpt>
      <trkpt lat="47.9395" lon="-2.6317">
        <ele>73.04</ele>
        <time>2019-03-29T14:38:49Z</time>
      </trkpt>
      <trkpt lat="47.93952" lon="-2.6313">
        <ele>75.06</ele>
        <time>2019-03-29T14:39:02Z</time>
      </trkpt>
      <trkpt lat="47.93952" lon="-2.63086">
        <ele>76.7</ele>
        <time>2019-03-29T14:39:19Z</time>
      </trkpt>
      <trkpt lat="47.93952" lon="-2.63044">
        <ele>78.44</ele>
        <time>2019-03-29T14:39:33Z</time>
      </trkpt>
      <trkpt lat="47.93953" lon="-2.63003">
        <ele>80.11</ele>
        <time>2019-03-29T14:39:50Z</time>
      </trkpt>
      <trkpt lat="47.93954" lon="-2.6299">
        <ele>80.89</ele>
        <time>2019-03-29T14:39:55Z</time>
      </trkpt>
      <trkpt lat="47.93954" lon="-2.62987">
        <ele>81.03</ele>
        <time>2019-03-29T14:39:56Z</time>
      </trkpt>
      <trkpt lat="47.93954" lon="-2.62984">
        <ele>81.11</ele>
        <time>2019-03-29T14:39:57Z</time>
      </trkpt>
      <trkpt lat="47.93955" lon="-2.62983">
        <ele>81.21</ele>
        <time>2019-03-29T14:39:58Z</time>
      </trkpt>
      <trkpt lat="47.93955" lon="-2.62981">
        <ele>81.35</ele>
        <time>2019-03-29T14:39:59Z</time>
      </trkpt>
      <trkpt lat="47.93954" lon="-2.62978">
        <ele>81.57</ele>
        <time>2019-03-29T14:40:00Z</time>
      </trkpt>
      <trkpt lat="47.93954" lon="-2.62975">
        <ele>81.81</ele>
        <time>2019-03-29T14:40:01Z</time>
      </trkpt>
      <trkpt lat="47.93954" lon="-2.62972">
        <ele>81.99</ele>
        <time>2019-03-29T14:40:02Z</time>
      </trkpt>
      <trkpt lat="47.93954" lon="-2.62968">
        <ele>82.28</ele>
        <time>2019-03-29T14:40:03Z</time>
      </trkpt>
      <trkpt lat="47.93955" lon="-2.62965">
        <ele>82.4</ele>
        <time>2019-03-29T14:40:04Z</time>
      </trkpt>
      <trkpt lat="47.93955" lon="-2.62962">
        <ele>82.5</ele>
        <time>2019-03-29T14:40:05Z</time>
      </trkpt>
      <trkpt lat="47.93954" lon="-2.62958">
        <ele>82.58</ele>
        <time>2019-03-29T14:40:06Z</time>
      </trkpt>
      <trkpt lat="47.93954" lon="-2.62955">
        <ele>82.69</ele>
        <time>2019-03-29T14:40:07Z</time>
      </trkpt>
      <trkpt lat="47.93954" lon="-2.62952">
        <ele>82.81</ele>
        <time>2019-03-29T14:40:08Z</time>
      </trkpt>
      <trkpt lat="47.93953" lon="-2.62949">
        <ele>82.94</ele>
        <time>2019-03-29T14:40:09Z</time>
      </trkpt>
      <trkpt lat="47.93953" lon="-2.62946">
        <ele>83.08</ele>
        <time>2019-03-29T14:40:10Z</time>
      </trkpt>
      <trkpt lat="47.93936" lon="-2.62931">
        <ele>84.83</ele>
        <time>2019-03-29T14:40:23Z</time>
      </trkpt>
      <trkpt lat="47.93904" lon="-2.62931">
        <ele>84.93</ele>
        <time>2019-03-29T14:40:41Z</time>
      </trkpt>
      <trkpt lat="47.93868" lon="-2.62932">
        <ele>84.77</ele>
        <time>2019-03-29T14:41:01Z</time>
      </trkpt>
      <trkpt lat="47.9384" lon="-2.62931">
        <ele>84.51</ele>
        <time>2019-03-29T14:41:17Z</time>
      </trkpt>
      <trkpt lat="47.93804" lon="-2.62932">
        <ele>83.88</ele>
        <time>2019-03-29T14:41:37Z</time>
      </trkpt>
      <trkpt lat="47.93778" lon="-2.62935">
        <ele>82.57</ele>
        <time>2019-03-29T14:41:53Z</time>
      </trkpt>
      <trkpt lat="47.93753" lon="-2.62946">
        <ele>80.85</ele>
        <time>2019-03-29T14:42:09Z</time>
      </trkpt>
      <trkpt lat="47.93727" lon="-2.6297">
        <ele>79.82</ele>
        <time>2019-03-29T14:42:27Z</time>
      </trkpt>
      <trkpt lat="47.93709" lon="-2.62994">
        <ele>80.79</ele>
        <time>2019-03-29T14:42:41Z</time>
      </trkpt>
      <trkpt lat="47.93688" lon="-2.63025">
        <ele>82.99</ele>
        <time>2019-03-29T14:42:58Z</time>
      </trkpt>
      <trkpt lat="47.93664" lon="-2.6306">
        <ele>85.12</ele>
        <time>2019-03-29T14:43:17Z</time>
      </trkpt>
      <trkpt lat="47.9364" lon="-2.63096">
        <ele>86.75</ele>
        <time>2019-03-29T14:43:36Z</time>
      </trkpt>
      <trkpt lat="47.93615" lon="-2.63133">
        <ele>87.96</ele>
        <time>2019-03-29T14:43:55Z</time>
      </trkpt>
      <trkpt lat="47.93594" lon="-2.63163">
        <ele>88.1</ele>
        <time>2019-03-29T14:44:11Z</time>
      </trkpt>
      <trkpt lat="47.93571" lon="-2.63196">
        <ele>88.62</ele>
        <time>2019-03-29T14:44:29Z</time>
      </trkpt>
      <trkpt lat="47.93557" lon="-2.63218">
        <ele>88.72</ele>
        <time>2019-03-29T14:44:41Z</time>
      </trkpt>
      <trkpt lat="47.93533" lon="-2.63252">
        <ele>88.88</ele>
        <time>2019-03-29T14:44:58Z</time>
      </trkpt>
      <trkpt lat="47.93503" lon="-2.63293">
        <ele>88.66</ele>
        <time>2019-03-29T14:45:20Z</time>
      </trkpt>
      <trkpt lat="47.93478" lon="-2.63329">
        <ele>89.62</ele>
        <time>2019-03-29T14:45:39Z</time>
      </trkpt>
      <trkpt lat="47.93453" lon="-2.63366">
        <ele>90.72</ele>
        <time>2019-03-29T14:45:58Z</time>
      </trkpt>
      <trkpt lat="47.93423" lon="-2.63409">
        <ele>91.85</ele>
        <time>2019-03-29T14:46:21Z</time>
      </trkpt>
      <trkpt lat="47.93396" lon="-2.63447">
        <ele>92.62</ele>
        <time>2019-03-29T14:46:42Z</time>
      </trkpt>
      <trkpt lat="47.93374" lon="-2.6348">
        <ele>93.22</ele>
        <time>2019-03-29T14:47:00Z</time>
      </trkpt>
      <trkpt lat="47.93354" lon="-2.63505">
        <ele>93.4</ele>
        <time>2019-03-29T14:47:16Z</time>
      </trkpt>
      <trkpt lat="47.93342" lon="-2.63521">
        <ele>93.5</ele>
        <time>2019-03-29T14:47:25Z</time>
      </trkpt>
      <trkpt lat="47.93341" lon="-2.63522">
        <ele>93.49</ele>
        <time>2019-03-29T14:47:26Z</time>
      </trkpt>
      <trkpt lat="47.9334" lon="-2.63524">
        <ele>93.49</ele>
        <time>2019-03-29T14:47:27Z</time>
      </trkpt>
      <trkpt lat="47.93339" lon="-2.63525">
        <ele>93.51</ele>
        <time>2019-03-29T14:47:28Z</time>
      </trkpt>
      <trkpt lat="47.93338" lon="-2.63527">
        <ele>93.54</ele>
        <time>2019-03-29T14:47:29Z</time>
      </trkpt>
      <trkpt lat="47.93329" lon="-2.63559">
        <ele>92.8</ele>
        <time>2019-03-29T14:47:45Z</time>
      </trkpt>
      <trkpt lat="47.93331" lon="-2.63596">
        <ele>91.34</ele>
        <time>2019-03-29T14:48:02Z</time>
      </trkpt>
      <trkpt lat="47.9333" lon="-2.63631">
        <ele>89.79</ele>
        <time>2019-03-29T14:48:14Z</time>
      </trkpt>
      <trkpt lat="47.93323" lon="-2.63665">
        <ele>88.1</ele>
        <time>2019-03-29T14:48:28Z</time>
      </trkpt>
      <trkpt lat="47.93319" lon="-2.6367">
        <ele>87.97</ele>
        <time>2019-03-29T14:48:31Z</time>
      </trkpt>
      <trkpt lat="47.93317" lon="-2.63671">
        <ele>87.96</ele>
        <time>2019-03-29T14:48:32Z</time>
      </trkpt>
      <trkpt lat="47.93315" lon="-2.63672">
        <ele>87.96</ele>
        <time>2019-03-29T14:48:33Z</time>
      </trkpt>
      <trkpt lat="47.93314" lon="-2.63672">
        <ele>87.95</ele>
        <time>2019-03-29T14:48:34Z</time>
      </trkpt>
      <trkpt lat="47.93312" lon="-2.63672">
        <ele>87.96</ele>
        <time>2019-03-29T14:48:35Z</time>
      </trkpt>
      <trkpt lat="47.9331" lon="-2.63671">
        <ele>87.96</ele>
        <time>2019-03-29T14:48:36Z</time>
      </trkpt>
      <trkpt lat="47.93309" lon="-2.6367">
        <ele>87.98</ele>
        <time>2019-03-29T14:48:37Z</time>
      </trkpt>
      <trkpt lat="47.93285" lon="-2.6365">
        <ele>88.84</ele>
        <time>2019-03-29T14:48:51Z</time>
      </trkpt>
      <trkpt lat="47.93258" lon="-2.63639">
        <ele>90.47</ele>
        <time>2019-03-29T14:49:08Z</time>
      </trkpt>
      <trkpt lat="47.93227" lon="-2.63638">
        <ele>91.61</ele>
        <time>2019-03-29T14:49:25Z</time>
      </trkpt>
      <trkpt lat="47.932" lon="-2.63644">
        <ele>91.51</ele>
        <time>2019-03-29T14:49:41Z</time>
      </trkpt>
      <trkpt lat="47.93176" lon="-2.6366">
        <ele>90.4</ele>
        <time>2019-03-29T14:49:56Z</time>
      </trkpt>
      <trkpt lat="47.93144" lon="-2.63651">
        <ele>90.11</ele>
        <time>2019-03-29T14:50:13Z</time>
      </trkpt>
      <trkpt lat="47.93121" lon="-2.63641">
        <ele>89.53</ele>
        <time>2019-03-29T14:50:26Z</time>
      </trkpt>
      <trkpt lat="47.93097" lon="-2.63618">
        <ele>87.71</ele>
        <time>2019-03-29T14:50:41Z</time>
      </trkpt>
      <trkpt lat="47.93091" lon="-2.63611">
        <ele>86.86</ele>
        <time>2019-03-29T14:50:46Z</time>
      </trkpt>
      <trkpt lat="47.93067" lon="-2.63592">
        <ele>86.85</ele>
        <time>2019-03-29T14:50:59Z</time>
      </trkpt>
      <trkpt lat="47.93063" lon="-2.63589">
        <ele>86.87</ele>
        <time>2019-03-29T14:51:00Z</time>
      </trkpt>
      <trkpt lat="47.93061" lon="-2.63587">
        <ele>86.87</ele>
        <time>2019-03-29T14:51:01Z</time>
      </trkpt>
      <trkpt lat="47.93059" lon="-2.63585">
        <ele>86.87</ele>
        <time>2019-03-29T14:51:02Z</time>
      </trkpt>
      <trkpt lat="47.93057" lon="-2.63582">
        <ele>86.89</ele>
        <time>2019-03-29T14:51:03Z</time>
      </trkpt>
      <trkpt lat="47.93054" lon="-2.63573">
        <ele>86.96</ele>
        <time>2019-03-29T14:51:06Z</time>
      </trkpt>
      <trkpt lat="47.93053" lon="-2.63571">
        <ele>86.98</ele>
        <time>2019-03-29T14:51:07Z</time>
      </trkpt>
      <trkpt lat="47.93052" lon="-2.6357">
        <ele>87.04</ele>
        <time>2019-03-29T14:51:08Z</time>
      </trkpt>
      <trkpt lat="47.93051" lon="-2.63569">
        <ele>87.14</ele>
        <time>2019-03-29T14:51:09Z</time>
      </trkpt>
      <trkpt lat="47.9305" lon="-2.63568">
        <ele>87.34</ele>
        <time>2019-03-29T14:51:10Z</time>
      </trkpt>
      <trkpt lat="47.93036" lon="-2.63553">
        <ele>88.73</ele>
        <time>2019-03-29T14:51:20Z</time>
      </trkpt>
      <trkpt lat="47.93014" lon="-2.63547">
        <ele>90.9</ele>
        <time>2019-03-29T14:51:33Z</time>
      </trkpt>
      <trkpt lat="47.92993" lon="-2.63561">
        <ele>93.37</ele>
        <time>2019-03-29T14:51:47Z</time>
      </trkpt>
      <trkpt lat="47.92978" lon="-2.63579">
        <ele>95.54</ele>
        <time>2019-03-29T14:52:00Z</time>
      </trkpt>
      <trkpt lat="47.92957" lon="-2.63607">
        <ele>97.72</ele>
        <time>2019-03-29T14:52:16Z</time>
      </trkpt>
      <trkpt lat="47.92899" lon="-2.63644">
        <ele>98.79</ele>
        <time>2019-03-29T14:52:33Z</time>
      </trkpt>
      <trkpt lat="47.92831" lon="-2.63714">
        <ele>116.765625</ele>
      </trkpt>
      <trkpt lat="47.9276" lon="-2.63702">
        <ele>115.46484375</ele>
      </trkpt>
      <trkpt lat="47.92614" lon="-2.63615">
        <ele>112.3203125</ele>
      </trkpt>
      <trkpt lat="47.9259" lon="-2.63611">
        <ele>111.58984375</ele>
      </trkpt>
      <trkpt lat="47.92586" lon="-2.6357">
        <ele>112.91796875</ele>
      </trkpt>
      <trkpt lat="47.92609" lon="-2.63353">
        <ele>117.3046875</ele>
      </trkpt>
      <trkpt lat="47.92588" lon="-2.63213">
        <ele>118.8203125</ele>
      </trkpt>
      <trkpt lat="47.92602" lon="-2.62915">
        <ele>125.2578125</ele>
      </trkpt>
      <trkpt lat="47.92607" lon="-2.62759">
        <ele>127</ele>
      </trkpt>
      <trkpt lat="47.92102" lon="-2.62971">
        <ele>128.39453125</ele>
      </trkpt>
      <trkpt lat="47.92015" lon="-2.63013">
        <ele>126.8203125</ele>
      </trkpt>
      <trkpt lat="47.91858" lon="-2.63054">
        <ele>122.12890625</ele>
      </trkpt>
      <trkpt lat="47.91842" lon="-2.63045">
        <ele>107.35</ele>
        <time>2019-03-29T15:18:16Z</time>
      </trkpt>
      <trkpt lat="47.91822" lon="-2.63022">
        <ele>107.12</ele>
        <time>2019-03-29T15:18:31Z</time>
      </trkpt>
      <trkpt lat="47.91791" lon="-2.6299">
        <ele>107.17</ele>
        <time>2019-03-29T15:18:54Z</time>
      </trkpt>
      <trkpt lat="47.91763" lon="-2.62963">
        <ele>106.68</ele>
        <time>2019-03-29T15:19:13Z</time>
      </trkpt>
      <trkpt lat="47.91736" lon="-2.62939">
        <ele>105.33</ele>
        <time>2019-03-29T15:19:32Z</time>
      </trkpt>
      <trkpt lat="47.91701" lon="-2.62905">
        <ele>104.93</ele>
        <time>2019-03-29T15:19:56Z</time>
      </trkpt>
      <trkpt lat="47.91674" lon="-2.62875">
        <ele>104.06</ele>
        <time>2019-03-29T15:20:16Z</time>
      </trkpt>
      <trkpt lat="47.91677" lon="-2.62835">
        <ele>102.89</ele>
        <time>2019-03-29T15:20:32Z</time>
      </trkpt>
      <trkpt lat="47.9169" lon="-2.62788">
        <ele>103.78</ele>
        <time>2019-03-29T15:20:51Z</time>
      </trkpt>
      <trkpt lat="47.91701" lon="-2.62747">
        <ele>104.32</ele>
        <time>2019-03-29T15:21:08Z</time>
      </trkpt>
      <trkpt lat="47.91708" lon="-2.62712">
        <ele>104.03</ele>
        <time>2019-03-29T15:21:23Z</time>
      </trkpt>
      <trkpt lat="47.91705" lon="-2.62709">
        <ele>103.99</ele>
        <time>2019-03-29T15:21:33Z</time>
      </trkpt>
      <trkpt lat="47.91705" lon="-2.62709">
        <ele>103.9</ele>
        <time>2019-03-29T15:21:34Z</time>
      </trkpt>
      <trkpt lat="47.91697" lon="-2.62699">
        <ele>103.65</ele>
        <time>2019-03-29T15:22:13Z</time>
      </trkpt>
      <trkpt lat="47.91696" lon="-2.62698">
        <ele>103.65</ele>
        <time>2019-03-29T15:22:14Z</time>
      </trkpt>
      <trkpt lat="47.91695" lon="-2.62696">
        <ele>103.61</ele>
        <time>2019-03-29T15:22:15Z</time>
      </trkpt>
      <trkpt lat="47.91673" lon="-2.62673">
        <ele>102.97</ele>
        <time>2019-03-29T15:22:33Z</time>
      </trkpt>
      <trkpt lat="47.91653" lon="-2.62651">
        <ele>102.65</ele>
        <time>2019-03-29T15:22:49Z</time>
      </trkpt>
      <trkpt lat="47.91629" lon="-2.62628">
        <ele>102.54</ele>
        <time>2019-03-29T15:23:07Z</time>
      </trkpt>
      <trkpt lat="47.91607" lon="-2.62608">
        <ele>102.4</ele>
        <time>2019-03-29T15:23:24Z</time>
      </trkpt>
      <trkpt lat="47.91577" lon="-2.62578">
        <ele>102.17</ele>
        <time>2019-03-29T15:23:46Z</time>
      </trkpt>
      <trkpt lat="47.91553" lon="-2.62551">
        <ele>102.57</ele>
        <time>2019-03-29T15:24:04Z</time>
      </trkpt>
      <trkpt lat="47.9153" lon="-2.62524">
        <ele>103.06</ele>
        <time>2019-03-29T15:24:22Z</time>
      </trkpt>
      <trkpt lat="47.915" lon="-2.62496">
        <ele>103.78</ele>
        <time>2019-03-29T15:24:43Z</time>
      </trkpt>
      <trkpt lat="47.91483" lon="-2.62477">
        <ele>104.31</ele>
        <time>2019-03-29T15:24:56Z</time>
      </trkpt>
      <trkpt lat="47.91457" lon="-2.62453">
        <ele>104.84</ele>
        <time>2019-03-29T15:25:14Z</time>
      </trkpt>
      <trkpt lat="47.91461" lon="-2.62429">
        <ele>103.92</ele>
        <time>2019-03-29T15:25:26Z</time>
      </trkpt>
      <trkpt lat="47.91481" lon="-2.62393">
        <ele>102.77</ele>
        <time>2019-03-29T15:25:44Z</time>
      </trkpt>
      <trkpt lat="47.915" lon="-2.62356">
        <ele>101.34</ele>
        <time>2019-03-29T15:26:02Z</time>
      </trkpt>
      <trkpt lat="47.91522" lon="-2.62312">
        <ele>100.06</ele>
        <time>2019-03-29T15:26:23Z</time>
      </trkpt>
      <trkpt lat="47.9154" lon="-2.62276">
        <ele>98.97</ele>
        <time>2019-03-29T15:26:40Z</time>
      </trkpt>
      <trkpt lat="47.91562" lon="-2.62234">
        <ele>98.08</ele>
        <time>2019-03-29T15:27:01Z</time>
      </trkpt>
      <trkpt lat="47.9158" lon="-2.62199">
        <ele>97.41</ele>
        <time>2019-03-29T15:27:19Z</time>
      </trkpt>
      <trkpt lat="47.91585" lon="-2.62176">
        <ele>97.68</ele>
        <time>2019-03-29T15:27:29Z</time>
      </trkpt>
      <trkpt lat="47.91584" lon="-2.62175">
        <ele>97.71</ele>
        <time>2019-03-29T15:27:30Z</time>
      </trkpt>
      <trkpt lat="47.91583" lon="-2.62173">
        <ele>97.74</ele>
        <time>2019-03-29T15:27:31Z</time>
      </trkpt>
      <trkpt lat="47.91581" lon="-2.62171">
        <ele>97.8</ele>
        <time>2019-03-29T15:27:32Z</time>
      </trkpt>
      <trkpt lat="47.9158" lon="-2.6217">
        <ele>97.83</ele>
        <time>2019-03-29T15:27:33Z</time>
      </trkpt>
      <trkpt lat="47.91579" lon="-2.62168">
        <ele>97.85</ele>
        <time>2019-03-29T15:27:34Z</time>
      </trkpt>
      <trkpt lat="47.91578" lon="-2.62167">
        <ele>97.86</ele>
        <time>2019-03-29T15:27:35Z</time>
      </trkpt>
      <trkpt lat="47.91554" lon="-2.6214">
        <ele>97.15</ele>
        <time>2019-03-29T15:27:53Z</time>
      </trkpt>
      <trkpt lat="47.91532" lon="-2.62117">
        <ele>96.42</ele>
        <time>2019-03-29T15:28:10Z</time>
      </trkpt>
      <trkpt lat="47.91514" lon="-2.62099">
        <ele>95.91</ele>
        <time>2019-03-29T15:28:25Z</time>
      </trkpt>
      <trkpt lat="47.91496" lon="-2.6208">
        <ele>95.61</ele>
        <time>2019-03-29T15:28:39Z</time>
      </trkpt>
      <trkpt lat="47.91476" lon="-2.62058">
        <ele>94.95</ele>
        <time>2019-03-29T15:28:54Z</time>
      </trkpt>
      <trkpt lat="47.91458" lon="-2.62038">
        <ele>94.56</ele>
        <time>2019-03-29T15:29:06Z</time>
      </trkpt>
      <trkpt lat="47.91442" lon="-2.62023">
        <ele>94.55</ele>
        <time>2019-03-29T15:29:19Z</time>
      </trkpt>
      <trkpt lat="47.91421" lon="-2.62001">
        <ele>94.39</ele>
        <time>2019-03-29T15:29:33Z</time>
      </trkpt>
      <trkpt lat="47.91396" lon="-2.6197">
        <ele>93.91</ele>
        <time>2019-03-29T15:29:51Z</time>
      </trkpt>
      <trkpt lat="47.91367" lon="-2.61935">
        <ele>94.42</ele>
        <time>2019-03-29T15:30:11Z</time>
      </trkpt>
      <trkpt lat="47.9133" lon="-2.61896">
        <ele>95.7</ele>
        <time>2019-03-29T15:30:37Z</time>
      </trkpt>
      <trkpt lat="47.91302" lon="-2.61866">
        <ele>96.33</ele>
        <time>2019-03-29T15:30:58Z</time>
      </trkpt>
      <trkpt lat="47.91278" lon="-2.61837">
        <ele>97.55</ele>
        <time>2019-03-29T15:31:16Z</time>
      </trkpt>
      <trkpt lat="47.91257" lon="-2.61814">
        <ele>97.96</ele>
        <time>2019-03-29T15:31:32Z</time>
      </trkpt>
      <trkpt lat="47.91236" lon="-2.61791">
        <ele>98.75</ele>
        <time>2019-03-29T15:31:48Z</time>
      </trkpt>
      <trkpt lat="47.91229" lon="-2.61783">
        <ele>99.08</ele>
        <time>2019-03-29T15:31:54Z</time>
      </trkpt>
      <trkpt lat="47.91228" lon="-2.61781">
        <ele>99.09</ele>
        <time>2019-03-29T15:31:55Z</time>
      </trkpt>
      <trkpt lat="47.91228" lon="-2.61779">
        <ele>99.06</ele>
        <time>2019-03-29T15:31:56Z</time>
      </trkpt>
      <trkpt lat="47.91229" lon="-2.61777">
        <ele>99.03</ele>
        <time>2019-03-29T15:31:57Z</time>
      </trkpt>
      <trkpt lat="47.91229" lon="-2.61774">
        <ele>99.05</ele>
        <time>2019-03-29T15:31:58Z</time>
      </trkpt>
      <trkpt lat="47.91241" lon="-2.61751">
        <ele>99.15</ele>
        <time>2019-03-29T15:32:10Z</time>
      </trkpt>
      <trkpt lat="47.91242" lon="-2.6175">
        <ele>99.18</ele>
        <time>2019-03-29T15:32:11Z</time>
      </trkpt>
      <trkpt lat="47.91244" lon="-2.61748">
        <ele>99.16</ele>
        <time>2019-03-29T15:32:12Z</time>
      </trkpt>
      <trkpt lat="47.91245" lon="-2.61747">
        <ele>99.16</ele>
        <time>2019-03-29T15:32:13Z</time>
      </trkpt>
      <trkpt lat="47.91247" lon="-2.61743">
        <ele>99.16</ele>
        <time>2019-03-29T15:32:15Z</time>
      </trkpt>
      <trkpt lat="47.91248" lon="-2.61742">
        <ele>99.17</ele>
        <time>2019-03-29T15:32:16Z</time>
      </trkpt>
      <trkpt lat="47.91275" lon="-2.61711">
        <ele>99.47</ele>
        <time>2019-03-29T15:32:36Z</time>
      </trkpt>
      <trkpt lat="47.91297" lon="-2.61676">
        <ele>100.06</ele>
        <time>2019-03-29T15:32:54Z</time>
      </trkpt>
      <trkpt lat="47.91321" lon="-2.61644">
        <ele>100.53</ele>
        <time>2019-03-29T15:33:14Z</time>
      </trkpt>
      <trkpt lat="47.91345" lon="-2.61614">
        <ele>100.93</ele>
        <time>2019-03-29T15:33:32Z</time>
      </trkpt>
      <trkpt lat="47.91365" lon="-2.61587">
        <ele>100.86</ele>
        <time>2019-03-29T15:33:48Z</time>
      </trkpt>
      <trkpt lat="47.91382" lon="-2.6156">
        <ele>101.28</ele>
        <time>2019-03-29T15:34:03Z</time>
      </trkpt>
      <trkpt lat="47.91407" lon="-2.61529">
        <ele>101.09</ele>
        <time>2019-03-29T15:34:22Z</time>
      </trkpt>
      <trkpt lat="47.91433" lon="-2.61495">
        <ele>101</ele>
        <time>2019-03-29T15:34:42Z</time>
      </trkpt>
      <trkpt lat="47.9146" lon="-2.6146">
        <ele>100.49</ele>
        <time>2019-03-29T15:35:03Z</time>
      </trkpt>
      <trkpt lat="47.91487" lon="-2.61423">
        <ele>100.3</ele>
        <time>2019-03-29T15:35:24Z</time>
      </trkpt>
      <trkpt lat="47.91519" lon="-2.61383">
        <ele>99.8</ele>
        <time>2019-03-29T15:35:48Z</time>
      </trkpt>
      <trkpt lat="47.91545" lon="-2.61348">
        <ele>99.81</ele>
        <time>2019-03-29T15:36:08Z</time>
      </trkpt>
      <trkpt lat="47.91554" lon="-2.61316">
        <ele>99.24</ele>
        <time>2019-03-29T15:36:24Z</time>
      </trkpt>
      <trkpt lat="47.91536" lon="-2.6128">
        <ele>99.32</ele>
        <time>2019-03-29T15:36:41Z</time>
      </trkpt>
      <trkpt lat="47.9152" lon="-2.61248">
        <ele>98.42</ele>
        <time>2019-03-29T15:36:58Z</time>
      </trkpt>
      <trkpt lat="47.91503" lon="-2.61216">
        <ele>97.27</ele>
        <time>2019-03-29T15:37:14Z</time>
      </trkpt>
      <trkpt lat="47.91481" lon="-2.61177">
        <ele>96.21</ele>
        <time>2019-03-29T15:37:34Z</time>
      </trkpt>
      <trkpt lat="47.91456" lon="-2.61134">
        <ele>94.99</ele>
        <time>2019-03-29T15:37:56Z</time>
      </trkpt>
      <trkpt lat="47.91433" lon="-2.61091">
        <ele>95.11</ele>
        <time>2019-03-29T15:38:17Z</time>
      </trkpt>
      <trkpt lat="47.91413" lon="-2.61052">
        <ele>94.29</ele>
        <time>2019-03-29T15:38:36Z</time>
      </trkpt>
      <trkpt lat="47.91393" lon="-2.6103">
        <ele>94.04</ele>
        <time>2019-03-29T15:38:50Z</time>
      </trkpt>
      <trkpt lat="47.9137" lon="-2.61042">
        <ele>93.85</ele>
        <time>2019-03-29T15:39:04Z</time>
      </trkpt>
      <trkpt lat="47.91346" lon="-2.61058">
        <ele>94.05</ele>
        <time>2019-03-29T15:39:21Z</time>
      </trkpt>
      <trkpt lat="47.91326" lon="-2.6107">
        <ele>94.35</ele>
        <time>2019-03-29T15:39:35Z</time>
      </trkpt>
      <trkpt lat="47.91296" lon="-2.61091">
        <ele>95.13</ele>
        <time>2019-03-29T15:39:54Z</time>
      </trkpt>
      <trkpt lat="47.9127" lon="-2.61105">
        <ele>96.51</ele>
        <time>2019-03-29T15:40:11Z</time>
      </trkpt>
      <trkpt lat="47.91242" lon="-2.61117">
        <ele>98.16</ele>
        <time>2019-03-29T15:40:29Z</time>
      </trkpt>
      <trkpt lat="47.91214" lon="-2.6113">
        <ele>99.22</ele>
        <time>2019-03-29T15:40:46Z</time>
      </trkpt>
      <trkpt lat="47.91187" lon="-2.61147">
        <ele>100.57</ele>
        <time>2019-03-29T15:41:04Z</time>
      </trkpt>
      <trkpt lat="47.91184" lon="-2.61149">
        <ele>100.85</ele>
        <time>2019-03-29T15:41:06Z</time>
      </trkpt>
      <trkpt lat="47.91182" lon="-2.61149">
        <ele>100.91</ele>
        <time>2019-03-29T15:41:07Z</time>
      </trkpt>
      <trkpt lat="47.91149" lon="-2.6117">
        <ele>102.57</ele>
        <time>2019-03-29T15:41:29Z</time>
      </trkpt>
      <trkpt lat="47.9111" lon="-2.61189">
        <ele>103.85</ele>
        <time>2019-03-29T15:41:53Z</time>
      </trkpt>
      <trkpt lat="47.91088" lon="-2.61164">
        <ele>103.65</ele>
        <time>2019-03-29T15:42:09Z</time>
      </trkpt>
      <trkpt lat="47.91068" lon="-2.61142">
        <ele>102.29</ele>
        <time>2019-03-29T15:42:24Z</time>
      </trkpt>
      <trkpt lat="47.91045" lon="-2.61115">
        <ele>101.74</ele>
        <time>2019-03-29T15:42:41Z</time>
      </trkpt>
      <trkpt lat="47.91028" lon="-2.6109">
        <ele>102.16</ele>
        <time>2019-03-29T15:42:56Z</time>
      </trkpt>
      <trkpt lat="47.9103" lon="-2.61055">
        <ele>102.61</ele>
        <time>2019-03-29T15:43:13Z</time>
      </trkpt>
      <trkpt lat="47.9105" lon="-2.61024">
        <ele>100.86</ele>
        <time>2019-03-29T15:43:29Z</time>
      </trkpt>
      <trkpt lat="47.91072" lon="-2.60993">
        <ele>98.61</ele>
        <time>2019-03-29T15:43:46Z</time>
      </trkpt>
      <trkpt lat="47.91093" lon="-2.60967">
        <ele>96.82</ele>
        <time>2019-03-29T15:44:01Z</time>
      </trkpt>
      <trkpt lat="47.91112" lon="-2.60943">
        <ele>94.9</ele>
        <time>2019-03-29T15:44:15Z</time>
      </trkpt>
      <trkpt lat="47.91124" lon="-2.60927">
        <ele>94.08</ele>
        <time>2019-03-29T15:44:25Z</time>
      </trkpt>
      <trkpt lat="47.91141" lon="-2.60905">
        <ele>92.77</ele>
        <time>2019-03-29T15:44:39Z</time>
      </trkpt>
      <trkpt lat="47.91162" lon="-2.60877">
        <ele>91.15</ele>
        <time>2019-03-29T15:44:55Z</time>
      </trkpt>
      <trkpt lat="47.91178" lon="-2.60858">
        <ele>89.85</ele>
        <time>2019-03-29T15:45:07Z</time>
      </trkpt>
      <trkpt lat="47.9118" lon="-2.60857">
        <ele>89.73</ele>
        <time>2019-03-29T15:45:08Z</time>
      </trkpt>
      <trkpt lat="47.91182" lon="-2.60855">
        <ele>89.62</ele>
        <time>2019-03-29T15:45:09Z</time>
      </trkpt>
      <trkpt lat="47.91183" lon="-2.60853">
        <ele>89.52</ele>
        <time>2019-03-29T15:45:10Z</time>
      </trkpt>
      <trkpt lat="47.91184" lon="-2.60851">
        <ele>89.42</ele>
        <time>2019-03-29T15:45:11Z</time>
      </trkpt>
      <trkpt lat="47.91186" lon="-2.60849">
        <ele>89.3</ele>
        <time>2019-03-29T15:45:12Z</time>
      </trkpt>
      <trkpt lat="47.91206" lon="-2.6083">
        <ele>87.98</ele>
        <time>2019-03-29T15:45:25Z</time>
      </trkpt>
      <trkpt lat="47.91218" lon="-2.60808">
        <ele>86.57</ele>
        <time>2019-03-29T15:45:37Z</time>
      </trkpt>
      <trkpt lat="47.91232" lon="-2.60786">
        <ele>85.07</ele>
        <time>2019-03-29T15:45:48Z</time>
      </trkpt>
      <trkpt lat="47.91234" lon="-2.60782">
        <ele>84.8</ele>
        <time>2019-03-29T15:45:50Z</time>
      </trkpt>
      <trkpt lat="47.91235" lon="-2.60779">
        <ele>84.62</ele>
        <time>2019-03-29T15:45:51Z</time>
      </trkpt>
      <trkpt lat="47.91244" lon="-2.60751">
        <ele>82.94</ele>
        <time>2019-03-29T15:46:04Z</time>
      </trkpt>
      <trkpt lat="47.91245" lon="-2.60749">
        <ele>82.84</ele>
        <time>2019-03-29T15:46:05Z</time>
      </trkpt>
      <trkpt lat="47.91246" lon="-2.60747">
        <ele>82.71</ele>
        <time>2019-03-29T15:46:06Z</time>
      </trkpt>
      <trkpt lat="47.91247" lon="-2.60745">
        <ele>82.39</ele>
        <time>2019-03-29T15:46:07Z</time>
      </trkpt>
      <trkpt lat="47.91248" lon="-2.60742">
        <ele>82.11</ele>
        <time>2019-03-29T15:46:09Z</time>
      </trkpt>
      <trkpt lat="47.91251" lon="-2.60733">
        <ele>81.61</ele>
        <time>2019-03-29T15:46:13Z</time>
      </trkpt>
      <trkpt lat="47.91252" lon="-2.6073">
        <ele>81.47</ele>
        <time>2019-03-29T15:46:14Z</time>
      </trkpt>
      <trkpt lat="47.91252" lon="-2.60728">
        <ele>81.31</ele>
        <time>2019-03-29T15:46:15Z</time>
      </trkpt>
      <trkpt lat="47.91253" lon="-2.60726">
        <ele>81.14</ele>
        <time>2019-03-29T15:46:16Z</time>
      </trkpt>
      <trkpt lat="47.91253" lon="-2.60724">
        <ele>80.99</ele>
        <time>2019-03-29T15:46:17Z</time>
      </trkpt>
      <trkpt lat="47.91254" lon="-2.60722">
        <ele>80.85</ele>
        <time>2019-03-29T15:46:18Z</time>
      </trkpt>
      <trkpt lat="47.91261" lon="-2.60693">
        <ele>79.56</ele>
        <time>2019-03-29T15:46:29Z</time>
      </trkpt>
      <trkpt lat="47.9126" lon="-2.60686">
        <ele>79.25</ele>
        <time>2019-03-29T15:46:32Z</time>
      </trkpt>
      <trkpt lat="47.9126" lon="-2.60683">
        <ele>79.01</ele>
        <time>2019-03-29T15:46:33Z</time>
      </trkpt>
      <trkpt lat="47.91259" lon="-2.60681">
        <ele>78.88</ele>
        <time>2019-03-29T15:46:34Z</time>
      </trkpt>
      <trkpt lat="47.91259" lon="-2.60678">
        <ele>78.77</ele>
        <time>2019-03-29T15:46:35Z</time>
      </trkpt>
      <trkpt lat="47.91259" lon="-2.60675">
        <ele>78.63</ele>
        <time>2019-03-29T15:46:36Z</time>
      </trkpt>
      <trkpt lat="47.91251" lon="-2.60641">
        <ele>76.79</ele>
        <time>2019-03-29T15:46:51Z</time>
      </trkpt>
      <trkpt lat="47.9125" lon="-2.60625">
        <ele>76.31</ele>
        <time>2019-03-29T15:46:56Z</time>
      </trkpt>
      <trkpt lat="47.91251" lon="-2.6062">
        <ele>76.12</ele>
        <time>2019-03-29T15:46:57Z</time>
      </trkpt>
      <trkpt lat="47.91251" lon="-2.60586">
        <ele>74.77</ele>
        <time>2019-03-29T15:47:09Z</time>
      </trkpt>
      <trkpt lat="47.91252" lon="-2.60577">
        <ele>74.27</ele>
        <time>2019-03-29T15:47:12Z</time>
      </trkpt>
      <trkpt lat="47.91253" lon="-2.60574">
        <ele>74.13</ele>
        <time>2019-03-29T15:47:13Z</time>
      </trkpt>
      <trkpt lat="47.91253" lon="-2.6057">
        <ele>74.01</ele>
        <time>2019-03-29T15:47:14Z</time>
      </trkpt>
      <trkpt lat="47.91252" lon="-2.60566">
        <ele>73.88</ele>
        <time>2019-03-29T15:47:15Z</time>
      </trkpt>
      <trkpt lat="47.91252" lon="-2.60562">
        <ele>73.79</ele>
        <time>2019-03-29T15:47:16Z</time>
      </trkpt>
      <trkpt lat="47.91253" lon="-2.60559">
        <ele>73.57</ele>
        <time>2019-03-29T15:47:17Z</time>
      </trkpt>
      <trkpt lat="47.91269" lon="-2.60527">
        <ele>73.2</ele>
        <time>2019-03-29T15:47:32Z</time>
      </trkpt>
      <trkpt lat="47.91278" lon="-2.60492">
        <ele>73.27</ele>
        <time>2019-03-29T15:47:45Z</time>
      </trkpt>
      <trkpt lat="47.91279" lon="-2.60486">
        <ele>73.62</ele>
        <time>2019-03-29T15:47:48Z</time>
      </trkpt>
      <trkpt lat="47.91279" lon="-2.60484">
        <ele>73.79</ele>
        <time>2019-03-29T15:47:49Z</time>
      </trkpt>
      <trkpt lat="47.91279" lon="-2.60482">
        <ele>73.95</ele>
        <time>2019-03-29T15:47:50Z</time>
      </trkpt>
      <trkpt lat="47.9128" lon="-2.60479">
        <ele>74.07</ele>
        <time>2019-03-29T15:47:51Z</time>
      </trkpt>
      <trkpt lat="47.9128" lon="-2.60477">
        <ele>74.17</ele>
        <time>2019-03-29T15:47:52Z</time>
      </trkpt>
      <trkpt lat="47.91278" lon="-2.60442">
        <ele>75.28</ele>
        <time>2019-03-29T15:48:08Z</time>
      </trkpt>
      <trkpt lat="47.91274" lon="-2.604">
        <ele>77.85</ele>
        <time>2019-03-29T15:48:27Z</time>
      </trkpt>
      <trkpt lat="47.9127" lon="-2.60366">
        <ele>79.23</ele>
        <time>2019-03-29T15:48:42Z</time>
      </trkpt>
      <trkpt lat="47.91266" lon="-2.60331">
        <ele>81.04</ele>
        <time>2019-03-29T15:48:58Z</time>
      </trkpt>
      <trkpt lat="47.91264" lon="-2.60293">
        <ele>83.01</ele>
        <time>2019-03-29T15:49:15Z</time>
      </trkpt>
      <trkpt lat="47.91264" lon="-2.60243">
        <ele>84.99</ele>
        <time>2019-03-29T15:49:32Z</time>
      </trkpt>
      <trkpt lat="47.91263" lon="-2.60193">
        <ele>86.77</ele>
        <time>2019-03-29T15:49:51Z</time>
      </trkpt>
      <trkpt lat="47.91261" lon="-2.60154">
        <ele>88.54</ele>
        <time>2019-03-29T15:50:08Z</time>
      </trkpt>
      <trkpt lat="47.91262" lon="-2.60129">
        <ele>89.77</ele>
        <time>2019-03-29T15:50:19Z</time>
      </trkpt>
      <trkpt lat="47.91262" lon="-2.60127">
        <ele>89.89</ele>
        <time>2019-03-29T15:50:20Z</time>
      </trkpt>
      <trkpt lat="47.91263" lon="-2.60108">
        <ele>90.62</ele>
        <time>2019-03-29T15:50:28Z</time>
      </trkpt>
      <trkpt lat="47.91262" lon="-2.60106">
        <ele>90.74</ele>
        <time>2019-03-29T15:50:29Z</time>
      </trkpt>
      <trkpt lat="47.91262" lon="-2.60104">
        <ele>90.88</ele>
        <time>2019-03-29T15:50:30Z</time>
      </trkpt>
      <trkpt lat="47.91262" lon="-2.60102">
        <ele>91</ele>
        <time>2019-03-29T15:50:31Z</time>
      </trkpt>
      <trkpt lat="47.91262" lon="-2.601">
        <ele>91.09</ele>
        <time>2019-03-29T15:50:32Z</time>
      </trkpt>
      <trkpt lat="47.91262" lon="-2.60098">
        <ele>91.19</ele>
        <time>2019-03-29T15:50:33Z</time>
      </trkpt>
      <trkpt lat="47.91262" lon="-2.60096">
        <ele>91.3</ele>
        <time>2019-03-29T15:50:34Z</time>
      </trkpt>
      <trkpt lat="47.91262" lon="-2.60094">
        <ele>91.38</ele>
        <time>2019-03-29T15:50:35Z</time>
      </trkpt>
      <trkpt lat="47.91264" lon="-2.60069">
        <ele>92.5</ele>
        <time>2019-03-29T15:50:46Z</time>
      </trkpt>
      <trkpt lat="47.91264" lon="-2.60067">
        <ele>92.55</ele>
        <time>2019-03-29T15:50:47Z</time>
      </trkpt>
      <trkpt lat="47.91264" lon="-2.60065">
        <ele>92.6</ele>
        <time>2019-03-29T15:50:48Z</time>
      </trkpt>
      <trkpt lat="47.91263" lon="-2.60061">
        <ele>92.66</ele>
        <time>2019-03-29T15:50:49Z</time>
      </trkpt>
      <trkpt lat="47.91263" lon="-2.60058">
        <ele>92.7</ele>
        <time>2019-03-29T15:50:50Z</time>
      </trkpt>
      <trkpt lat="47.91263" lon="-2.60055">
        <ele>92.74</ele>
        <time>2019-03-29T15:50:51Z</time>
      </trkpt>
      <trkpt lat="47.91263" lon="-2.60008">
        <ele>93.96</ele>
        <time>2019-03-29T15:51:08Z</time>
      </trkpt>
      <trkpt lat="47.91262" lon="-2.6">
        <ele>94.37</ele>
        <time>2019-03-29T15:51:17Z</time>
      </trkpt>
      <trkpt lat="47.91264" lon="-2.59989">
        <ele>94.28</ele>
        <time>2019-03-29T15:51:25Z</time>
      </trkpt>
      <trkpt lat="47.91275" lon="-2.59965">
        <ele>95.31</ele>
        <time>2019-03-29T15:51:41Z</time>
      </trkpt>
      <trkpt lat="47.91285" lon="-2.59947">
        <ele>95.69</ele>
        <time>2019-03-29T15:51:54Z</time>
      </trkpt>
      <trkpt lat="47.91285" lon="-2.59945">
        <ele>95.76</ele>
        <time>2019-03-29T15:51:55Z</time>
      </trkpt>
      <trkpt lat="47.91286" lon="-2.59944">
        <ele>95.84</ele>
        <time>2019-03-29T15:51:56Z</time>
      </trkpt>
      <trkpt lat="47.91287" lon="-2.59942">
        <ele>96.03</ele>
        <time>2019-03-29T15:51:57Z</time>
      </trkpt>
      <trkpt lat="47.91291" lon="-2.59937">
        <ele>96.31</ele>
        <time>2019-03-29T15:52:02Z</time>
      </trkpt>
      <trkpt lat="47.91293" lon="-2.59934">
        <ele>96.4</ele>
        <time>2019-03-29T15:52:04Z</time>
      </trkpt>
      <trkpt lat="47.91293" lon="-2.59932">
        <ele>96.45</ele>
        <time>2019-03-29T15:52:05Z</time>
      </trkpt>
      <trkpt lat="47.91294" lon="-2.59931">
        <ele>96.49</ele>
        <time>2019-03-29T15:52:06Z</time>
      </trkpt>
      <trkpt lat="47.91295" lon="-2.59929">
        <ele>96.53</ele>
        <time>2019-03-29T15:52:07Z</time>
      </trkpt>
      <trkpt lat="47.91296" lon="-2.59928">
        <ele>96.58</ele>
        <time>2019-03-29T15:52:08Z</time>
      </trkpt>
      <trkpt lat="47.91297" lon="-2.59927">
        <ele>96.64</ele>
        <time>2019-03-29T15:52:09Z</time>
      </trkpt>
      <trkpt lat="47.91298" lon="-2.59925">
        <ele>96.71</ele>
        <time>2019-03-29T15:52:10Z</time>
      </trkpt>
      <trkpt lat="47.91309" lon="-2.59909">
        <ele>97.69</ele>
        <time>2019-03-29T15:52:22Z</time>
      </trkpt>
      <trkpt lat="47.9131" lon="-2.59908">
        <ele>97.74</ele>
        <time>2019-03-29T15:52:23Z</time>
      </trkpt>
      <trkpt lat="47.91311" lon="-2.59906">
        <ele>97.79</ele>
        <time>2019-03-29T15:52:24Z</time>
      </trkpt>
      <trkpt lat="47.91312" lon="-2.59904">
        <ele>97.85</ele>
        <time>2019-03-29T15:52:25Z</time>
      </trkpt>
      <trkpt lat="47.91313" lon="-2.59903">
        <ele>97.93</ele>
        <time>2019-03-29T15:52:26Z</time>
      </trkpt>
      <trkpt lat="47.9133" lon="-2.5988">
        <ele>98.94</ele>
        <time>2019-03-29T15:52:41Z</time>
      </trkpt>
      <trkpt lat="47.91347" lon="-2.5987">
        <ele>99.94</ele>
        <time>2019-03-29T15:52:54Z</time>
      </trkpt>
      <trkpt lat="47.91362" lon="-2.59862">
        <ele>101.04</ele>
        <time>2019-03-29T15:53:10Z</time>
      </trkpt>
      <trkpt lat="47.91363" lon="-2.59862">
        <ele>101.07</ele>
        <time>2019-03-29T15:53:11Z</time>
      </trkpt>
      <trkpt lat="47.91365" lon="-2.59861">
        <ele>101.16</ele>
        <time>2019-03-29T15:53:12Z</time>
      </trkpt>
      <trkpt lat="47.91371" lon="-2.59859">
        <ele>101.65</ele>
        <time>2019-03-29T15:53:22Z</time>
      </trkpt>
    </trkseg>
  </trk>
</gpx>